Date StartTime U_cm/s V_cm/s W_cm/s Ustd_cm/s Vstd_cm/s Wstd_cm/s Uvar_(cm/s)^2 Vvar_(cm/s)^2 Wvar_(cm/s)^2 KE_(m/s)^2 TurbulentKE_(m/s)^2 HorizWindSpeed_cm/s FrictionSpeec_cm/s DragCoef SpeedOfSound_m/s SonicTemperature_C Pressure_mb 
04/29/2014  00:00:00      -68.679      -14.048      -11.118       31.409       15.810       16.200      986.503      249.969      262.435        0.327        0.075       70.100       14.205        0.041      337.042        8.749      869.536
04/29/2014  00:01:00      -79.505      -23.304       -7.004       21.148       22.060       16.301      447.257      486.641      265.718        0.406        0.060       82.850       13.667        0.027      337.039        8.744      869.545
04/29/2014  00:02:00     -107.579      -34.918      -12.283       17.775       13.683       11.034      315.947      187.225      121.741        0.678        0.031      113.104        6.472        0.003      336.964        8.617      869.541
04/29/2014  00:03:00     -106.289      -30.933      -15.826       19.921       13.557        9.149      396.841      183.803       83.709        0.658        0.033      110.699        7.185        0.004      336.963        8.617      869.538
04/29/2014  00:04:00      -96.998      -44.366      -14.972       15.403       20.608       12.581      237.244      424.708      158.272        0.621        0.041      106.663        8.888        0.007      337.017        8.706      869.532
04/29/2014  00:05:00     -103.709      -20.004      -14.151       25.638       17.163       14.857      657.328      294.583      220.717        0.626        0.059      105.621       14.276        0.018      336.992        8.666      869.516
04/29/2014  00:06:00      -97.900      -12.796      -11.115       30.396       21.361       15.886      923.899      456.304      252.363        0.575        0.082       98.733        8.427        0.007      336.994        8.667      869.501
04/29/2014  00:07:00      -42.292      -27.681       -0.124       42.623       22.710       14.932     1816.742      515.749      222.972        0.255        0.128       50.546       19.046        0.142      336.993        8.665      869.502
04/29/2014  00:08:00      -88.938      -59.777      -13.928       37.008       25.475       19.245     1369.605      648.964      370.380        0.703        0.119      107.160       16.685        0.024      336.943        8.584      869.520
04/29/2014  00:09:00     -133.178      -59.193      -10.553       56.025       27.809       22.294     3138.750      773.349      497.030        1.288        0.220      145.740       20.370        0.020      336.905        8.519      869.531
04/29/2014  00:10:00     -106.448      -54.229        3.885       55.206       26.413       22.953     3047.728      697.659      526.844        0.928        0.214      119.465       22.238        0.035      336.943        8.581      869.539
04/29/2014  00:11:00      -34.284      -39.545        6.850       50.800       27.487       21.121     2580.652      755.522      446.087        0.328        0.189       52.337       21.452        0.168      337.027        8.722      869.551
04/29/2014  00:12:00      -97.565       -4.216       -7.535       19.062       23.988       18.803      363.362      575.436      353.552        0.544        0.065       97.656       12.643        0.017      337.016        8.705      869.559
04/29/2014  00:13:00     -107.674      -22.991       -8.401       20.614       20.964       13.073      424.930      439.490      170.908        0.661        0.052      110.101        7.236        0.004      337.035        8.737      869.554
04/29/2014  00:14:00     -119.239      -35.460      -11.027       12.999       12.530       10.125      168.979      157.003      102.511        0.801        0.021      124.400        4.640        0.001      336.923        8.550      869.564
04/29/2014  00:15:00     -121.267      -47.536      -11.672        9.676       10.486        8.696       93.626      109.949       75.621        0.869        0.014      130.251        4.621        0.001      336.950        8.594      869.570
04/29/2014  00:16:00     -129.558      -25.333      -21.351       12.898       12.803       12.005      166.353      163.924      144.124        0.918        0.024      132.011        5.122        0.002      337.057        8.774      869.586
04/29/2014  00:17:00      -88.908      -40.862      -13.626       21.132       26.162       16.672      446.582      684.471      277.955        0.558        0.070       97.849       12.859        0.017      336.989        8.660      869.602
04/29/2014  00:18:00      -66.034      -36.318        4.191       31.195       24.422       18.341      973.136      596.451      336.394        0.380        0.095       75.363       17.784        0.056      337.024        8.717      869.596
04/29/2014  00:19:00      -80.212      -18.394       -9.302       31.522       38.926       15.349      993.661     1515.223      235.604        0.480        0.137       82.294        9.915        0.015      336.931        8.562      869.596
04/29/2014  00:20:00      -81.787       -4.425      -14.860       33.406       28.806       17.747     1115.961      829.763      314.943        0.459        0.113       81.906        9.655        0.014      337.043        8.749      869.606
04/29/2014  00:21:00      -75.631      -30.166      -15.706       16.857       22.243       16.014      284.160      494.731      256.433        0.396        0.052       81.425       10.004        0.015      336.926        8.553      869.636
04/29/2014  00:22:00      -83.879      -42.095      -13.209       28.615       32.788       14.975      818.811     1075.052      224.257        0.555        0.106       93.849       14.758        0.025      336.924        8.551      869.642
04/29/2014  00:23:00      -37.624      -44.244       -4.272       50.127       26.175       26.807     2512.673      685.150      718.616        0.365        0.196       58.078       28.774        0.245      336.909        8.527      869.655
04/29/2014  00:24:00      -20.915      -20.642       -1.200       35.827       17.484       18.478     1283.546      305.692      341.443        0.140        0.097       29.386       11.431        0.151      336.876        8.471      869.674
04/29/2014  00:25:00      -73.600      -32.639      -13.468       43.974       25.312       22.169     1933.742      640.683      491.473        0.486        0.153       80.513       24.329        0.091      336.913        8.534      869.702
04/29/2014  00:26:00      -98.361      -30.726      -17.050       29.856       26.660       20.476      891.405      710.752      419.254        0.647        0.101      103.048       13.993        0.018      336.861        8.448      869.711
04/29/2014  00:27:00      -71.203      -23.910       -6.056       30.462       19.567       19.732      927.919      382.851      389.350        0.369        0.085       75.111       16.311        0.047      336.857        8.439      869.735
04/29/2014  00:28:00      -62.717      -28.334        0.900       26.952       19.438       18.765      726.385      377.818      352.117        0.310        0.073       68.820       17.589        0.065      336.798        8.342      869.766
04/29/2014  00:29:00      -66.131      -23.208      -13.421       23.500       18.933       16.051      552.245      358.442      257.647        0.313        0.058       70.085       13.620        0.038      336.898        8.509      869.783
04/29/2014  00:30:00      -66.610      -17.460      -10.991       12.324       15.822       10.623      151.882      250.330      112.847        0.269        0.026       68.860        6.232        0.008      336.975        8.638      869.783
04/29/2014  00:31:00      -57.407      -14.768      -15.591       11.791       14.325       10.796      139.037      205.198      116.546        0.211        0.023       59.276        9.421        0.025      337.000        8.677      869.787
04/29/2014  00:32:00      -79.040      -25.021       -7.491       15.489       12.095       10.070      239.902      146.283      101.397        0.371        0.024       82.906        6.897        0.007      336.860        8.445      869.788
04/29/2014  00:33:00      -82.458      -33.002      -12.182       18.213       16.758       13.288      331.708      280.832      176.570        0.441        0.039       88.818        6.250        0.005      336.841        8.414      869.789
04/29/2014  00:34:00     -113.757      -10.918      -17.572       20.043       17.667       12.147      401.726      312.115      147.549        0.711        0.043      114.280       10.819        0.009      336.737        8.239      869.794
04/29/2014  00:35:00     -100.741      -18.860      -17.260       21.260       19.853       11.495      451.969      394.139      132.135        0.589        0.049      102.492        8.352        0.007      336.772        8.299      869.806
04/29/2014  00:36:00      -82.152      -19.061      -16.079       15.306       15.091       11.281      234.273      227.731      127.270        0.398        0.029       84.335        6.846        0.007      336.768        8.293      869.813
04/29/2014  00:37:00      -66.158      -22.148      -19.311       12.744       12.239        8.785      162.402      149.782       77.176        0.281        0.019       69.767        5.006        0.005      336.854        8.435      869.815
04/29/2014  00:38:00      -60.640      -30.324      -17.403       17.816       18.596       14.451      317.421      345.818      208.830        0.289        0.044       67.799       11.434        0.028      336.891        8.496      869.815
04/29/2014  00:39:00      -35.932      -27.992      -13.015       16.559       16.893       12.881      274.206      285.368      165.925        0.148        0.036       45.548        6.464        0.020      336.893        8.501      869.821
04/29/2014  00:40:00      -52.366       -7.913       -9.623       14.307       12.197       12.050      204.695      148.770      145.211        0.170        0.025       52.960        7.687        0.021      336.820        8.379      869.826
04/29/2014  00:41:00      -50.073       -7.212      -10.264       12.723       10.780        8.460      161.884      116.206       71.564        0.151        0.017       50.590        7.442        0.022      336.921        8.546      869.832
04/29/2014  00:42:00      -30.281       -8.717       -1.513       15.021       18.873       10.260      225.642      356.186      105.270        0.084        0.034       31.511        7.049        0.050      337.085        8.823      869.829
04/29/2014  00:43:00      -18.665      -27.929        3.839       13.010       14.292       14.031      169.250      204.274      196.871        0.086        0.029       33.592        8.740        0.068      336.874        8.468      869.834
04/29/2014  00:44:00      -10.299      -20.362       -1.314       13.073       14.001       15.921      170.903      196.017      253.472        0.057        0.031       22.818        7.204        0.100      336.852        8.431      869.836
04/29/2014  00:45:00      -38.764      -16.206       -3.221       22.487        8.725       13.060      505.685       76.134      170.576        0.126        0.038       42.015       15.008        0.128      336.785        8.319      869.839
04/29/2014  00:46:00      -55.705      -30.444       -6.507       11.054       14.796        9.318      122.192      218.913       86.824        0.225        0.021       63.481        6.394        0.010      336.770        8.295      869.842
04/29/2014  00:47:00      -81.650      -21.990      -13.012       21.082       10.562        8.492      444.433      111.552       72.114        0.397        0.031       84.560        5.289        0.004      336.615        8.036      869.866
04/29/2014  00:48:00      -97.940       -5.475      -12.100       14.371       22.704       10.205      206.522      515.477      104.151        0.530        0.041       98.093        6.159        0.004      336.708        8.191      869.872
04/29/2014  00:49:00      -86.335      -10.389      -18.824       17.627       13.376       14.711      310.723      178.919      216.406        0.431        0.035       86.958       11.347        0.017      336.638        8.076      869.880
04/29/2014  00:50:00      -44.460        8.187       -4.241       22.609       18.424       15.070      511.144      339.427      227.114        0.157        0.054       45.207        9.939        0.048      337.015        8.706      869.884
04/29/2014  00:51:00      -32.270       -6.066        1.157        8.191       13.827        7.789       67.093      191.181       60.666        0.070        0.016       32.836        5.152        0.025      337.232        9.067      869.895
04/29/2014  00:52:00      -40.002      -17.964       -8.021        9.889       10.122        6.814       97.802      102.456       46.432        0.112        0.012       43.850        5.225        0.014      337.141        8.915      869.908
04/29/2014  00:53:00      -31.283      -20.096      -10.595       13.051        8.784        9.763      170.318       77.153       95.310        0.092        0.017       37.182        5.603        0.023      337.194        9.004      869.920
04/29/2014  00:54:00      -33.352      -22.649      -11.818       15.757       13.622        9.949      248.268      185.547       98.983        0.115        0.027       40.315        6.832        0.029      337.168        8.961      869.938
04/29/2014  00:55:00      -38.021      -14.621       -6.247        9.224        8.529        8.337       85.081       72.737       69.502        0.096        0.011       40.735        2.939        0.005      337.062        8.784      869.954
04/29/2014  00:56:00      -49.033       -7.310       -6.953       11.878       12.064        5.271      141.078      145.536       27.784        0.141        0.016       49.575        2.042        0.002      336.914        8.537      869.987
04/29/2014  00:57:00      -49.050      -19.695      -16.822        9.120        9.584        7.470       83.170       91.857       55.803        0.165        0.012       52.857        5.781        0.012      336.823        8.383      870.001
04/29/2014  00:58:00      -54.791      -16.114       -7.509        7.979        8.057        4.813       63.662       64.919       23.165        0.173        0.008       57.111        2.922        0.003      336.868        8.459      870.009
04/29/2014  00:59:00      -47.626      -12.929       -4.628       14.421       12.944       10.677      207.956      167.557      113.993        0.147        0.024       49.350        5.881        0.014      336.929        8.561      870.017
04/29/2014  01:00:00      -36.243        7.776      -10.542       16.485       26.621       12.813      271.742      708.702      164.163        0.131        0.057       37.068        6.318        0.029      336.978        8.644      870.025
04/29/2014  01:01:00      -25.084       -2.797       -2.518       18.567       16.297        8.734      344.747      265.584       76.281        0.066        0.034       25.239        4.733        0.035      336.990        8.662      870.042
04/29/2014  01:02:00      -47.068      -13.875       -7.435       15.155       10.801       10.074      229.685      116.661      101.488        0.146        0.022       49.071        9.763        0.040      336.737        8.241      870.056
04/29/2014  01:03:00      -44.285      -23.826      -12.147       11.081       10.895       12.019      122.790      118.703      144.454        0.153        0.019       50.288        6.367        0.016      336.658        8.107      870.068
04/29/2014  01:04:00      -48.310      -22.067      -20.031       13.228        9.586        7.682      174.984       91.891       59.017        0.177        0.016       53.112        3.984        0.006      336.708        8.192      870.084
04/29/2014  01:05:00      -54.429      -21.568       -5.428       14.935       14.440       15.085      223.064      208.524      227.557        0.206        0.033       58.546        9.779        0.028      336.587        7.990      870.091
04/29/2014  01:06:00      -68.944      -24.979       -9.841       14.456       14.988       14.005      208.990      224.655      196.149        0.305        0.031       73.330       11.277        0.024      336.508        7.859      870.102
04/29/2014  01:07:00      -97.314       -5.362      -19.019       14.651       13.485       13.020      214.662      181.850      169.523        0.521        0.028       97.461        7.626        0.006      336.533        7.899      870.109
04/29/2014  01:08:00      -76.767       -7.756      -14.888       19.577       15.611        9.202      383.264      243.689       84.670        0.344        0.036       77.158        7.102        0.008      336.415        7.702      870.117
04/29/2014  01:09:00      -57.214      -29.193      -15.163       14.112       23.176       10.630      199.144      537.139      112.989        0.260        0.042       64.232        3.781        0.003      336.429        7.726      870.117
04/29/2014  01:10:00      -70.039      -35.582      -20.332       12.577       14.831        8.670      158.179      219.954       75.171        0.352        0.023       78.559        8.550        0.012      336.517        7.871      870.117
04/29/2014  01:11:00      -88.881      -31.325      -16.062       17.543       16.119       12.027      307.760      259.820      144.644        0.493        0.036       94.240       10.079        0.011      336.419        7.708      870.114
04/29/2014  01:12:00      -75.865      -34.178      -13.653       16.279       16.088       12.345      265.021      258.809      152.399        0.389        0.034       83.209        8.226        0.010      336.434        7.733      870.111
04/29/2014  01:13:00      -80.899      -18.464      -21.741       13.443       14.775        8.268      180.724      218.291       68.365        0.391        0.023       82.980        5.427        0.004      336.489        7.824      870.117
04/29/2014  01:14:00      -55.310      -38.249       -6.573       21.305       17.991       15.892      453.885      323.682      252.567        0.280        0.052       67.247       11.538        0.029      336.407        7.688      870.122
04/29/2014  01:15:00      -77.582      -31.602      -17.216       19.310       20.402       14.128      372.861      416.223      199.603        0.415        0.049       83.771       10.345        0.015      336.326        7.553      870.140
04/29/2014  01:16:00      -74.843      -44.973      -20.699       21.829       19.503       17.343      476.499      380.372      300.792        0.460        0.058       87.316        6.272        0.005      336.351        7.593      870.154
04/29/2014  01:17:00      -86.448      -48.087      -22.622       17.843       19.666       13.713      318.390      386.771      188.046        0.560        0.045       98.922       10.645        0.012      336.290        7.492      870.148
04/29/2014  01:18:00      -81.658      -40.764      -18.504       17.414       18.201       14.740      303.230      331.271      217.264        0.476        0.043       91.267        6.552        0.005      336.363        7.614      870.128
04/29/2014  01:19:00      -49.373      -46.121      -28.771       25.428       17.600       14.055      646.563      309.759      197.556        0.327        0.058       67.564       13.054        0.037      336.463        7.780      870.107
04/29/2014  01:20:00      -30.686      -40.897       -0.579       20.776       25.281       14.000      431.658      639.115      195.997        0.194        0.063       51.129        8.915        0.030      336.404        7.684      870.082
04/29/2014  01:21:00      -51.359      -25.521      -11.615       17.338       12.354        9.625      300.590      152.619       92.641        0.198        0.027       57.350        7.901        0.019      336.431        7.728      870.060
04/29/2014  01:22:00      -56.394      -33.337      -15.030       12.405       11.875        9.272      153.872      141.015       85.964        0.245        0.019       65.510        6.429        0.010      336.487        7.822      870.054
04/29/2014  01:23:00      -70.018      -45.843      -19.130       17.090       20.690       11.456      292.082      428.066      131.232        0.411        0.043       83.690       10.235        0.015      336.422        7.714      870.069
04/29/2014  01:24:00      -69.439      -47.458      -12.414       13.860       20.717       15.033      192.101      429.199      225.985        0.404        0.042       84.107       10.747        0.016      336.315        7.535      870.091
04/29/2014  01:25:00      -79.262      -57.774      -21.947       13.743       17.125       11.623      188.859      293.265      135.103        0.536        0.031       98.083        7.002        0.005      336.287        7.487      870.096
04/29/2014  01:26:00      -76.856      -45.781      -20.731       28.596       20.535       16.574      817.716      421.696      274.713        0.497        0.076       89.458       16.821        0.035      336.244        7.416      870.095
04/29/2014  01:27:00      -85.215      -28.255      -18.194       14.507       18.328       17.909      210.439      335.917      320.748        0.463        0.043       89.777        6.074        0.005      336.271        7.460      870.094
04/29/2014  01:28:00      -68.992      -50.809      -14.194       24.944       28.371       18.581      622.194      804.905      345.264        0.466        0.089       85.682       17.677        0.043      336.332        7.563      870.080
04/29/2014  01:29:00      -82.863      -47.378      -12.582       24.934       19.868       21.645      621.729      394.739      468.519        0.538        0.074       95.451       15.679        0.027      336.291        7.494      870.085
04/29/2014  01:30:00      -84.808      -45.068      -28.721       32.919       24.389       21.532     1083.675      594.804      463.622        0.609        0.107       96.040       11.643        0.015      336.313        7.530      870.079
04/29/2014  01:31:00     -104.407      -21.469      -26.351       15.112       18.306       16.870      228.380      335.124      284.602        0.645        0.042      106.592        7.855        0.005      336.272        7.462      870.074
04/29/2014  01:32:00      -98.995      -22.432      -19.104       25.167       26.085       19.099      633.403      680.431      364.780        0.617        0.084      101.504       17.342        0.029      336.264        7.448      870.077
04/29/2014  01:33:00      -93.145      -15.748      -25.591       18.225       18.281       12.454      332.156      334.196      155.107        0.520        0.041       94.467        7.340        0.006      336.328        7.557      870.071
04/29/2014  01:34:00      -72.910       -7.927      -13.591       17.430       15.815       14.353      303.821      250.122      206.008        0.316        0.038       73.339       10.283        0.020      336.802        8.349      870.077
04/29/2014  01:35:00      -45.043      -11.259      -15.784       14.424       14.087       13.029      208.038      198.447      169.753        0.149        0.029       46.429        7.623        0.027      336.685        8.153      870.080
04/29/2014  01:36:00      -24.317       12.578       -2.915       19.118       17.444        9.914      365.514      304.286       98.286        0.076        0.038       27.378        9.428        0.119      337.436        9.410      870.077
04/29/2014  01:37:00      -16.530       10.086       -5.919       23.065       26.487       15.888      531.973      701.537      252.427        0.095        0.074       19.364       16.402        0.717      337.139        8.912      870.080
04/29/2014  01:38:00      -17.802       17.517       -3.184       17.254       14.775       14.362      297.692      218.315      206.271        0.068        0.036       24.975       10.146        0.165      337.078        8.810      870.097
04/29/2014  01:39:00       -0.395        6.362       -3.809       23.794       20.236       14.075      566.160      409.511      198.115        0.061        0.059        6.374        7.694        1.457      337.328        9.228      870.104
04/29/2014  01:40:00      -36.383      -23.342       -3.044       18.919       11.921       11.612      357.914      142.106      134.845        0.126        0.032       43.227        6.682        0.024      336.917        8.540      870.104
04/29/2014  01:41:00      -47.196      -24.450       -9.892       27.967       16.648       20.681      782.169      277.166      427.698        0.220        0.074       53.153        8.155        0.024      336.844        8.420      870.107
04/29/2014  01:42:00      -68.894      -24.766      -14.835       20.643       12.202       12.626      426.127      148.896      159.413        0.316        0.037       73.210        9.594        0.017      336.624        8.053      870.110
04/29/2014  01:43:00      -86.427      -11.999      -19.657       15.432       17.560       12.031      238.148      308.364      144.751        0.435        0.035       87.256        9.355        0.011      336.537        7.905      870.106
04/29/2014  01:44:00      -77.860      -15.058      -17.871       16.850       13.977        9.867      283.920      195.349       97.351        0.359        0.029       79.303        7.387        0.009      336.585        7.984      870.104
04/29/2014  01:45:00      -30.201       -5.495       -6.278       17.466       11.954       12.696      305.076      142.904      161.199        0.080        0.030       30.697       12.294        0.160      337.051        8.763      870.104
04/29/2014  01:46:00      -24.406       -1.771      -10.162       21.274       13.587       16.614      452.594      184.612      276.017        0.081        0.046       24.470       12.193        0.248      337.020        8.712      870.095
04/29/2014  01:47:00      -16.670       12.832       -7.071       28.061       21.275       19.298      787.394      452.606      372.423        0.105        0.081       21.037       10.872        0.267      337.119        8.878      870.087
04/29/2014  01:48:00      -35.446       -1.720       -7.444       26.944       25.111       20.651      725.994      630.569      426.444        0.155        0.089       35.488       15.306        0.186      337.049        8.761      870.074
04/29/2014  01:49:00      -25.255       -3.328       -0.529       22.421       31.175       16.994      502.703      971.883      288.782        0.121        0.088       25.473       14.303        0.315      337.001        8.681      870.079
04/29/2014  01:50:00      -33.356        1.373       -5.917       22.857       16.441       16.557      522.423      270.292      274.146        0.111        0.053       33.384       15.527        0.216      336.730        8.230      870.091
04/29/2014  01:51:00      -66.490      -11.783      -21.839       15.968       15.565       12.064      254.971      242.267      145.546        0.284        0.032       67.526        8.765        0.017      336.293        7.498      870.100
04/29/2014  01:52:00      -90.405      -19.410      -20.538       17.903       11.712       11.730      320.526      137.170      137.604        0.478        0.030       92.465        7.100        0.006      336.206        7.351      870.100
04/29/2014  01:53:00      -96.949      -13.044      -11.166       26.623       23.622       13.737      708.793      557.978      188.713        0.557        0.073       97.822       13.389        0.019      336.302        7.512      870.091
04/29/2014  01:54:00      -55.395      -13.484      -11.037       28.024       18.573       18.796      785.338      344.963      353.299        0.243        0.074       57.012       17.033        0.089      336.379        7.640      870.080
04/29/2014  01:55:00      -49.286      -18.582      -13.187       26.631       22.535       13.241      709.213      507.820      175.327        0.217        0.070       52.672       12.902        0.060      336.340        7.577      870.075
04/29/2014  01:56:00      -43.082      -31.436       -8.561       12.100       18.674       10.368      146.421      348.721      107.490        0.176        0.030       53.332        6.363        0.014      336.279        7.474      870.078
04/29/2014  01:57:00      -29.586      -19.317       -5.157       18.232       17.703        9.901      332.396      313.407       98.025        0.101        0.037       35.334        3.157        0.008      336.486        7.821      870.083
04/29/2014  01:58:00      -19.427       12.530       -3.453       37.746       25.157       19.621     1424.735      632.859      384.970        0.149        0.122       23.117       19.068        0.680      336.957        8.607      870.074
04/29/2014  01:59:00      -16.204       -1.662        0.539       19.097       14.039       16.164      364.710      197.080      261.271        0.054        0.041       16.289       11.397        0.490      336.867        8.458      870.054
04/29/2014  02:00:00      -21.770      126.169      -24.471       20.736       48.468       19.034      429.979     2349.159      362.287        1.007        0.157      128.034       23.072        0.032      337.598        9.681      870.040
04/29/2014  02:01:00       -8.155      153.183      -26.328       16.039       20.331        9.013      257.234      413.339       81.241        1.249        0.038      153.400        7.950        0.003      337.697        9.848      870.037
04/29/2014  02:02:00      -20.440      148.546      -24.896       21.418       15.019        9.991      458.743      225.560       99.821        1.194        0.039      149.946        8.441        0.003      337.697        9.847      870.027
04/29/2014  02:03:00      -11.803      151.633      -25.198       16.448       19.100        8.107      270.541      364.813       65.721        1.223        0.035      152.092        7.365        0.002      337.608        9.696      870.020
04/29/2014  02:04:00      -22.959      156.219      -25.419       18.951       17.942        9.792      359.128      321.917       95.875        1.318        0.039      157.897        7.730        0.002      337.605        9.693      870.006
04/29/2014  02:05:00       -9.720      162.288      -26.854       23.077       19.739       11.229      532.533      389.616      126.086        1.410        0.052      162.579        7.153        0.002      337.511        9.535      869.996
04/29/2014  02:06:00      -18.420      158.380      -26.392       24.015       18.777       12.193      576.713      352.565      148.659        1.360        0.054      159.448        9.439        0.004      337.505        9.525      869.984
04/29/2014  02:07:00       13.763      149.948      -24.360       21.538       23.855       11.503      463.902      569.063      132.312        1.222        0.058      150.579        9.720        0.004      337.430        9.398      869.977
04/29/2014  02:08:00       30.751      125.142      -23.344       26.500       33.459       14.337      702.243     1119.536      205.560        0.959        0.101      128.865       13.119        0.010      337.260        9.114      869.967
04/29/2014  02:09:00       32.158      119.786      -21.028       18.945       27.629       13.098      358.913      763.356      171.548        0.856        0.065      124.027        8.033        0.004      337.259        9.113      869.962
04/29/2014  02:10:00       27.096      115.135      -16.971       22.532       35.046       14.704      507.672     1228.252      216.201        0.811        0.098      118.280        8.864        0.006      337.233        9.069      869.954
04/29/2014  02:11:00       28.121      102.303      -11.983       25.722       34.083       18.082      661.619     1161.662      326.961        0.677        0.108      106.097       16.588        0.024      337.224        9.052      869.938
04/29/2014  02:12:00       29.614      128.089      -22.908       23.465       30.485       16.601      550.591      929.327      275.596        0.978        0.088      131.468       11.915        0.008      337.324        9.220      869.925
04/29/2014  02:13:00       29.810      115.158      -19.581       22.652       23.842       12.116      513.101      568.438      146.808        0.788        0.061      118.954       10.347        0.008      337.350        9.263      869.913
04/29/2014  02:14:00       20.631      123.629      -21.576       17.949       16.873        9.189      322.154      284.706       84.441        0.843        0.035      125.339        7.248        0.003      337.377        9.310      869.900
04/29/2014  02:15:00        1.072      112.260      -19.192       15.493       19.409        9.088      240.045      376.693       82.589        0.684        0.035      112.265       10.387        0.009      337.368        9.295      869.894
04/29/2014  02:16:00       -3.338       96.858      -16.922       13.583       18.113       10.302      184.502      328.066      106.133        0.515        0.031       96.916        8.661        0.008      337.334        9.238      869.888
04/29/2014  02:17:00      -15.063       90.941      -13.619       24.042       22.740       16.169      578.026      517.098      261.437        0.502        0.068       92.180       13.819        0.022      337.425        9.391      869.878
04/29/2014  02:18:00        9.351      105.061      -19.409       16.235       15.076        9.032      263.570      227.278       81.570        0.604        0.029      105.477        7.422        0.005      337.548        9.596      869.876
04/29/2014  02:19:00        3.055       88.106      -17.050       20.880       10.328        8.405      435.961      106.672       70.645        0.434        0.031       88.159        7.389        0.007      337.458        9.445      869.861
04/29/2014  02:20:00       -2.982       95.479      -16.980       16.833       17.840       11.157      283.363      318.250      124.489        0.507        0.036       95.525       10.220        0.011      337.530        9.564      869.851
04/29/2014  02:21:00       15.575       96.309      -15.713       16.962       14.741        9.526      287.710      217.298       90.743        0.518        0.030       97.560        7.343        0.006      337.443        9.420      869.841
04/29/2014  02:22:00       12.606       94.030      -16.911       20.532       14.129        8.019      421.565      199.642       64.312        0.499        0.034       94.871        8.649        0.008      337.361        9.282      869.826
04/29/2014  02:23:00       23.821       79.838      -15.060       18.905       20.867       12.312      357.397      435.421      151.586        0.406        0.047       83.316        9.122        0.012      337.276        9.141      869.816
04/29/2014  02:24:00       26.721       87.001      -14.334       15.291       12.436        9.402      233.800      154.650       88.402        0.448        0.024       91.012        6.451        0.005      337.305        9.189      869.799
04/29/2014  02:25:00       13.791      107.863      -17.223       15.952       14.464        7.475      254.472      209.205       55.879        0.632        0.026      108.741        6.073        0.003      337.386        9.324      869.787
04/29/2014  02:26:00       16.995      112.700      -18.732       14.891       14.309        5.543      221.739      204.752       30.721        0.690        0.023      113.975        4.164        0.001      337.378        9.312      869.789
04/29/2014  02:27:00       17.987      114.397      -17.455       19.817       17.433        7.186      392.699      303.893       51.636        0.723        0.037      115.802        6.491        0.003      337.351        9.266      869.796
04/29/2014  02:28:00       27.830      100.854      -17.622       23.045       36.080       15.226      531.052     1301.780      231.818        0.666        0.103      104.623       12.438        0.014      337.328        9.229      869.811
04/29/2014  02:29:00       17.476       97.583      -14.904       18.809       29.370       12.237      353.792      862.595      149.744        0.571        0.068       99.136       11.102        0.013      337.295        9.172      869.829
04/29/2014  02:30:00       -9.524      106.067      -18.382       16.956       16.094        9.090      287.495      259.022       82.625        0.615        0.031      106.493        6.147        0.003      337.441        9.416      869.842
04/29/2014  02:31:00       13.632      111.170      -17.716       18.996       17.370        8.804      360.846      301.710       77.506        0.680        0.037      112.003        7.725        0.005      337.425        9.389      869.860
04/29/2014  02:32:00       -0.656       86.916      -15.699       21.596       17.694       11.206      466.374      313.060      125.583        0.435        0.045       86.918        9.743        0.013      337.376        9.307      869.882
04/29/2014  02:33:00        4.092       68.653      -12.862       14.072       15.391        7.742      198.021      236.876       59.940        0.270        0.025       68.775        7.225        0.011      337.422        9.384      869.895
04/29/2014  02:34:00       11.763       93.572      -14.123       16.545       13.092        7.439      273.729      171.388       55.344        0.480        0.025       94.308        5.516        0.003      337.421        9.383      869.909
04/29/2014  02:35:00       28.833      102.646      -16.042       18.042       12.830        8.111      325.528      164.610       65.784        0.609        0.028      106.619        3.859        0.001      337.384        9.320      869.916
04/29/2014  02:36:00       27.801       97.877      -17.366       19.792       20.851       12.677      391.720      434.761      160.716        0.582        0.049      101.748       10.966        0.012      337.374        9.305      869.920
04/29/2014  02:37:00       11.143      107.500      -16.680       14.750       15.254        8.035      217.577      232.680       64.554        0.624        0.026      108.076        6.447        0.004      337.400        9.350      869.925
04/29/2014  02:38:00       21.223      130.836      -24.313       26.322       19.442        9.911      692.847      377.998       98.224        0.966        0.058      132.547       10.043        0.006      337.393        9.336      869.929
04/29/2014  02:39:00       17.800      118.422      -19.992       23.559       31.010       14.727      555.032      961.643      216.883        0.824        0.087      119.752       13.954        0.014      337.344        9.254      869.922
04/29/2014  02:40:00       21.436      136.316      -18.435       29.063       21.212        9.650      844.644      449.965       93.120        1.038        0.069      137.991        7.316        0.003      337.384        9.323      869.918
04/29/2014  02:41:00       31.560      113.016      -19.541       24.027       30.915       11.975      577.277      955.708      143.412        0.791        0.084      117.340        7.573        0.004      337.303        9.186      869.913
04/29/2014  02:42:00       21.866       77.892      -14.244       21.678       37.317       19.324      469.936     1392.584      373.423        0.449        0.112       80.903       15.663        0.037      337.127        8.890      869.915
04/29/2014  02:43:00       32.615       82.260      -12.648       28.915       39.212       20.513      836.061     1537.543      420.786        0.539        0.140       88.490       17.172        0.038      337.118        8.876      869.911
04/29/2014  02:44:00       30.434       86.019      -16.784       23.464       42.525       18.532      550.580     1808.360      343.444        0.565        0.135       91.244       17.099        0.035      337.166        8.957      869.921
04/29/2014  02:45:00       33.208       85.374      -15.520       24.786       39.285       22.621      614.363     1543.329      511.722        0.565        0.133       91.605       18.540        0.041      337.190        8.997      869.933
04/29/2014  02:46:00       12.076       88.533      -12.195       19.685       34.165       13.590      387.502     1167.238      184.691        0.494        0.087       89.353       12.394        0.019      337.297        9.176      869.941
04/29/2014  02:47:00        7.263      103.652      -17.895       28.751       18.774       10.635      826.609      352.450      113.094        0.620        0.065      103.906       10.442        0.010      337.309        9.198      869.953
04/29/2014  02:48:00       -4.323      110.554      -19.735       12.965       15.634        9.761      168.089      244.414       95.280        0.657        0.025      110.639        8.068        0.005      337.367        9.293      869.952
04/29/2014  02:49:00       -5.096      105.183      -21.677       23.193       26.867       12.375      537.917      721.817      153.147        0.649        0.071      105.306       12.878        0.015      337.306        9.192      869.946
04/29/2014  02:50:00       -4.965      108.467      -21.513       12.475       12.698        6.422      155.629      161.243       41.242        0.631        0.018      108.580        2.096        0.000      337.350        9.264      869.950
04/29/2014  02:51:00       -6.272      108.694      -19.760       15.354       15.272       10.518      235.753      233.238      110.625        0.641        0.029      108.875        2.923        0.001      337.412        9.368      869.957
04/29/2014  02:52:00        9.235      118.721      -21.515       18.458       22.915       10.730      340.693      525.090      115.136        0.781        0.049      119.080       11.681        0.010      337.355        9.274      869.972
04/29/2014  02:53:00        2.776      111.466      -19.350       22.225       14.881        9.538      493.962      221.444       90.974        0.681        0.040      111.501        6.002        0.003      337.329        9.230      869.996
04/29/2014  02:54:00        3.780       99.385      -16.448       18.480       16.076        9.147      341.504      258.426       83.662        0.542        0.034       99.457        8.955        0.008      337.375        9.307      870.009
04/29/2014  02:55:00       12.132       95.363      -14.533       15.415       12.643        8.115      237.637      159.839       65.859        0.496        0.023       96.131        5.359        0.003      337.338        9.244      870.019
04/29/2014  02:56:00        0.579       87.216      -13.637       12.737       13.751        6.991      162.220      189.082       48.869        0.410        0.020       87.218        6.595        0.006      337.293        9.169      870.026
04/29/2014  02:57:00       -8.887       90.001      -15.850       19.669       18.436        8.079      386.854      339.890       65.266        0.461        0.040       90.439        4.760        0.003      337.249        9.096      870.026
04/29/2014  02:58:00      -18.881       54.735      -11.249       25.803       30.291       13.951      665.796      917.572      194.626        0.263        0.089       57.900       14.799        0.065      337.056        8.774      870.020
04/29/2014  02:59:00       10.064       86.774      -10.679       18.608       18.832       11.645      346.263      354.646      135.614        0.429        0.042       87.356       12.468        0.020      337.267        9.127      870.024
04/29/2014  03:00:00       -6.951       93.629      -14.407       12.292       17.709        9.487      151.103      313.611       90.009        0.479        0.028       93.887       10.223        0.012      337.252        9.102      870.034
04/29/2014  03:01:00       12.168      104.057      -15.860       17.423       14.511        7.430      303.578      210.571       55.206        0.590        0.028      104.766        5.910        0.003      337.226        9.057      870.028
04/29/2014  03:02:00       16.577      115.084      -16.116       16.924       11.811        6.987      286.409      139.511       48.814        0.713        0.024      116.272        3.097        0.001      337.253        9.102      870.016
04/29/2014  03:03:00       27.656      126.057      -18.255       17.450       14.489        7.614      304.502      209.937       57.971        0.878        0.029      129.055        6.256        0.002      337.278        9.144      870.014
04/29/2014  03:04:00       39.852      113.627      -19.286       26.087       39.525       16.353      680.506     1562.252      267.405        0.869        0.126      120.413       17.421        0.021      337.183        8.984      870.026
04/29/2014  03:05:00       33.389      127.144      -22.722       19.279       20.482       12.025      371.670      419.522      144.600        0.937        0.047      131.455        9.009        0.005      337.187        8.991      870.037
04/29/2014  03:06:00       30.507      130.738      -21.858       20.512       18.196       10.396      420.743      331.078      108.068        0.968        0.043      134.250        6.746        0.003      337.253        9.102      870.044
04/29/2014  03:07:00       20.742      118.635      -18.641       19.267       22.413        9.746      371.220      502.350       94.989        0.791        0.048      120.435        3.565        0.001      337.256        9.107      870.058
04/29/2014  03:08:00       11.329      109.004      -19.241       18.851       18.793        7.953      355.354      353.160       63.253        0.658        0.039      109.592        5.969        0.003      337.210        9.031      870.072
04/29/2014  03:09:00       12.968      106.301      -20.349       28.323       21.154        9.603      802.217      447.508       92.220        0.661        0.067      107.089       10.362        0.009      337.167        8.959      870.085
04/29/2014  03:10:00       -3.362      103.412      -18.062       15.305       20.572        8.114      234.257      423.210       65.837        0.588        0.036      103.466        8.598        0.007      337.176        8.974      870.088
04/29/2014  03:11:00      -15.767       96.283      -16.772       26.979       33.234       24.229      727.857     1104.511      587.047        0.611        0.121       97.566       21.922        0.050      337.086        8.822      870.085
04/29/2014  03:12:00      -19.318       54.961      -15.548       24.996       34.540       12.195      624.805     1193.034      148.707        0.280        0.098       58.257       11.827        0.041      336.991        8.664      870.085
04/29/2014  03:13:00      -24.598       42.094      -13.437       29.298       47.201       17.253      858.355     2227.912      297.679        0.297        0.169       48.755       18.448        0.143      337.038        8.743      870.078
04/29/2014  03:14:00      -27.972       78.465      -14.391       30.709       23.710       15.249      943.025      562.181      232.517        0.444        0.087       83.302       12.967        0.024      337.110        8.863      870.077
04/29/2014  03:15:00      -13.437      108.746      -18.693       25.207       34.940       15.290      635.375     1220.810      233.778        0.722        0.104      109.573       18.903        0.030      337.131        8.898      870.065
04/29/2014  03:16:00      -22.520       72.112       -6.080       27.162       29.581       21.161      737.770      875.062      447.778        0.390        0.103       75.546       18.676        0.061      337.048        8.758      870.054
04/29/2014  03:17:00      -32.700      118.955      -18.467       29.553       34.279       13.518      873.406     1175.056      182.732        0.890        0.112      123.368       13.480        0.012      337.075        8.805      870.030
04/29/2014  03:18:00        5.216      153.593      -24.480       26.321       31.672       12.641      692.809     1003.100      159.796        1.304        0.093      153.682       11.984        0.006      337.236        9.073      870.030
04/29/2014  03:19:00       16.383      165.075      -23.651       25.108       25.784       10.515      630.391      664.796      110.570        1.474        0.070      165.886        5.113        0.001      337.140        8.913      870.028
04/29/2014  03:20:00       33.846      180.716      -26.541       31.261       32.574       15.804      977.269     1061.036      249.760        1.840        0.114      183.858       14.869        0.007      337.267        9.125      870.034
04/29/2014  03:21:00       17.013      164.005      -25.705       31.533       24.098       12.650      994.336      580.700      160.018        1.479        0.087      164.885        9.461        0.003      337.182        8.985      870.051
04/29/2014  03:22:00       19.498      186.379      -33.194       29.948       21.495       15.003      896.869      462.042      225.104        1.890        0.079      187.396       13.927        0.006      337.304        9.187      870.068
04/29/2014  03:23:00       26.922      152.162      -26.173       32.581       28.102       15.467     1061.515      789.733      239.234        1.333        0.105      154.526       15.539        0.010      337.219        9.045      870.082
04/29/2014  03:24:00       20.195      130.475      -21.447       23.928       28.175       14.390      572.572      793.823      207.062        0.973        0.079      132.029       12.487        0.009      337.127        8.891      870.099
04/29/2014  03:25:00       16.753      145.955      -23.399       21.959       22.847       18.800      482.196      522.007      353.456        1.174        0.068      146.913        7.384        0.003      337.193        9.000      870.116
04/29/2014  03:26:00       17.573       79.050       -9.200       29.106       46.948       17.444      847.158     2204.132      304.295        0.500        0.168       80.980       17.737        0.048      337.022        8.714      870.135
04/29/2014  03:27:00       32.164       93.671      -12.403       23.856       33.747       21.325      569.127     1138.852      454.764        0.606        0.108       99.039       23.755        0.058      337.156        8.940      870.149
04/29/2014  03:28:00       19.041      112.467      -16.494       35.063       27.025       13.232     1229.443      730.333      175.094        0.771        0.107      114.068       12.689        0.012      337.174        8.970      870.161
04/29/2014  03:29:00       18.880       74.670       -1.588       35.356       34.167       22.527     1250.068     1167.415      507.484        0.443        0.146       77.020       19.342        0.063      337.118        8.875      870.178
04/29/2014  03:30:00       14.293      102.031      -15.439       21.397       26.128       13.452      457.813      682.689      180.961        0.609        0.066      103.028       10.573        0.011      337.115        8.870      870.200
04/29/2014  03:31:00       10.973       77.611      -10.384       25.649       33.400       17.223      657.866     1115.588      296.623        0.416        0.104       78.383       17.526        0.050      337.101        8.847      870.221
04/29/2014  03:32:00       21.979       51.426       -4.544       27.681       38.534       19.876      766.234     1484.859      395.050        0.290        0.132       55.926       15.421        0.076      337.172        8.965      870.223
04/29/2014  03:33:00       20.857       63.487       -7.512       43.559       31.465       19.351     1897.422      990.030      374.465        0.389        0.163       66.825       20.825        0.097      337.236        9.073      870.225
04/29/2014  03:34:00       -8.404       15.280       10.159       30.495       16.601       16.408      929.964      275.596      269.232        0.094        0.074       17.438        9.029        0.268      336.944        8.587      870.233
04/29/2014  03:35:00      -59.292       -7.460      -11.288       16.234       11.346       10.536      263.536      128.727      111.000        0.210        0.025       59.759        6.642        0.012      336.443        7.748      870.246
04/29/2014  03:36:00      -72.119       -2.021      -10.767       12.082        9.217       11.010      145.984       84.947      121.230        0.284        0.018       72.148        7.745        0.012      336.470        7.793      870.253
04/29/2014  03:37:00      -49.801        4.449      -13.562       17.699        9.760        9.757      313.270       95.250       95.203        0.159        0.025       49.999        5.320        0.011      336.643        8.082      870.266
04/29/2014  03:38:00      -15.499       10.272       -0.057       22.357       14.591        9.809      499.818      212.907       96.219        0.058        0.040       18.594        6.474        0.121      336.970        8.628      870.279
04/29/2014  03:39:00      -51.007        4.733       -7.117       11.974       14.780       14.807      143.388      218.456      219.260        0.163        0.029       51.226       11.237        0.048      336.684        8.150      870.282
04/29/2014  03:40:00      -63.981       -7.923       -9.857        7.558       16.325        7.285       57.119      266.496       53.072        0.232        0.019       64.470        4.193        0.004      336.422        7.713      870.284
04/29/2014  03:41:00      -63.666       -4.807       -9.801        8.409       17.980        9.862       70.706      323.286       97.265        0.233        0.025       63.847        8.241        0.017      336.576        7.969      870.289
04/29/2014  03:42:00      -47.553       -4.309       -8.045        9.416       11.263        7.441       88.667      126.850       55.374        0.131        0.014       47.748        6.583        0.019      336.649        8.094      870.295
04/29/2014  03:43:00      -28.592      -10.868      -10.238       14.233       13.918        7.146      202.582      193.703       51.067        0.074        0.022       30.588        7.838        0.066      336.844        8.419      870.292
04/29/2014  03:44:00      -36.248      -44.055       -3.758       22.102       13.479        9.537      488.505      181.677       90.962        0.201        0.038       57.050       11.546        0.041      337.054        8.769      870.296
04/29/2014  03:45:00      -94.761      -23.462      -14.263       24.345       15.830       16.741      592.680      250.603      280.271        0.543        0.056       97.623       15.403        0.025      336.416        7.703      870.283
04/29/2014  03:46:00      -56.138      -14.332       -3.534       15.261       16.896       14.418      232.892      285.460      207.887        0.205        0.036       57.939       11.190        0.037      336.154        7.265      870.286
04/29/2014  03:47:00      -79.340       -2.210      -15.385        9.997       10.066        6.251       99.945      101.318       39.077        0.339        0.012       79.371        4.569        0.003      336.418        7.708      870.304
04/29/2014  03:48:00      -67.185       -9.765      -17.450       15.416       12.416        8.852      237.650      154.167       78.354        0.269        0.024       67.891        8.897        0.017      336.328        7.556      870.324
04/29/2014  03:49:00      -65.296      -14.278      -11.581        7.541       17.836        7.718       56.874      318.135       59.574        0.252        0.022       66.839        3.632        0.003      336.104        7.182      870.335
04/29/2014  03:50:00      -75.637       19.044      -18.196        9.266       11.484        7.384       85.857      131.893       54.524        0.334        0.014       77.998        5.879        0.006      336.626        8.055      870.354
04/29/2014  03:51:00      -53.837       21.384      -11.521       15.187       17.699        9.415      230.647      313.261       88.645        0.206        0.032       57.928        7.404        0.016      336.393        7.664      870.375
04/29/2014  03:52:00      -48.632       15.556      -11.047       14.708       13.560        9.040      216.313      183.866       81.719        0.161        0.024       51.059        5.643        0.012      336.610        8.028      870.394
04/29/2014  03:53:00      -54.088       -0.161      -12.666        8.567       10.110        7.595       73.388      102.213       57.683        0.166        0.012       54.088        4.751        0.008      336.591        7.996      870.403
04/29/2014  03:54:00      -66.516        3.178      -15.031        7.025       11.972        6.070       49.356      143.339       36.843        0.244        0.011       66.591        2.078        0.001      336.307        7.521      870.410
04/29/2014  03:55:00      -73.768        8.617      -13.924       14.970       10.650        8.091      224.103      113.429       65.467        0.306        0.020       74.270        4.340        0.003      336.361        7.612      870.418
04/29/2014  03:56:00      -52.017        2.303      -10.514       14.199       10.368        8.143      201.609      107.501       66.308        0.160        0.019       52.068        6.481        0.015      336.486        7.821      870.430
04/29/2014  03:57:00      -38.777        9.433      -11.433       22.033       12.782        9.563      485.438      163.376       91.450        0.123        0.037       39.908       10.498        0.069      336.931        8.563      870.443
04/29/2014  03:58:00      -65.498        8.328      -14.732        9.410        7.584        6.599       88.547       57.516       43.542        0.238        0.009       66.025        1.856        0.001      336.467        7.789      870.445
04/29/2014  03:59:00      -50.032       15.359      -11.307       18.434        9.056        7.521      339.825       82.008       56.566        0.167        0.024       52.336        5.662        0.012      336.714        8.202      870.450
04/29/2014  04:00:00      -48.887        7.730      -11.124       13.009       16.451        7.631      169.242      270.631       58.234        0.154        0.025       49.495        5.868        0.014      336.683        8.150      870.458
04/29/2014  04:01:00      -47.241        5.924      -12.187       17.428       15.037        8.585      303.743      226.101       73.695        0.151        0.030       47.611        7.547        0.025      336.502        7.845      870.469
04/29/2014  04:02:00      -63.700        5.572      -10.443       14.142       12.575       10.612      199.988      158.129      112.612        0.233        0.024       63.943        4.598        0.005      336.419        7.708      870.471
04/29/2014  04:03:00      -61.255       33.372      -15.694       13.408       17.779        8.241      179.779      316.080       67.912        0.284        0.028       69.756        7.938        0.013      336.843        8.417      870.481
04/29/2014  04:04:00      -76.811       19.502      -14.416       13.144       13.054        9.021      172.774      170.395       81.375        0.346        0.021       79.248        4.685        0.003      336.390        7.659      870.502
04/29/2014  04:05:00      -66.103       10.770      -14.288       21.774       13.056       10.779      474.111      170.460      116.178        0.273        0.038       66.974        5.417        0.007      336.339        7.574      870.527
04/29/2014  04:06:00      -10.528       31.411       -8.232       27.239       28.978       14.500      741.952      839.727      210.240        0.148        0.090       33.128       12.615        0.145      336.905        8.520      870.551
04/29/2014  04:07:00      -13.221       28.272       -0.732       26.437       25.698       10.799      698.894      660.385      116.622        0.122        0.074       31.211        3.739        0.014      336.877        8.473      870.572
04/29/2014  04:08:00      -26.622       32.713       -2.563       25.327       19.861       10.552      641.465      394.474      111.354        0.147        0.057       42.177        8.094        0.037      336.745        8.253      870.603
04/29/2014  04:09:00       -4.726       74.527       -7.154       22.615       24.186       13.570      511.452      584.980      184.137        0.345        0.064       74.677       11.905        0.025      337.313        9.202      870.602
04/29/2014  04:10:00       15.324       72.909       -9.303       15.030       19.843       11.950      225.887      393.734      142.801        0.320        0.038       74.502        9.699        0.017      337.357        9.278      870.598
04/29/2014  04:11:00       28.084      101.056      -10.425       22.804       19.803       14.191      520.012      392.151      201.389        0.611        0.056      104.886        8.698        0.007      337.340        9.249      870.601
04/29/2014  04:12:00       30.446      114.577      -16.327       22.080       22.222       13.892      487.526      493.808      192.994        0.775        0.059      118.553       11.607        0.010      337.314        9.205      870.619
04/29/2014  04:13:00       24.386      125.859      -18.819       19.827       14.213       10.127      393.106      202.021      102.558        0.874        0.035      128.200        6.889        0.003      337.336        9.241      870.629
04/29/2014  04:14:00       27.463      104.022      -11.115       26.914       29.992       20.875      724.360      899.509      435.761        0.688        0.103      107.586       15.694        0.021      337.323        9.218      870.629
04/29/2014  04:15:00       30.152      143.351      -23.590       23.272       22.591       16.328      541.573      510.356      266.608        1.167        0.066      146.488       12.582        0.007      337.287        9.159      870.635
04/29/2014  04:16:00        5.720      150.062      -25.736       14.808       21.176        9.483      219.278      448.436       89.930        1.199        0.038      150.171        6.639        0.002      337.242        9.084      870.639
04/29/2014  04:17:00        8.525      154.020      -25.153       17.325       19.901        8.003      300.167      396.037       64.046        1.259        0.038      154.256        6.748        0.002      337.204        9.020      870.637
04/29/2014  04:18:00       -1.769      169.212      -20.933       15.413       22.935       12.054      237.571      526.000      145.290        1.499        0.045      169.222        9.131        0.003      337.199        9.012      870.639
04/29/2014  04:19:00       13.838      152.999      -22.254       28.926       29.872       15.272      836.723      892.315      233.225        1.303        0.098      153.624       14.924        0.009      337.103        8.850      870.646
04/29/2014  04:20:00       47.786      118.032       -7.052       36.467       57.722       35.851     1329.857     3331.802     1285.321        1.110        0.297      127.338       35.523        0.078      337.078        8.809      870.648
04/29/2014  04:21:00       18.722      141.352      -22.003       28.776       39.892       19.263      828.074     1591.382      371.069        1.180        0.140      142.587       18.269        0.016      337.129        8.895      870.651
04/29/2014  04:22:00       24.162      147.599      -28.772       30.903       48.613       18.898      955.025     2363.222      357.128        1.344        0.184      149.564       22.823        0.023      337.300        9.181      870.657
04/29/2014  04:23:00      -25.398      115.211      -21.242       24.373       30.070       13.194      594.052      904.201      174.075        0.802        0.084      117.977       12.854        0.012      337.107        8.858      870.648
04/29/2014  04:24:00      -44.740       55.287       -9.958       22.301       66.788       21.374      497.353     4460.621      456.867        0.529        0.271       71.122       30.993        0.190      336.858        8.442      870.645
04/29/2014  04:25:00      -67.929      -11.599      -10.862       11.419       15.159       11.203      130.393      229.803      125.499        0.268        0.024       68.912        7.905        0.013      336.184        7.316      870.655
04/29/2014  04:26:00      -80.473      -20.881      -20.298       13.823       12.302        9.349      191.085      151.340       87.404        0.388        0.021       83.138        1.533        0.000      336.002        7.012      870.658
04/29/2014  04:27:00      -97.434      -20.463      -15.142       18.873       15.213       15.128      356.195      231.450      228.850        0.548        0.041       99.560       11.066        0.012      335.984        6.983      870.674
04/29/2014  04:28:00      -79.892      -11.671      -21.166       22.073       27.989       12.001      487.218      783.390      144.030        0.419        0.071       80.740        8.580        0.011      335.923        6.880      870.676
04/29/2014  04:29:00      -92.568       -0.150      -20.055       26.538       25.806       12.083      704.292      665.956      146.008        0.524        0.076       92.568       12.241        0.017      335.950        6.925      870.670
04/29/2014  04:30:00      -77.677       -7.752       -8.655       19.378       14.766       13.125      375.523      218.021      172.256        0.347        0.038       78.063        8.695        0.012      336.004        7.014      870.667
04/29/2014  04:31:00      -10.198      -28.778       -4.303       20.182       20.446       12.691      407.294      418.038      161.059        0.097        0.049       30.532       11.303        0.137      336.000        7.009      870.677
04/29/2014  04:32:00      -26.609      -12.994       -7.819       23.149       15.943       12.133      535.893      254.194      147.218        0.094        0.047       29.612       12.487        0.178      336.148        7.255      870.681
04/29/2014  04:33:00      -56.677      -16.447       -8.391       22.005       28.831       16.778      484.216      831.219      281.510        0.257        0.080       59.015       13.434        0.052      336.244        7.415      870.687
04/29/2014  04:34:00      -53.036       42.756      -15.708       21.776       50.054       17.523      474.215     2505.354      307.072        0.409        0.164       68.124       22.182        0.106      336.581        7.979      870.683
04/29/2014  04:35:00      -58.514       55.344      -10.563       28.109       53.087       15.460      790.141     2818.218      239.014        0.522        0.192       80.541       22.495        0.078      336.675        8.135      870.680
04/29/2014  04:36:00      -55.884       69.297      -13.502       30.265       28.553       18.578      915.958      815.259      345.158        0.509        0.104       89.023       12.657        0.020      336.738        8.241      870.675
04/29/2014  04:37:00      -30.846       49.754       -4.503       25.394       38.647       22.234      644.880     1493.567      494.357        0.304        0.132       58.539       16.525        0.080      336.673        8.133      870.672
04/29/2014  04:38:00      -34.516       83.050      -10.594       28.188       42.726       23.208      794.560     1825.544      538.617        0.568        0.158       89.937       21.055        0.055      336.847        8.423      870.677
04/29/2014  04:39:00      -16.005       99.437       -8.234       29.178       34.117       19.079      851.376     1164.004      363.991        0.630        0.119      100.717       19.755        0.038      336.911        8.531      870.683
04/29/2014  04:40:00      -17.902      116.783      -13.374       34.978       36.308       15.185     1223.442     1318.240      230.580        0.845        0.139      118.147       16.163        0.019      337.008        8.692      870.678
04/29/2014  04:41:00      -15.261      111.585      -10.378       26.303       24.108       12.649      691.858      581.186      159.991        0.711        0.072      112.623       11.804        0.011      336.901        8.515      870.673
04/29/2014  04:42:00       -2.822      148.320      -20.313       23.187       31.148       14.841      537.637      970.223      220.269        1.207        0.086      148.347       14.648        0.010      336.955        8.603      870.681
04/29/2014  04:43:00        2.631      137.978      -17.081       16.663       22.954        9.638      277.652      526.886       92.881        1.012        0.045      138.003        9.101        0.004      336.966        8.622      870.679
04/29/2014  04:44:00        0.306      148.476      -19.410       23.501       20.856        9.572      552.280      434.975       91.617        1.175        0.054      148.476        5.280        0.001      336.988        8.656      870.680
04/29/2014  04:45:00       -3.513      155.361      -21.777       24.141       23.924       12.507      582.797      572.374      156.433        1.297        0.066      155.401        6.849        0.002      336.964        8.618      870.686
04/29/2014  04:46:00       -7.093      143.192      -21.240       13.229       25.079       11.375      175.018      628.969      129.396        1.097        0.047      143.368       11.136        0.006      336.947        8.590      870.696
04/29/2014  04:47:00      -27.095      117.509      -21.649       29.132       29.699       17.630      848.670      882.054      310.800        0.853        0.102      120.592       15.226        0.016      336.984        8.652      870.714
04/29/2014  04:48:00      -26.299      102.171      -18.032       23.014       41.188       16.486      529.661     1696.425      271.775        0.698        0.125      105.501       16.789        0.025      337.078        8.810      870.742
04/29/2014  04:49:00      -28.746       59.108       -7.002       22.013       32.769       16.230      484.571     1073.821      263.424        0.310        0.091       65.728       14.917        0.052      336.890        8.496      870.772
04/29/2014  04:50:00      -26.189       77.642      -11.244       24.530       29.141       17.422      601.740      849.217      303.519        0.430        0.088       81.940       16.459        0.040      336.926        8.555      870.803
04/29/2014  04:51:00      -23.089      121.478      -18.462       21.686       23.241       15.262      470.263      540.129      232.919        0.844        0.062      123.653        9.358        0.006      337.092        8.832      870.826
04/29/2014  04:52:00      -13.192      113.531      -16.055       31.689       37.032       17.872     1004.194     1371.366      319.396        0.801        0.135      114.295       15.401        0.018      337.044        8.751      870.842
04/29/2014  04:53:00      -39.973      100.141      -18.316       22.749       34.384       14.480      517.515     1182.266      209.675        0.694        0.095      107.824       16.697        0.024      336.954        8.602      870.848
04/29/2014  04:54:00      -14.207      101.890      -15.097       22.740       21.542       15.602      517.095      464.064      243.434        0.602        0.061      102.876       11.100        0.012      336.998        8.676      870.852
04/29/2014  04:55:00      -20.715       96.896      -11.312       15.578       25.510       13.271      242.665      650.765      176.112        0.551        0.053       99.086       11.668        0.014      336.958        8.606      870.864
04/29/2014  04:56:00      -17.392      115.625      -18.808       19.571       16.680       12.409      383.029      278.212      153.986        0.742        0.041      116.925       10.955        0.009      337.014        8.701      870.870
04/29/2014  04:57:00       -4.766      118.853      -17.924       15.647       15.245        9.955      244.841      232.416       99.094        0.752        0.029      118.948        8.417        0.005      336.973        8.632      870.869
04/29/2014  04:58:00        1.242      120.944      -18.072       22.481       17.582       11.355      505.385      309.135      128.934        0.795        0.047      120.950        8.646        0.005      337.046        8.755      870.865
04/29/2014  04:59:00        5.027      107.635      -19.120       16.178       19.535        7.879      261.727      381.613       62.085        0.634        0.035      107.752        8.072        0.006      337.074        8.802      870.864
04/29/2014  05:00:00      -15.167       71.601      -13.428       17.354       43.976       11.759      301.160     1933.847      138.280        0.395        0.119       73.190       16.544        0.051      336.930        8.562      870.868
04/29/2014  05:01:00       -9.146       16.010        1.351       15.275       26.245       14.856      233.324      688.814      220.711        0.074        0.057       18.438       15.920        0.745      336.693        8.166      870.870
04/29/2014  05:02:00      -45.505       12.489       -8.462       16.417       18.025        9.504      269.506      324.892       90.317        0.149        0.034       47.187       10.318        0.048      336.434        7.733      870.876
04/29/2014  05:03:00      -33.273       -0.966       -7.610       18.468       18.846       13.589      341.058      355.173      184.654        0.102        0.044       33.287       11.171        0.113      336.466        7.787      870.883
04/29/2014  05:04:00      -34.313       -2.487        0.100       15.887        9.432        8.324      252.381       88.958       69.293        0.080        0.021       34.403        2.991        0.008      336.166        7.284      870.886
04/29/2014  05:05:00      -26.862       15.759       -0.569       27.565       32.964       16.608      759.823     1086.621      275.829        0.155        0.106       31.143       21.982        0.498      336.335        7.567      870.898
04/29/2014  05:06:00      -38.835       34.482       -6.287       19.085       25.391       13.592      364.246      644.685      184.751        0.196        0.060       51.934       10.737        0.043      336.545        7.919      870.902
04/29/2014  05:07:00      -58.338       38.707      -10.772       24.408       25.213       14.611      595.738      635.719      213.490        0.323        0.072       70.011       11.197        0.026      336.496        7.838      870.901
04/29/2014  05:08:00      -67.582      100.123      -17.044       26.792       27.407       21.559      717.803      751.136      464.797        0.841        0.097      120.797       16.702        0.019      336.624        8.050      870.904
04/29/2014  05:09:00      -75.448       94.783      -20.042       25.344       23.351       13.657      642.328      545.283      186.527        0.823        0.069      121.146       11.145        0.008      336.760        8.279      870.909
04/29/2014  05:10:00      -80.805       85.012      -22.309       18.845       25.937       14.476      355.133      672.708      209.561        0.775        0.062      117.288       13.862        0.014      336.852        8.432      870.922
04/29/2014  05:11:00      -21.583       39.836        3.235       34.330       28.853       16.392     1178.551      832.470      268.709        0.217        0.114       45.307       16.714        0.136      336.787        8.323      870.935
04/29/2014  05:12:00      -24.392       71.936       -4.810       22.845       25.025       12.692      521.893      626.251      161.076        0.355        0.065       75.959       10.521        0.019      336.931        8.563      870.938
04/29/2014  05:13:00      -34.122       76.963       -8.042       21.271       17.101       14.992      452.463      292.450      224.761        0.406        0.048       84.188        9.806        0.014      336.934        8.569      870.951
04/29/2014  05:14:00      -30.753       58.478       -4.517       19.554       18.764       12.526      382.364      352.091      156.903        0.264        0.045       66.071        8.029        0.015      336.929        8.560      870.960
04/29/2014  05:15:00      -32.610       46.940       -6.925       16.317       21.195       11.679      266.245      449.245      136.406        0.208        0.043       57.156        6.361        0.012      336.753        8.267      870.966
04/29/2014  05:16:00      -46.588       66.404       -9.859       23.305       47.999       20.994      543.113     2303.909      440.757        0.498        0.164       81.117       24.713        0.093      336.668        8.127      870.960
04/29/2014  05:17:00      -67.440      118.318      -17.430       28.053       37.685       21.084      786.952     1420.153      444.554        1.075        0.133      136.188       22.596        0.028      336.941        8.580      870.949
04/29/2014  05:18:00      -78.892       40.718      -14.186       33.144       44.301       17.190     1098.542     1962.588      295.506        0.572        0.168       88.780       17.851        0.040      336.610        8.028      870.935
04/29/2014  05:19:00      -56.811       10.144      -12.327       21.606       20.859        9.356      466.810      435.104       87.535        0.224        0.049       57.709        9.185        0.025      336.282        7.479      870.931
04/29/2014  05:20:00      -64.253       15.004      -13.770       17.542       21.411       11.712      307.724      458.414      137.171        0.272        0.045       65.981       12.382        0.035      336.458        7.774      870.923
04/29/2014  05:21:00      -65.482        6.768      -11.797       18.414       18.255       11.920      339.072      333.230      142.075        0.264        0.041       65.831        6.012        0.008      336.334        7.564      870.918
04/29/2014  05:22:00      -55.953        5.383      -11.069       27.524       15.541       15.516      757.587      241.509      240.754        0.226        0.062       56.211       14.330        0.065      336.218        7.373      870.922
04/29/2014  05:23:00      -33.011        3.123       -8.253       22.657       17.048       13.433      513.343      290.648      180.437        0.108        0.049       33.159        9.081        0.075      336.172        7.295      870.925
04/29/2014  05:24:00      -51.312        0.152      -10.495       24.535       22.093       13.865      601.959      488.085      192.244        0.201        0.064       51.312       15.786        0.095      336.115        7.200      870.940
04/29/2014  05:25:00      -60.637      -11.243       -8.893       19.629       17.236        9.740      385.281      297.067       94.865        0.233        0.039       61.671        7.900        0.016      336.135        7.233      870.941
04/29/2014  05:26:00      -54.100      -22.495      -11.300       24.440       17.852        7.568      597.322      318.695       57.270        0.227        0.049       58.590       10.195        0.030      336.121        7.208      870.948
04/29/2014  05:27:00      -20.153      -22.839        5.676       20.934       16.521       10.619      438.223      272.939      112.768        0.089        0.041       30.459       11.352        0.139      336.011        7.026      870.953
04/29/2014  05:28:00      -47.184      -40.853       -7.638       22.195       20.558       13.180      492.602      422.641      173.718        0.252        0.054       62.413       11.666        0.035      336.029        7.056      870.958
04/29/2014  05:29:00      -61.323      -39.805       -6.683       14.812       12.135        8.994      219.397      147.263       80.899        0.292        0.022       73.109        6.830        0.009      335.940        6.908      870.965
04/29/2014  05:30:00      -57.286      -37.845       -7.038       13.823       13.541        5.958      191.073      183.347       35.501        0.259        0.020       68.658        5.089        0.005      335.977        6.968      870.970
04/29/2014  05:31:00      -78.724      -40.471       -3.078       14.663       13.447        9.591      214.993      180.829       91.979        0.417        0.024       88.517        4.342        0.002      335.933        6.897      870.972
04/29/2014  05:32:00      -69.302      -47.007       -4.797       20.748       15.043       12.342      430.499      226.290      152.324        0.392        0.040       83.740        8.766        0.011      335.907        6.853      870.978
04/29/2014  05:33:00      -72.827      -41.894       -8.756       20.818       10.818        9.966      433.405      117.037       99.317        0.389        0.032       84.017        8.850        0.011      335.688        6.489      870.994
04/29/2014  05:34:00      -76.754      -36.831      -12.740       11.454       10.449        7.129      131.196      109.177       50.818        0.385        0.015       85.134        4.625        0.003      335.766        6.619      871.006
04/29/2014  05:35:00      -76.479      -44.272       -7.532       15.436       11.452        8.255      238.263      131.156       68.153        0.415        0.022       88.368        6.228        0.005      335.744        6.582      871.014
04/29/2014  05:36:00      -87.467      -45.002       -2.891       19.799       13.379       11.384      392.002      178.989      129.589        0.519        0.035       98.366        7.971        0.007      335.672        6.462      871.026
04/29/2014  05:37:00      -76.044      -44.601      -10.333       22.648       16.322       11.788      512.924      266.410      138.952        0.440        0.046       88.159        9.268        0.011      335.586        6.318      871.033
04/29/2014  05:38:00     -101.940      -43.535       -9.913       13.667       12.745        9.755      186.792      162.423       95.163        0.641        0.022      110.847        5.375        0.002      335.528        6.222      871.032
04/29/2014  05:39:00      -99.039      -40.676      -12.794       15.463       14.843       16.353      239.115      220.324      267.426        0.618        0.036      107.066        8.663        0.007      335.480        6.141      871.037
04/29/2014  05:40:00      -97.509      -46.303      -15.015        9.189       13.161        9.814       84.429      173.215       96.306        0.612        0.018      107.944        2.438        0.001      335.447        6.088      871.043
04/29/2014  05:41:00     -106.235      -40.783      -16.590       16.985       18.028       16.329      288.480      325.024      266.649        0.705        0.044      113.795       11.827        0.011      335.385        5.982      871.043
04/29/2014  05:42:00      -87.197      -44.049      -14.167       12.346       11.817        9.464      152.414      139.644       89.567        0.506        0.019       97.692        3.299        0.001      335.371        5.958      871.051
04/29/2014  05:43:00      -86.165      -51.056      -12.100       14.224       14.535       13.152      202.324      211.280      172.977        0.538        0.029      100.156        9.869        0.010      335.373        5.963      871.065
04/29/2014  05:44:00     -101.662      -44.756      -16.606       13.555       12.003       10.407      183.726      144.063      108.304        0.652        0.022      111.078        7.522        0.005      335.373        5.963      871.074
04/29/2014  05:45:00     -103.794      -50.605      -22.367       13.860       13.155       10.761      192.104      173.057      115.802        0.716        0.024      115.473        5.011        0.002      335.371        5.960      871.091
04/29/2014  05:46:00     -108.729      -41.809       -9.932       23.114       20.623       17.221      534.266      425.305      296.566        0.746        0.063      116.490       15.163        0.017      335.269        5.791      871.103
04/29/2014  05:47:00     -113.916      -47.773      -14.876       16.318       14.061       10.560      266.293      197.716      111.515        0.803        0.029      123.528        6.386        0.003      335.240        5.741      871.119
04/29/2014  05:48:00      -84.374      -60.114       -7.360       28.760       20.007       20.902      827.122      400.287      436.892        0.623        0.083      103.599       17.793        0.029      335.230        5.725      871.127
04/29/2014  05:49:00     -124.641      -38.176      -16.981       31.962       22.444       13.292     1021.569      503.725      176.672        0.949        0.085      130.356       11.655        0.008      335.199        5.675      871.128
04/29/2014  05:50:00      -65.926      -52.543       -5.635       24.422       18.409       13.011      596.439      338.908      169.287        0.412        0.055       84.303        6.287        0.006      335.195        5.668      871.135
04/29/2014  05:51:00      -70.753      -43.725       -8.337       24.446       21.792       11.621      597.609      474.905      135.058        0.410        0.060       83.174        7.360        0.008      335.139        5.574      871.143
04/29/2014  05:52:00      -95.366      -34.645      -10.953       28.942       27.379       20.198      837.666      749.599      407.949        0.620        0.100      101.464       15.569        0.024      335.196        5.667      871.142
04/29/2014  05:53:00      -83.660      -28.185      -14.123       44.182       31.840       16.797     1952.020     1013.761      282.154        0.562        0.162       88.280        9.566        0.012      335.243        5.747      871.142
04/29/2014  05:54:00      -41.290       -8.379       -7.230       25.285       36.762       19.808      639.340     1351.413      392.361        0.210        0.119       42.132       12.209        0.084      335.307        5.853      871.139
04/29/2014  05:55:00      -64.395      -13.671       -8.597       31.911       33.404       22.626     1018.329     1115.852      511.938        0.353        0.132       65.830       13.284        0.041      335.327        5.887      871.146
04/29/2014  05:56:00      -81.999       -7.880       -4.523       44.252       27.627       18.698     1958.206      763.224      349.605        0.494        0.154       82.377       18.918        0.053      335.271        5.793      871.149
04/29/2014  05:57:00      -95.545      -29.264      -18.406       23.273       37.215       19.031      541.621     1384.954      362.171        0.631        0.114       99.926        8.606        0.007      335.319        5.873      871.148
04/29/2014  05:58:00      -96.548      -44.701       -8.537       37.961       27.328       20.957     1441.021      746.793      439.212        0.701        0.131      106.394        8.016        0.006      335.269        5.789      871.144
04/29/2014  05:59:00     -108.234      -35.517       -4.864       43.370       27.192       19.300     1880.926      739.403      372.475        0.800        0.150      113.912       14.792        0.017      335.202        5.678      871.150
04/29/2014  06:00:00     -106.921      -46.172       -0.693       25.066       26.428       16.209      628.317      698.419      262.724        0.758        0.079      116.465       14.477        0.015      335.170        5.626      871.155
04/29/2014  06:01:00      -96.728      -19.727      -12.626       30.972       26.420       14.858      959.275      698.021      220.763        0.589        0.094       98.720       12.587        0.016      335.181        5.644      871.148
04/29/2014  06:02:00      -86.553      -10.054      -19.246       23.995       18.754       15.234      575.746      351.712      232.074        0.456        0.058       87.135       14.569        0.028      335.187        5.654      871.142
04/29/2014  06:03:00      -77.582       -2.041      -16.396       27.179       21.924       17.216      738.713      480.661      296.375        0.390        0.076       77.608       14.875        0.037      335.377        5.970      871.126
04/29/2014  06:04:00      -77.587       -0.035      -15.454       24.821       21.451       15.655      616.086      460.131      245.077        0.379        0.066       77.587       12.896        0.028      335.380        5.974      871.115
04/29/2014  06:05:00      -73.393        3.363      -21.505       21.829       14.296        9.466      476.508      204.380       89.610        0.332        0.039       73.470        6.169        0.007      335.531        6.226      871.106
04/29/2014  06:06:00      -91.309       -2.896      -16.429       15.641       12.235       10.874      244.634      149.699      118.249        0.456        0.026       91.355        6.868        0.006      335.353        5.929      871.121
04/29/2014  06:07:00      -62.096      -12.041       -7.980       12.871       16.207       12.026      165.664      262.659      144.618        0.232        0.029       63.252        9.368        0.022      335.397        6.002      871.133
04/29/2014  06:08:00      -61.122      -14.446       -6.659       25.790       10.455       14.860      665.133      109.297      220.813        0.249        0.050       62.806       16.970        0.073      335.355        5.934      871.142
04/29/2014  06:09:00      -71.326      -15.016       -6.548       20.104       21.713       17.535      404.158      471.458      307.483        0.327        0.059       72.889       14.866        0.042      335.388        5.988      871.156
04/29/2014  06:10:00      -71.758      -23.454       -8.959       20.202       25.737       14.246      408.130      662.409      202.944        0.353        0.064       75.493       11.020        0.021      335.362        5.944      871.171
04/29/2014  06:11:00      -87.916       -5.451      -18.304       14.391       16.907       11.067      207.092      285.842      122.473        0.435        0.031       88.085        5.954        0.005      335.517        6.204      871.184
04/29/2014  06:12:00      -87.741       -3.850      -18.712       20.587       17.661       13.175      423.827      311.896      173.592        0.449        0.045       87.825        9.447        0.012      335.423        6.045      871.205
04/29/2014  06:13:00      -80.865       -4.774      -13.598       18.996       15.217       12.875      360.866      231.545      165.776        0.375        0.038       81.006        9.343        0.013      335.463        6.113      871.223
04/29/2014  06:14:00      -87.412      -13.304      -17.001       15.282       11.909       10.261      233.554      141.827      105.279        0.429        0.024       88.419        5.679        0.004      335.552        6.261      871.233
04/29/2014  06:15:00      -62.420      -18.702      -16.839       11.850       12.770       11.981      140.421      163.061      143.534        0.249        0.022       65.161        8.798        0.018      335.616        6.369      871.259
04/29/2014  06:16:00      -59.086      -22.536       -4.544       12.012       11.681       11.382      144.300      136.453      129.549        0.221        0.021       63.238        7.300        0.013      335.580        6.309      871.290
04/29/2014  06:17:00      -61.506      -21.065       -7.526       11.516       22.456       11.270      132.613      504.291      127.019        0.252        0.038       65.014       10.300        0.025      335.611        6.360      871.301
04/29/2014  06:18:00      -75.262       -6.220      -13.619        9.061       15.357        9.966       82.099      235.839       99.316        0.315        0.021       75.519        8.002        0.011      335.696        6.501      871.307
04/29/2014  06:19:00      -63.273      -12.926       -7.673       16.637       13.907       15.628      276.788      193.405      244.226        0.247        0.036       64.580       11.271        0.030      335.638        6.405      871.305
04/29/2014  06:20:00      -65.767      -21.307       -3.227       19.742       15.960       13.007      389.762      254.719      169.193        0.280        0.041       69.132       11.082        0.026      335.585        6.317      871.315
04/29/2014  06:21:00      -42.367      -28.716       -2.562       15.630       14.424       13.363      244.298      208.053      178.570        0.163        0.032       51.181       11.857        0.054      335.512        6.195      871.327
04/29/2014  06:22:00      -37.485      -15.652       -6.679       10.019        9.493        7.646      100.378       90.125       58.460        0.097        0.012       40.622        6.328        0.024      335.654        6.431      871.335
04/29/2014  06:23:00      -52.940      -15.620       -4.954       20.999       13.012       12.732      440.951      169.307      162.113        0.192        0.039       55.196       10.486        0.036      335.753        6.597      871.343
04/29/2014  06:24:00      -44.260      -39.495      -11.356       10.669       13.534        8.328      113.836      183.168       69.347        0.201        0.018       59.320        2.512        0.002      335.579        6.308      871.361
04/29/2014  06:25:00      -52.803      -39.954       -8.471       24.630       12.950       13.353      606.631      167.691      178.294        0.270        0.048       66.216        9.973        0.023      335.410        6.025      871.377
04/29/2014  06:26:00     -108.415      -53.931      -14.593       24.299       12.323       14.095      590.425      151.857      198.657        0.791        0.047      121.088        9.853        0.007      335.354        5.930      871.391
04/29/2014  06:27:00     -114.125      -61.816      -11.776       21.303       17.576       14.233      453.831      308.902      202.589        0.897        0.048      129.791        6.663        0.003      335.284        5.814      871.392
04/29/2014  06:28:00      -99.548      -50.599       -7.555       14.937       12.868        8.894      223.115      165.598       79.099        0.650        0.023      111.669        3.443        0.001      335.318        5.871      871.408
04/29/2014  06:29:00     -114.211      -34.179       -9.549       18.830       19.714       11.775      354.558      388.655      138.653        0.759        0.044      119.215        7.932        0.004      335.334        5.899      871.423
04/29/2014  06:30:00      -97.023      -52.996       -2.331       42.937       23.439       15.415     1843.615      549.394      237.621        0.743        0.132      110.553       18.649        0.028      335.220        5.708      871.433
04/29/2014  06:31:00      -24.397      -42.823       -3.728       12.231       12.336        9.341      149.585      152.176       87.254        0.142        0.019       49.285        8.184        0.028      335.292        5.826      871.468
04/29/2014  06:32:00      -39.883      -42.898        4.990       32.793       36.829       18.462     1075.388     1356.375      340.849        0.311        0.139       58.574       21.883        0.140      335.362        5.945      871.491
04/29/2014  06:33:00      -66.048      -44.521       -4.208       37.253       23.219       16.995     1387.763      539.100      288.824        0.429        0.111       79.652       16.760        0.044      335.319        5.872      871.514
04/29/2014  06:34:00     -133.651      -62.437      -10.842       37.507       16.369       18.197     1406.789      267.936      331.120        1.194        0.100      147.516       19.050        0.017      335.209        5.691      871.523
04/29/2014  06:35:00      -94.860      -32.903      -13.267       18.142       17.623       11.305      329.137      310.563      127.803        0.551        0.038      100.404        9.495        0.009      335.225        5.715      871.543
04/29/2014  06:36:00      -91.755      -24.454      -13.509       11.841       12.682       10.910      140.215      160.838      119.024        0.481        0.021       94.957        8.803        0.009      335.217        5.702      871.549
04/29/2014  06:37:00      -96.104      -32.755      -11.433       16.660       16.067       11.518      277.566      258.140      132.654        0.555        0.033      101.533        7.911        0.006      335.270        5.791      871.559
04/29/2014  06:38:00      -86.934      -48.807      -11.532       18.512       15.611       12.341      342.677      243.714      152.299        0.541        0.037       99.698        3.656        0.001      335.310        5.859      871.559
04/29/2014  06:39:00      -71.007      -40.226       -5.745       22.664       17.181       10.854      513.679      295.203      117.804        0.381        0.046       81.609       10.507        0.017      335.281        5.809      871.570
04/29/2014  06:40:00      -97.189      -24.842      -12.107        8.796       10.508        6.462       77.374      110.416       41.754        0.522        0.011      100.314        2.578        0.001      335.357        5.937      871.584
04/29/2014  06:41:00      -80.149      -17.859       -7.025       19.377       13.443       12.130      375.462      180.724      147.142        0.375        0.035       82.115        8.105        0.010      335.418        6.038      871.579
04/29/2014  06:42:00      -94.276      -35.983      -14.328       11.494       12.673        8.888      132.117      160.592       78.992        0.538        0.019      100.909        7.355        0.005      335.426        6.051      871.593
04/29/2014  06:43:00      -98.283      -21.006      -19.714       12.416        7.468        8.522      154.169       55.778       72.625        0.539        0.014      100.503        7.053        0.005      335.380        5.975      871.628
04/29/2014  06:44:00     -122.584      -22.814      -19.634       14.410       11.032       12.904      207.642      121.709      166.523        0.821        0.025      124.689        5.175        0.002      335.403        6.012      871.649
04/29/2014  06:45:00      -89.576      -29.388       -5.059       28.801       15.504       11.662      829.507      240.365      135.992        0.506        0.060       94.274       13.831        0.022      335.424        6.047      871.676
04/29/2014  06:46:00      -78.854      -21.920       -9.844       17.251       16.328        9.963      297.599      266.608       99.269        0.373        0.033       81.844        7.760        0.009      335.415        6.033      871.722
04/29/2014  06:47:00      -92.224      -37.929      -14.434       14.889       12.393        9.418      221.679      153.581       88.700        0.531        0.023       99.719        8.638        0.008      335.473        6.129      871.734
04/29/2014  06:48:00      -48.687      -27.054       -2.811       17.526       11.968        7.290      307.155      143.226       53.145        0.181        0.025       55.698        6.532        0.014      335.549        6.256      871.744
04/29/2014  06:49:00      -61.323      -14.882       -5.525       15.777       13.728        6.404      248.912      188.454       41.005        0.225        0.024       63.103        4.821        0.006      335.673        6.464      871.764
04/29/2014  06:50:00      -53.524      -11.928        0.610       18.952       12.525        9.018      359.166      156.864       81.323        0.180        0.030       54.837        7.960        0.021      335.760        6.609      871.784
04/29/2014  06:51:00      -60.795       -5.905       -7.225       21.132       14.670        8.623      446.546      215.205       74.360        0.226        0.037       61.081       10.365        0.029      335.978        6.972      871.789
04/29/2014  06:52:00      -73.847        8.263       -9.833       34.713       19.272        8.430     1204.988      371.392       71.065        0.363        0.082       74.308       13.818        0.035      335.902        6.846      871.812
04/29/2014  06:53:00      -33.455       44.149       -5.255       41.120       25.438       19.966     1690.888      647.098      398.645        0.292        0.137       55.393       16.248        0.086      336.343        7.582      871.824
04/29/2014  06:54:00       35.423       58.610        1.953       33.777       46.714       21.187     1140.881     2182.173      448.871        0.423        0.189       68.483       24.180        0.125      336.724        8.220      871.850
04/29/2014  06:55:00        9.223       87.095       -7.754       33.061       43.452       17.596     1093.041     1888.056      309.612        0.551        0.165       87.582       17.787        0.041      336.760        8.278      871.871
04/29/2014  06:56:00       -6.773      109.004       -3.714       21.166       29.817       14.569      447.979      889.043      212.250        0.675        0.077      109.214        8.867        0.007      336.775        8.304      871.886
04/29/2014  06:57:00        6.190      115.944      -16.912       26.059       29.275       13.941      679.070      857.042      194.342        0.775        0.087      116.109       13.079        0.013      336.737        8.242      871.901
04/29/2014  06:58:00       12.343      107.656       -7.285       22.485       18.990       16.034      505.565      360.639      257.104        0.646        0.056      108.361       12.065        0.012      336.883        8.484      871.907
04/29/2014  06:59:00       19.678       95.801      -12.431       18.412       33.512       16.675      338.984     1123.040      278.066        0.573        0.087       97.801       14.978        0.023      336.872        8.466      871.923
04/29/2014  07:00:00       49.864       71.499        4.238       33.413       39.819       29.055     1116.422     1585.545      844.218        0.558        0.177       87.169       28.719        0.109      336.874        8.469      871.925
04/29/2014  07:01:00       34.961       34.025        0.641       24.305       31.716       20.290      590.727     1005.922      411.673        0.219        0.100       48.785       20.487        0.176      336.913        8.532      871.934
04/29/2014  07:02:00       52.461       59.315        5.060       45.702       34.873       24.806     2088.676     1216.132      615.358        0.511        0.196       79.186       22.452        0.080      336.914        8.535      871.946
04/29/2014  07:03:00       39.014       69.863      -14.020       34.501       38.152       21.875     1190.353     1455.573      478.521        0.486        0.156       80.018        7.788        0.009      337.017        8.707      871.961
04/29/2014  07:04:00       58.031       49.160       -3.414       32.019       25.880       23.890     1025.245      669.767      570.733        0.403        0.113       76.055       18.080        0.057      337.045        8.753      871.981
04/29/2014  07:05:00       49.103       49.179        2.446       33.076       34.088       22.670     1094.034     1162.000      513.923        0.380        0.138       69.496       20.157        0.084      337.135        8.906      871.998
04/29/2014  07:06:00       35.172       43.252       21.943       40.205       46.590       34.268     1616.434     2170.589     1174.308        0.427        0.248       55.748       29.371        0.278      337.244        9.086      872.008
04/29/2014  07:07:00       92.515       77.296       10.135       52.902       43.047       33.230     2798.593     1853.007     1104.202        1.019        0.288      120.556       28.461        0.056      337.154        8.937      872.033
04/29/2014  07:08:00      113.363       74.641       12.189       46.251       31.153       25.852     2139.189      970.535      668.338        1.117        0.189      135.730       19.619        0.021      337.176        8.976      872.032
04/29/2014  07:09:00      122.705       63.536       11.222       37.297       32.650       22.226     1391.042     1066.001      494.006        1.108        0.148      138.178       17.997        0.017      337.211        9.031      872.045
04/29/2014  07:10:00      109.709       72.488       15.360       61.000       35.150       29.925     3720.986     1235.500      895.502        1.169        0.293      131.494       18.776        0.020      337.270        9.130      872.050
04/29/2014  07:11:00       89.256       46.927       17.132       44.998       28.887       25.589     2024.836      834.461      654.794        0.699        0.176      100.840       19.801        0.039      337.344        9.254      872.057
04/29/2014  07:12:00       99.465       66.154        9.742       61.485       36.045       29.770     3780.403     1299.234      886.264        1.016        0.298      119.455       20.167        0.029      337.357        9.275      872.069
04/29/2014  07:13:00       90.409       66.484        3.311       49.038       33.461       31.634     2404.700     1119.611     1000.717        0.856        0.226      112.222       16.413        0.021      337.428        9.395      872.084
04/29/2014  07:14:00      134.066       71.516       -2.311       36.586       39.782       32.611     1338.565     1582.577     1063.449        1.354        0.199      151.949       27.484        0.033      337.370        9.298      872.093
04/29/2014  07:15:00      103.069       51.550       11.023       58.776       41.053       34.116     3454.570     1685.332     1163.896        0.985        0.315      115.242       20.116        0.030      337.558        9.612      872.106
04/29/2014  07:16:00      120.860       80.914        2.617       55.598       44.013       38.851     3091.187     1937.135     1509.381        1.385        0.327      145.445       13.091        0.008      337.545        9.592      872.117
04/29/2014  07:17:00      140.149       76.044       11.574       82.425       47.649       38.718     6793.802     2270.397     1499.078        1.806        0.528      159.450       18.589        0.014      337.502        9.517      872.140
04/29/2014  07:18:00       88.256       44.614       34.510       58.073       42.761       41.743     3372.519     1828.522     1742.485        0.896        0.347       98.892       21.420        0.047      337.614        9.707      872.148
04/29/2014  07:19:00      114.057       78.878       23.587       57.916       43.045       38.470     3354.245     1852.856     1479.960        1.324        0.334      138.674       30.606        0.049      337.568        9.629      872.161
04/29/2014  07:20:00      156.050       79.565        3.574       66.097       62.731       38.290     4368.868     3935.218     1466.100        2.023        0.489      175.164       33.637        0.037      337.589        9.664      872.181
04/29/2014  07:21:00      147.486      107.832       23.000       72.571       52.081       44.059     5266.618     2712.387     1941.221        2.191        0.496      182.701       31.576        0.030      337.569        9.630      872.197
04/29/2014  07:22:00      169.947      108.287        3.675       71.540       57.757       52.945     5117.949     3335.881     2803.180        2.594        0.563      201.515       34.291        0.029      337.582        9.650      872.211
04/29/2014  07:23:00      189.260      131.873       24.376       55.895       48.470       49.808     3124.231     2349.297     2480.823        3.088        0.398      230.673       31.742        0.019      337.546        9.590      872.220
04/29/2014  07:24:00      105.976       61.843       21.036       48.365       41.457       41.860     2339.162     1718.678     1752.267        1.065        0.291      122.701       21.715        0.031      337.660        9.784      872.222
04/29/2014  07:25:00      103.531       65.343       11.712       57.603       39.471       34.761     3318.053     1557.961     1208.297        1.060        0.304      122.427       20.646        0.028      337.715        9.875      872.226
04/29/2014  07:26:00      105.014       89.474        6.658       48.437       30.185       33.721     2346.167      911.138     1137.109        1.174        0.220      137.962       25.287        0.034      337.689        9.833      872.238
04/29/2014  07:27:00      124.749       58.974       15.078       72.151       52.637       34.171     5205.727     2770.701     1167.671        1.420        0.457      137.986       33.673        0.060      337.736        9.910      872.239
04/29/2014  07:28:00       83.546       44.410       31.430       69.630       65.746       52.640     4848.286     4322.494     2770.970        1.094        0.597       94.616       37.016        0.153      337.906       10.197      872.245
04/29/2014  07:29:00      131.107       79.723       12.397       57.646       43.189       37.525     3323.050     1865.251     1408.133        1.515        0.330      153.443       21.466        0.020      337.785        9.993      872.258
04/29/2014  07:30:00      123.687      100.162       36.203       68.279       59.386       46.793     4662.013     3526.678     2189.601        1.851        0.519      159.157       27.876        0.031      337.841       10.086      872.259
04/29/2014  07:31:00      148.110       82.137       31.443       68.456       49.400       42.478     4686.269     2440.331     1804.381        1.930        0.447      169.361       36.521        0.047      337.771        9.969      872.267
04/29/2014  07:32:00      153.249       80.503       22.139       52.388       63.234       42.940     2744.479     3998.523     1843.802        1.952        0.429      173.107       21.861        0.016      337.774        9.974      872.274
04/29/2014  07:33:00      147.941      101.827       16.501       60.209       48.389       47.513     3625.169     2341.520     2257.476        2.037        0.411      179.597       20.960        0.014      337.812       10.037      872.285
04/29/2014  07:34:00      122.036       48.495       17.411       57.976       40.525       42.278     3361.193     1642.243     1787.465        1.217        0.340      131.318       25.121        0.037      337.919       10.218      872.300
04/29/2014  07:35:00      110.794       68.535       23.666       60.050       50.542       42.602     3605.997     2554.474     1814.928        1.275        0.399      130.278       27.557        0.045      337.928       10.233      872.313
04/29/2014  07:36:00       96.810       63.799       33.159       73.624       44.966       48.140     5420.565     2021.956     2317.467        1.215        0.488      115.942       42.900        0.137      338.022       10.392      872.315
04/29/2014  07:37:00      115.850       64.785       11.301       53.257       58.907       38.566     2836.327     3469.987     1487.347        1.277        0.390      132.734       31.482        0.056      338.049       10.438      872.331
04/29/2014  07:38:00      119.456       55.429        8.817       70.454       45.938       32.454     4963.825     2110.341     1053.263        1.277        0.406      131.689       36.195        0.076      337.916       10.213      872.350
04/29/2014  07:39:00      131.909       54.192       20.625       59.855       44.438       38.255     3582.570     1974.750     1463.467        1.389        0.351      142.607       27.797        0.038      337.933       10.242      872.361
04/29/2014  07:40:00       82.165       81.462       63.125       64.268       42.961       39.200     4130.437     1845.681     1536.636        1.244        0.376      115.703       30.526        0.070      338.179       10.655      872.366
04/29/2014  07:41:00      104.804       89.426       42.452       80.950       45.715       41.918     6552.822     2089.824     1757.145        1.559        0.520      137.771       45.117        0.107      338.132       10.576      872.385
04/29/2014  07:42:00      130.090       69.484       23.372       63.220       54.013       43.525     3996.807     2917.443     1894.399        1.555        0.440      147.484       37.537        0.065      338.075       10.480      872.397
04/29/2014  07:43:00      153.630       74.453       35.556       54.522       45.322       41.104     2972.661     2054.109     1689.561        1.856        0.336      170.720       25.636        0.023      337.999       10.350      872.415
04/29/2014  07:44:00      133.633       68.208       20.760       72.683       50.873       51.906     5282.845     2588.014     2694.242        1.675        0.528      150.033       28.360        0.036      338.019       10.385      872.432
04/29/2014  07:45:00       74.364       72.281       53.125       57.323       41.243       43.110     3285.871     1701.007     1858.487        1.021        0.342      103.704       40.296        0.151      338.249       10.772      872.448
04/29/2014  07:46:00       94.117      113.500       88.107       84.167       57.028       55.508     7084.001     3252.155     3081.157        2.146        0.671      147.446       48.960        0.110      338.101       10.523      872.456
04/29/2014  07:47:00       87.146       90.306       75.898       80.090       58.139       53.144     6414.451     3380.181     2824.259        1.706        0.631      125.497       48.609        0.150      338.216       10.715      872.462
04/29/2014  07:48:00       93.554      106.792      104.491       91.396       68.223       48.929     8353.256     4654.437     2394.053        2.324        0.770      141.975       49.774        0.123      338.189       10.668      872.470
04/29/2014  07:49:00      157.595      101.862       41.290       64.176       47.559       49.006     4118.619     2261.859     2401.600        2.285        0.439      187.649       31.158        0.028      338.012       10.373      872.483
04/29/2014  07:50:00       67.634       50.953       82.831       53.908       51.317       41.308     2906.091     2633.404     1706.324        1.064        0.362       84.679       31.800        0.141      338.173       10.646      872.489
04/29/2014  07:51:00      105.026       92.126       74.243       62.391       64.076       48.350     3892.677     4105.695     2337.761        1.768        0.517      139.706       44.066        0.099      338.119       10.555      872.501
04/29/2014  07:52:00       22.342       16.900       74.458       46.239       86.562       36.450     2138.005     7493.034     1328.590        0.864        0.548       28.014       35.752        1.629      338.394       11.015      872.502
04/29/2014  07:53:00       71.516       48.824       27.745       59.393       34.491       37.292     3527.568     1189.622     1390.673        0.719        0.305       86.593       36.984        0.182      338.361       10.960      872.526
04/29/2014  07:54:00       45.596       51.686       29.012       57.039       36.631       35.844     3253.454     1341.839     1284.784        0.573        0.294       68.924       35.094        0.259      338.360       10.957      872.538
04/29/2014  07:55:00       65.030       84.862       51.860       62.592       37.594       42.485     3917.717     1413.341     1804.968        1.063        0.357      106.914       43.984        0.169      338.436       11.087      872.541
04/29/2014  07:56:00      104.668       79.208       19.896       45.710       42.296       35.347     2089.435     1788.935     1249.422        1.138        0.256      131.261       15.822        0.015      338.313       10.880      872.568
04/29/2014  07:57:00      110.971      100.260       69.109       66.200       44.593       53.095     4382.459     1988.508     2819.126        1.816        0.460      149.555       41.412        0.077      338.296       10.852      872.578
04/29/2014  07:58:00       85.269       74.841       56.897       66.459       36.079       43.498     4416.753     1301.689     1892.110        1.186        0.381      113.455       42.664        0.141      338.350       10.941      872.589
04/29/2014  07:59:00       46.312       73.562       74.260       60.595       49.101       37.542     3671.756     2410.885     1409.370        1.028        0.375       86.926       34.256        0.155      338.509       11.209      872.596
04/29/2014  08:00:00       89.340        4.931       52.422       98.982       89.547       56.660     9797.525     8018.662     3210.352        1.589        1.051       89.476       68.129        0.580      338.456       11.119      872.600
04/29/2014  08:01:00       53.856       72.973      108.821       82.265       91.461       62.484     6767.449     8365.202     3904.254        1.955        0.952       90.695       59.658        0.433      338.398       11.020      872.600
04/29/2014  08:02:00       44.302        2.407       65.585       52.318      101.064       60.459     2737.189    10213.862     3655.267        1.143        0.830       44.367       74.210        2.798      338.398       11.022      872.601
04/29/2014  08:03:00       38.111      -15.654       44.044       49.982       86.236       48.720     2498.183     7436.601     2373.596        0.797        0.615       41.201       53.740        1.701      338.397       11.020      872.602
04/29/2014  08:04:00       49.795       19.432       80.703       62.270       87.741       56.347     3877.615     7698.401     3174.938        1.206        0.738       53.452       65.928        1.521      338.526       11.236      872.596
04/29/2014  08:05:00      100.584     -132.028       -5.678       62.227       76.697       45.144     3872.185     5882.485     2037.992        1.968        0.590      165.978       40.691        0.060      338.492       11.178      872.585
04/29/2014  08:06:00       42.410       65.195      109.700       68.101      115.839       72.892     4637.808    13418.746     5313.242        2.072        1.168       77.775       83.318        1.148      338.451       11.110      872.584
04/29/2014  08:07:00       38.657       75.850      107.573       66.751       82.025       50.502     4455.670     6728.102     2550.419        1.627        0.687       85.133       53.849        0.400      338.384       10.998      872.584
04/29/2014  08:08:00      107.012       45.910       64.959       65.973       47.373       51.409     4352.485     2244.233     2642.875        1.351        0.462      116.445       41.178        0.125      338.446       11.103      872.595
04/29/2014  08:09:00      107.145       56.381       67.551       56.617       57.172       46.023     3205.500     3268.581     2118.132        1.391        0.430      121.074       32.731        0.073      338.322       10.895      872.585
04/29/2014  08:10:00      110.449       -8.428       61.978       96.011      123.832       82.916     9218.115    15334.487     6875.043        2.376        1.571      110.770       79.836        0.519      338.455       11.116      872.585
04/29/2014  08:11:00      120.141       86.777       70.610      123.971       98.550       66.008    15368.753     9712.130     4357.043        2.819        1.472      148.203       59.928        0.164      338.375       10.982      872.566
04/29/2014  08:12:00      124.984       80.258       56.083       77.190       70.848       69.215     5958.363     5019.481     4790.768        2.048        0.788      148.534       54.293        0.134      338.366       10.967      872.574
04/29/2014  08:13:00      149.301       67.638       61.957       88.127       76.458       56.028     7766.298     5845.873     3139.090        2.372        0.838      163.908       49.387        0.091      338.345       10.931      872.564
04/29/2014  08:14:00      150.645       88.774       53.112       92.970       42.453       50.770     8643.419     1802.277     2577.561        2.321        0.651      174.856       53.758        0.095      338.240       10.755      872.573
04/29/2014  08:15:00       84.682       62.176       47.994       53.146       40.630       39.018     2824.502     1650.812     1522.388        0.967        0.300      105.056       26.306        0.063      338.373       10.980      872.571
04/29/2014  08:16:00       62.267      -21.633       58.676       77.761       88.689       67.923     6046.801     7865.802     4613.552        1.315        0.926       65.918       63.161        0.918      338.590       11.345      872.566
04/29/2014  08:17:00      129.125      -25.734       54.886      108.545       89.779       59.411    11782.004     8060.326     3529.685        2.186        1.169      131.664       60.978        0.214      338.400       11.023      872.563
04/29/2014  08:18:00      100.399       60.796      105.971      100.227       78.689       61.207    10045.360     6191.977     3746.330        2.249        0.999      117.372       67.438        0.330      338.380       10.992      872.580
04/29/2014  08:19:00       66.014       27.987       69.116       65.658       51.736       41.052     4310.964     2676.570     1685.282        0.929        0.434       71.702       32.272        0.203      338.518       11.224      872.588
04/29/2014  08:20:00       49.853      -18.022       65.525       56.551      105.584       56.957     3198.063    11148.010     3244.045        1.234        0.880       53.010       63.435        1.432      338.646       11.439      872.595
04/29/2014  08:21:00       66.507       10.444       51.194       72.967       92.543       71.956     5324.155     8564.188     5177.611        1.311        0.953       67.322       71.215        1.119      338.677       11.490      872.589
04/29/2014  08:22:00       57.148       -5.261       61.475       67.364      102.757       59.662     4537.880    10558.945     3559.508        1.286        0.933       57.389       63.199        1.213      338.644       11.435      872.595
04/29/2014  08:23:00       34.051       52.754       78.922       49.003       56.018       47.772     2401.317     3138.003     2282.187        0.899        0.391       62.789       45.103        0.516      338.599       11.359      872.608
04/29/2014  08:24:00       35.935      -32.487       20.790       49.904       68.499       45.859     2490.390     4692.179     2103.092        0.603        0.464       48.443       33.752        0.485      338.802       11.699      872.614
04/29/2014  08:25:00      143.187       45.145       44.581       85.629       58.419       60.241     7332.388     3412.812     3628.964        1.945        0.719      150.135       45.289        0.091      338.575       11.318      872.631
04/29/2014  08:26:00      121.230       83.383       63.079       58.602       53.538       43.736     3434.180     2866.348     1912.826        1.692        0.411      147.138       37.433        0.065      338.333       10.913      872.631
04/29/2014  08:27:00      127.496       90.466       51.821       83.332       53.330       48.486     6944.226     2844.092     2350.924        1.963        0.607      156.331       33.683        0.046      338.451       11.109      872.629
04/29/2014  08:28:00      183.313       94.312       22.468       50.786       48.479       40.222     2579.268     2350.245     1617.770        2.477        0.327      206.151       25.634        0.015      338.325       10.898      872.622
04/29/2014  08:29:00      115.899       99.377       85.359       61.655       69.759       55.344     3801.396     4866.308     3062.941        2.116        0.587      152.671       52.427        0.118      338.646       11.438      872.619
04/29/2014  08:30:00      150.217      108.368       76.994       76.475       58.501       74.856     5848.455     3422.352     5603.452        2.755        0.744      185.226       55.726        0.091      338.582       11.328      872.606
04/29/2014  08:31:00       75.147       47.289       52.864       59.311       58.158       46.306     3517.747     3382.322     2144.247        0.986        0.452       88.788       40.536        0.208      338.731       11.582      872.617
04/29/2014  08:32:00       15.706      -13.322       57.311       37.985       62.772       37.079     1442.857     3940.268     1374.822        0.523        0.338       20.595       41.096        3.982      339.284       12.513      872.615
04/29/2014  08:33:00       47.494      -61.228       14.341       53.157       41.953       37.261     2825.715     1760.029     1388.352        0.609        0.299       77.490       23.895        0.095      338.848       11.779      872.626
04/29/2014  08:34:00       25.405        0.161       39.483       42.117       47.710       41.533     1773.807     2276.281     1725.013        0.399        0.289       25.406       36.514        2.066      339.132       12.257      872.622
04/29/2014  08:35:00       26.436      -10.856       23.886       42.253       52.920       27.245     1785.349     2800.517      742.304        0.336        0.266       28.578       26.730        0.875      339.144       12.276      872.621
04/29/2014  08:36:00       19.385       40.395       72.437       46.842       64.002       40.404     2194.172     4096.275     1632.457        0.759        0.396       44.806       41.416        0.854      339.047       12.114      872.618
04/29/2014  08:37:00       46.190       85.053       87.050       71.412       49.528       35.521     5099.660     2452.986     1261.762        1.288        0.441       96.786       34.953        0.130      338.989       12.015      872.612
04/29/2014  08:38:00      145.327       76.295       50.314       83.999       73.386       57.082     7055.860     5385.449     3258.349        2.258        0.785      164.136       41.169        0.063      338.728       11.575      872.599
04/29/2014  08:39:00      103.490      -74.774       30.438       71.099       90.509       51.037     5055.049     8191.834     2604.730        1.654        0.793      127.676       57.473        0.203      338.919       11.896      872.600
04/29/2014  08:40:00      132.386     -105.989      -16.215       76.292       83.452       58.494     5820.450     6964.203     3421.604        2.261        0.810      169.587       49.412        0.085      338.994       12.024      872.600
04/29/2014  08:41:00       74.098      -31.637       42.801       73.047       76.589       60.913     5335.849     5865.949     3710.412        1.161        0.746       80.570       60.680        0.567      339.094       12.191      872.610
04/29/2014  08:42:00       71.227       80.479       74.978       67.084       52.617       53.319     4500.307     2768.512     2842.918        1.364        0.506      107.472       53.503        0.248      338.689       11.511      872.624
04/29/2014  08:43:00       67.115      128.191      121.244       71.777       80.734       58.425     5151.937     6517.945     3413.497        2.536        0.754      144.697       53.133        0.135      338.700       11.528      872.617
04/29/2014  08:44:00      137.252       27.507       76.662       86.065      105.153       60.642     7407.164    11057.166     3677.513        2.380        1.107      139.981       58.482        0.175      338.817       11.724      872.642
04/29/2014  08:45:00       74.447        7.990       75.521       84.200      113.399       55.634     7089.600    12859.400     3095.170        1.717        1.152       74.874       71.980        0.924      338.977       11.995      872.668
04/29/2014  08:46:00       51.722       48.242       75.571       67.023       50.355       39.254     4492.062     2535.626     1540.887        0.964        0.428       70.728       29.372        0.172      339.071       12.154      872.671
04/29/2014  08:47:00      101.144       76.704       72.606       75.269       71.551       57.605     5665.490     5119.569     3318.381        1.774        0.705      126.939       56.531        0.198      338.690       11.513      872.658
04/29/2014  08:48:00       21.382       90.718      104.288       49.771       60.093       40.728     2477.172     3611.191     1658.743        1.365        0.387       93.204       44.341        0.226      338.888       11.845      872.644
04/29/2014  08:49:00       12.277       36.651       40.543       54.893       41.453       45.517     3013.254     1718.389     2071.764        0.497        0.340       38.653       22.572        0.341      339.141       12.271      872.635
04/29/2014  08:50:00       87.506       67.432        4.121       47.178       32.693       26.961     2225.722     1068.848      726.901        0.812        0.201      110.474       15.794        0.020      338.850       11.782      872.634
04/29/2014  08:51:00      166.272      122.562       29.563       87.535       61.869       37.186     7662.319     3827.725     1382.770        2.820        0.644      206.562       22.409        0.012      338.785       11.670      872.622
04/29/2014  08:52:00      199.837      114.909       29.695       76.384       78.523       63.860     5834.481     6165.889     4078.083        3.505        0.804      230.519       17.036        0.005      338.832       11.749      872.599
04/29/2014  08:53:00       64.310       71.955       94.161       53.034       56.304       44.158     2812.626     3170.151     1949.962        1.305        0.397       96.505       20.494        0.045      339.241       12.440      872.597
04/29/2014  08:54:00      101.637       60.919       68.507       73.143       67.174       59.478     5349.920     4512.363     3537.595        1.606        0.670      118.495       48.952        0.171      338.965       11.975      872.590
04/29/2014  08:55:00       75.746       50.759       23.463       73.256       53.650       41.862     5366.446     2878.375     1752.459        0.943        0.500       91.180       33.589        0.136      339.043       12.107      872.595
04/29/2014  08:56:00       -4.375       -2.091       32.232       22.550       35.535       14.601      508.499     1262.770      213.200        0.152        0.099        4.849       10.773        4.936      339.643       13.118      872.583
04/29/2014  08:57:00       53.261       71.354      116.704       72.697      106.761       71.496     5284.890    11397.847     5111.640        2.167        1.090       89.040       78.800        0.783      339.391       12.692      872.595
04/29/2014  08:58:00       75.101       87.173      110.755       69.239       71.591       54.921     4793.973     5125.223     3016.335        1.922        0.647      115.062       53.729        0.218      339.215       12.395      872.600
04/29/2014  08:59:00      130.668       48.179       52.753       89.322       60.919       48.620     7978.416     3711.096     2363.915        1.811        0.703      139.267       43.324        0.097      339.178       12.332      872.604
04/29/2014  09:00:00      149.289       69.789       28.086      120.102       70.710       66.372    14424.432     4999.863     4405.185        2.588        1.191      164.796       53.645        0.106      339.292       12.525      872.603
04/29/2014  09:01:00      277.911      154.147       20.289       99.857       92.002       72.899     9971.393     8464.423     5314.315        6.257        1.188      317.799       53.794        0.029      339.099       12.197      872.599
04/29/2014  09:02:00      234.688      114.312       52.748      115.308       85.489       60.028    13295.972     7308.446     3603.306        4.756        1.210      261.047       50.949        0.038      339.153       12.289      872.619
04/29/2014  09:03:00      188.615      106.414       23.009       91.854       85.677       61.402     8437.074     7340.475     3770.148        3.348        0.977      216.563       27.530        0.016      339.252       12.455      872.629
04/29/2014  09:04:00      137.149       50.385       24.359      103.847       87.813       58.237    10784.253     7711.075     3391.553        2.191        1.094      146.111       28.293        0.037      339.563       12.981      872.650
04/29/2014  09:05:00       -3.489      -45.708       14.319       42.661       50.592       30.989     1819.937     2559.564      960.303        0.382        0.267       45.841       26.958        0.346      339.903       13.556      872.651
04/29/2014  09:06:00       88.196       42.741       12.768       69.662       60.325       47.488     4852.746     3639.160     2255.146        1.026        0.537       98.007       34.653        0.125      339.706       13.222      872.645
04/29/2014  09:07:00      126.043      161.568      154.621      122.228      100.083       84.293    14939.796    10016.541     7105.266        4.897        1.603      204.917       75.379        0.135      339.289       12.517      872.632
04/29/2014  09:08:00      126.312       53.790       87.048       75.648       62.791       62.401     5722.556     3942.760     3893.832        1.999        0.678      137.288       56.437        0.169      339.161       12.305      872.633
04/29/2014  09:09:00       32.924        9.692       33.431       58.979       52.057       36.787     3478.561     2709.929     1353.303        0.492        0.377       34.321       40.200        1.372      339.841       13.452      872.603
04/29/2014  09:10:00      151.709     -107.601       19.529       80.789       77.803       51.784     6526.897     6053.300     2681.532        2.512        0.763      185.994       49.783        0.072      339.380       12.671      872.578
04/29/2014  09:11:00       61.629       53.705       38.134       79.863       56.528       53.761     6378.028     3195.424     2890.297        1.030        0.623       81.745       45.606        0.311      339.828       13.429      872.561
04/29/2014  09:12:00       81.708       92.064       73.720       65.530       67.079       73.341     4294.139     4499.639     5378.837        1.738        0.709      123.094       50.599        0.169      339.682       13.182      872.548
04/29/2014  09:13:00      144.852       89.621       22.213       75.853       40.703       49.011     5753.673     1656.727     2402.090        1.966        0.491      170.335       38.857        0.052      339.055       12.124      872.547
04/29/2014  09:14:00       73.456       70.603       31.924       54.566       30.289       36.799     2977.428      917.451     1354.166        0.832        0.262      101.885       30.200        0.088      339.516       12.902      872.548
04/29/2014  09:15:00        0.074       41.737       38.016       32.196       31.052       29.677     1036.586      964.214      880.732        0.303        0.144       41.737       21.906        0.275      340.146       13.966      872.536
04/29/2014  09:16:00       77.867      104.840       74.458       83.395       66.501       70.869     6954.720     4422.425     5022.465        1.950        0.820      130.593       59.260        0.206      339.876       13.510      872.534
04/29/2014  09:17:00      215.564      122.644       70.906      131.226       87.574       70.830    17220.263     7669.215     5016.911        4.822        1.495      248.011       72.254        0.085      339.519       12.905      872.526
04/29/2014  09:18:00      147.361       73.096       76.373       92.334      110.051       85.544     8525.607    12111.122     7317.814        3.042        1.398      164.494       39.730        0.058      339.839       13.445      872.522
04/29/2014  09:19:00      256.286      109.633       54.952      130.841      114.654       73.056    17119.272    13145.631     5337.211        5.815        1.780      278.751       57.621        0.043      339.411       12.722      872.550
04/29/2014  09:20:00      137.951       85.735       15.298       75.526       58.950       45.059     5704.186     3475.059     2030.274        1.891        0.560      162.422       24.466        0.023      339.576       13.003      872.565
04/29/2014  09:21:00       78.290       20.877        6.875       72.020       62.633       46.596     5186.850     3922.861     2171.154        0.894        0.564       81.026       20.364        0.063      339.669       13.161      872.564
04/29/2014  09:22:00       81.850        1.136       24.770       93.571       82.237       52.803     8755.449     6762.996     2788.178        1.281        0.915       81.858       35.597        0.189      340.055       13.810      872.543
04/29/2014  09:23:00       70.598       61.694       18.111       57.396       42.734       45.870     3294.336     1826.213     2104.013        0.817        0.361       93.756       23.535        0.063      339.904       13.557      872.542
04/29/2014  09:24:00       52.089       24.743       13.101       39.547       36.513       33.751     1563.964     1333.217     1139.135        0.377        0.202       57.667       21.861        0.144      339.933       13.606      872.536
04/29/2014  09:25:00      110.964       48.395       73.241       74.590       54.775       47.167     5563.639     3000.344     2224.706        1.540        0.539      121.059       37.408        0.095      339.746       13.290      872.515
04/29/2014  09:26:00      101.546      -23.608       56.677       94.928       91.390       71.579     9011.396     8352.213     5123.529        1.828        1.124      104.254       65.738        0.398      340.056       13.812      872.491
04/29/2014  09:27:00       70.245       51.135       66.701       66.545       45.157       55.614     4428.196     2039.145     3092.872        1.078        0.478       86.886       29.615        0.116      340.130       13.939      872.469
04/29/2014  09:28:00       72.796       58.680      104.024       95.363      104.982       74.556     9094.161    11021.147     5558.590        2.261        1.284       93.501       71.261        0.581      340.160       13.989      872.463
04/29/2014  09:29:00       40.133      102.173      142.354       82.796       99.004       58.896     6855.112     9801.882     3468.694        2.622        1.006      109.772       67.511        0.378      340.312       14.244      872.466
04/29/2014  09:30:00      102.031       18.605       56.629       93.564      103.390       62.693     8754.298    10689.516     3930.463        1.866        1.169      103.713       48.119        0.215      340.141       13.957      872.478
04/29/2014  09:31:00      163.590       92.876       66.985      112.851      104.882       74.698    12735.321    11000.199     5579.789        3.459        1.466      188.116       54.751        0.085      339.616       13.069      872.475
04/29/2014  09:32:00       34.486       16.195       34.111       56.293       36.906       26.465     3168.871     1362.073      700.390        0.392        0.262       38.099       25.927        0.463      340.209       14.072      872.472
04/29/2014  09:33:00       24.516       40.932       58.332       42.445       40.642       29.318     1801.600     1651.769      859.532        0.500        0.216       47.713       20.330        0.182      340.518       14.595      872.462
04/29/2014  09:34:00       25.492       65.698       63.362       58.700       41.798       40.651     3445.713     1747.037     1652.544        0.791        0.342       70.470       29.931        0.180      340.160       13.988      872.447
04/29/2014  09:35:00       72.420       21.891       84.971       88.092      136.889       86.473     7760.224    18738.537     7477.576        2.345        1.699       75.656       97.849        1.673      340.076       13.846      872.458
04/29/2014  09:36:00      175.926      -13.402       59.720       97.430      112.562       72.595     9492.515    12670.159     5269.978        3.106        1.372      176.436       63.182        0.128      339.919       13.581      872.452
04/29/2014  09:37:00      124.172       96.403       71.507       88.285       64.895       66.575     7794.221     4211.356     4432.233        2.313        0.822      157.201       50.287        0.102      340.024       13.758      872.438
04/29/2014  09:38:00       73.213        4.523       69.802       72.570      102.583       63.834     5266.445    10523.177     4074.743        1.505        0.993       73.352       67.021        0.835      340.370       14.342      872.413
04/29/2014  09:39:00      156.289       15.954       83.584      103.153       90.208       66.599    10640.533     8137.421     4435.423        2.744        1.161      157.101       66.185        0.177      339.929       13.597      872.425
04/29/2014  09:40:00      174.600       49.510       49.462       98.079       72.311       67.146     9619.481     5228.897     4508.642        2.737        0.968      181.484       31.138        0.029      339.914       13.572      872.433
04/29/2014  09:41:00      190.341      102.912       70.258      141.517      118.161       95.582    20026.964    13961.904     9136.011        4.743        2.156      216.381       44.300        0.042      340.154       13.976      872.411
04/29/2014  09:42:00      119.935       59.554       69.338      100.598      113.303       88.208    10119.973    12837.526     7780.677        2.673        1.537      133.907       72.128        0.290      340.149       13.970      872.434
04/29/2014  09:43:00      210.885      -94.201       54.323      142.014      116.988       86.136    20167.903    13686.142     7419.436        4.878        2.064      230.968       79.528        0.119      340.113       13.908      872.430
04/29/2014  09:44:00      156.671       83.217      108.225      148.041      123.733       84.405    21916.093    15309.937     7124.195        4.376        2.218      177.400       85.952        0.235      340.013       13.739      872.453
04/29/2014  09:45:00      127.010       31.250       17.988      124.910      112.346       66.969    15602.608    12621.662     4484.784        2.506        1.635      130.798       72.169        0.304      339.941       13.619      872.464
04/29/2014  09:46:00      119.885      -98.770       -1.005       82.698      122.505       58.023     6838.928    15007.526     3366.670        2.467        1.261      155.331       66.703        0.184      339.929       13.599      872.456
04/29/2014  09:47:00      117.917      -25.786       41.994       81.595       98.660       59.880     6657.795     9733.715     3585.649        1.815        0.999      120.704       57.128        0.224      340.270       14.172      872.463
04/29/2014  09:48:00       51.230      -79.637       35.669       83.780      146.424       86.680     7019.104    21439.991     7513.361        2.310        1.799       94.692       86.376        0.832      340.315       14.250      872.464
04/29/2014  09:49:00      139.727      -88.404       49.368      112.662      150.098       96.778    12692.643    22529.550     9365.890        3.717        2.229      165.345      112.361        0.462      340.257       14.151      872.456
04/29/2014  09:50:00      107.223      -22.583       62.208       98.536      137.413       81.156     9709.294    18882.423     6586.223        2.552        1.759      109.575       91.695        0.700      340.124       13.926      872.475
04/29/2014  09:51:00      114.892      135.488      146.117       94.161       91.550       73.459     8866.376     8381.426     5396.242        3.777        1.132      177.644       69.495        0.153      339.930       13.597      872.489
04/29/2014  09:52:00       95.282       91.279       66.336       66.058       55.464       60.265     4363.677     3076.230     3631.917        1.644        0.554      131.949       43.685        0.110      339.974       13.674      872.471
04/29/2014  09:53:00       62.838      -21.787       35.293       70.971       98.970       55.063     5036.850     9795.092     3031.907        1.176        0.893       66.508       45.152        0.461      340.134       13.943      872.464
04/29/2014  09:54:00      133.590       16.278       94.001      125.901      135.002       91.867    15851.073    18225.550     8439.499        3.472        2.126      134.578       88.299        0.430      340.268       14.168      872.441
04/29/2014  09:55:00      172.749      145.621       91.160       84.396       70.574       64.311     7122.747     4980.638     4135.944        3.780        0.812      225.937       39.075        0.030      339.915       13.573      872.461
04/29/2014  09:56:00      114.824       85.624       66.418       83.549       63.624       57.044     6980.417     4047.965     3254.047        1.960        0.714      143.234       50.482        0.124      339.988       13.698      872.451
04/29/2014  09:57:00      232.715      131.035       36.703       92.265       75.407       67.862     8512.910     5686.198     4605.245        4.574        0.940      267.070       43.673        0.027      339.954       13.638      872.438
04/29/2014  09:58:00       86.551      -25.146       22.304       74.040       90.461       49.909     5481.948     8183.136     2490.923        1.239        0.808       90.130       36.148        0.161      340.132       13.941      872.448
04/29/2014  09:59:00      138.209      -45.458       61.619       82.096      123.723       74.688     6739.830    15307.383     5578.301        2.629        1.381      145.493       80.848        0.309      340.407       14.404      872.440
04/29/2014  10:00:00       48.487      105.691      160.276       83.529      101.743       74.742     6977.027    10351.562     5586.370        3.106        1.146      116.282       66.560        0.328      340.444       14.467      872.426
04/29/2014  10:01:00        8.295      162.278      195.584       65.554      102.655       61.229     4297.318    10538.005     3748.952        4.162        0.929      162.490       53.692        0.109      340.298       14.219      872.446
04/29/2014  10:02:00       43.204       65.385      117.280       93.482      159.829       94.145     8738.810    25545.170     8863.294        3.151        2.157       78.370      111.031        2.007      340.052       13.805      872.450
04/29/2014  10:03:00       40.872     -179.504      -24.480       70.330       63.429       45.426     4946.269     4023.281     2063.553        2.276        0.552      184.098       33.192        0.033      340.422       14.431      872.450
04/29/2014  10:04:00       41.726       59.082      108.437       59.946       80.886       51.127     3593.582     6542.594     2613.928        1.487        0.638       72.331       55.204        0.582      340.551       14.649      872.486
04/29/2014  10:05:00      139.322       79.412       66.898       77.366       79.907       65.701     5985.437     6385.111     4316.585        2.344        0.834      160.364       45.603        0.081      340.240       14.122      872.497
04/29/2014  10:06:00      116.543       79.370       31.452       62.321       60.481       57.483     3883.928     3657.926     3304.351        1.586        0.542      141.003       38.586        0.075      340.561       14.666      872.503
04/29/2014  10:07:00      183.217      101.732       18.825       99.276       78.681       59.490     9855.649     6190.701     3539.051        3.192        0.979      209.566       42.049        0.040      340.341       14.291      872.500
04/29/2014  10:08:00      136.167       87.898       66.866      101.037       90.730       74.231    10208.500     8231.959     5510.231        2.734        1.198      162.073       67.405        0.173      340.458       14.490      872.497
04/29/2014  10:09:00      105.827       56.409       55.445       90.309       68.572       34.907     8155.723     4702.126     1218.530        1.576        0.704      119.922       32.673        0.074      340.060       13.819      872.494
04/29/2014  10:10:00       66.077       60.805       95.384       67.899      100.861       83.187     4610.232    10172.927     6920.076        1.943        1.085       89.796       82.116        0.836      340.424       14.434      872.478
04/29/2014  10:11:00       74.341       68.791       89.388       82.185       81.154       63.066     6754.369     6585.978     3977.383        1.778        0.866      101.285       58.212        0.330      340.550       14.647      872.446
04/29/2014  10:12:00      110.655      107.176      140.786      117.543      115.636       79.011    13816.356    13371.618     6242.710        3.848        1.672      154.050       79.108        0.264      340.360       14.323      872.440
04/29/2014  10:13:00      151.926       60.938       98.114      105.817       81.959       59.174    11197.174     6717.327     3501.588        2.891        1.071      163.692       58.485        0.128      340.383       14.364      872.454
04/29/2014  10:14:00      175.994       41.653       79.764      142.014       84.498       74.998    20168.082     7139.985     5624.773        3.600        1.647      180.856       65.843        0.133      340.533       14.618      872.432
04/29/2014  10:15:00       73.662       62.735       88.672      112.147       70.266       54.061    12576.932     4937.344     2922.621        1.883        1.022       96.756       63.000        0.424      340.952       15.326      872.429
04/29/2014  10:16:00       80.254      -11.737       90.582      111.265      141.573       98.754    12379.987    20042.850     9752.298        2.847        2.109       81.108       96.462        1.414      340.982       15.376      872.430
04/29/2014  10:17:00      140.118     -104.768       62.507      145.896      234.236      142.644    21285.725    54866.305    20347.336        6.549        4.825      174.955      178.921        1.046      340.655       14.823      872.412
04/29/2014  10:18:00      191.991     -217.990      -31.485       91.411      144.451       58.804     8355.928    20866.095     3457.852        5.902        1.634      290.482       66.789        0.053      340.303       14.227      872.437
04/29/2014  10:19:00       86.043       30.295       57.953       79.767      130.138       76.234     6362.744    16936.013     5811.685        2.039        1.456       91.221       82.849        0.825      340.574       14.689      872.431
04/29/2014  10:20:00       59.504      -29.441       34.327       88.095      129.679       77.708     7760.738    16816.711     6038.575        1.809        1.531       66.389       83.951        1.599      340.776       15.029      872.442
04/29/2014  10:21:00       60.293      -80.907       46.907       90.492      106.780       60.281     8188.777    11401.957     3633.818        1.780        1.161      100.902       76.562        0.576      340.924       15.279      872.449
04/29/2014  10:22:00      103.986       45.566       70.529       53.685      111.940       67.053     2882.073    12530.464     4496.107        1.888        0.995      113.531       71.528        0.397      340.485       14.536      872.450
04/29/2014  10:23:00      162.045      -76.414       56.128      110.172      180.446       77.735    12137.962    32560.871     6042.656        4.298        2.537      179.158      102.061        0.325      340.330       14.273      872.454
04/29/2014  10:24:00       83.010      -36.130       31.260       67.147       93.808       42.980     4508.678     8799.850     1847.267        1.216        0.758       90.532       59.139        0.427      340.442       14.465      872.447
04/29/2014  10:25:00       87.504       47.339       46.192       84.589       54.518       45.750     7155.337     2972.178     2093.091        1.212        0.611       99.489       39.719        0.159      340.835       15.130      872.412
04/29/2014  10:26:00      144.366      115.536      120.455      112.075       91.401       78.202    12560.848     8354.216     6115.625        3.786        1.352      184.906       64.289        0.121      340.474       14.517      872.375
04/29/2014  10:27:00      122.659      164.293      149.313      119.740      104.223       91.328    14337.552    10862.434     8340.747        4.893        1.677      205.030       85.084        0.172      340.578       14.691      872.381
04/29/2014  10:28:00      212.897      138.307      124.942      164.913      181.841      100.591    27196.248    33066.035    10118.634        7.521        3.519      253.878       87.179        0.118      340.832       15.121      872.365
04/29/2014  10:29:00      173.332      121.562       45.693      114.192      103.905       76.201    13039.779    10796.146     5806.658        3.827        1.482      211.711       47.975        0.051      341.044       15.482      872.376
04/29/2014  10:30:00       84.793       96.251       85.025       88.474       73.276       55.664     7827.571     5369.405     3098.530        1.999        0.815      128.274       29.915        0.054      341.275       15.873      872.388
04/29/2014  10:31:00      110.805       87.027       79.150      114.126       91.746       64.904    13024.713     8417.268     4212.505        2.588        1.283      140.895       59.114        0.176      341.133       15.633      872.396
04/29/2014  10:32:00      157.089       24.631      124.442      191.988      185.467      132.120    36859.497    34397.905    17455.611        6.472        4.436      159.008      142.817        0.807      341.040       15.474      872.396
04/29/2014  10:33:00      161.681       20.907       96.145      138.259      152.819       97.923    19115.467    23353.616     9588.984        4.393        2.603      163.028       85.808        0.277      340.879       15.201      872.406
04/29/2014  10:34:00      115.093      -21.871      103.328      115.254      204.340       96.176    13283.409    41754.637     9249.849        4.433        3.214      117.152      112.019        0.914      341.049       15.490      872.404
04/29/2014  10:35:00      134.625      -41.742      119.152      159.080      248.404      143.240    25306.573    61704.458    20517.687        7.077        5.376      140.948      177.914        1.593      341.034       15.464      872.398
04/29/2014  10:36:00      192.690     -141.920       19.938      176.936      191.139      120.561    31306.448    36533.944    14534.925        7.001        4.119      239.313      127.909        0.286      341.065       15.516      872.406
04/29/2014  10:37:00      182.285     -220.745       36.552      141.703      243.415      129.873    20079.627    59250.794    16866.943        8.973        4.810      286.280      162.137        0.321      340.888       15.215      872.404
04/29/2014  10:38:00      195.454     -248.967      -47.874      126.645      110.569       63.096    16039.020    12225.416     3981.107        6.736        1.612      316.523       77.136        0.059      340.624       14.770      872.443
04/29/2014  10:39:00      101.199     -104.052       33.292       94.950      121.589       63.914     9015.522    14783.983     4084.982        2.502        1.394      145.148       79.032        0.296      340.873       15.193      872.464
04/29/2014  10:40:00      170.452       72.037       36.609      130.398       83.011       53.512    17003.743     6890.774     2863.583        3.117        1.338      185.049       38.950        0.044      341.236       15.807      872.473
04/29/2014  10:41:00      277.268      182.440       82.616      125.713       93.254      102.004    15803.670     8696.230    10404.766        7.594        1.745      331.906       69.673        0.044      341.004       15.411      872.463
04/29/2014  10:42:00      198.763       98.704      126.118      177.344      127.832       93.308    31450.910    16341.030     8706.434        6.082        2.825      221.922       69.243        0.097      341.234       15.802      872.438
04/29/2014  10:43:00      210.313      -75.345       69.004      156.144      163.005       96.677    24381.102    26570.636     9346.447        5.747        3.015      223.402      110.247        0.244      341.081       15.543      872.452
04/29/2014  10:44:00      134.908      -57.047       42.041      115.476       95.741       83.678    13334.816     9166.394     7002.040        2.636        1.475      146.473       70.229        0.230      340.961       15.341      872.432
04/29/2014  10:45:00      121.834      147.171      160.159      149.874      107.576       99.595    22462.227    11572.661     9919.240        5.305        2.198      191.057       76.906        0.162      341.230       15.796      872.391
04/29/2014  10:46:00      255.160      172.031       59.456      123.943       99.918       87.569    15361.772     9983.515     7668.348        6.562        1.651      307.736       51.594        0.028      341.170       15.694      872.395
04/29/2014  10:47:00      210.508       77.267       38.754      144.307      121.356      102.395    20824.528    14727.287    10484.763        4.890        2.302      224.240       81.835        0.133      341.291       15.899      872.385
04/29/2014  10:48:00      100.821       77.919      120.960      111.485      124.770       82.507    12428.845    15567.509     6807.407        3.283        1.740      127.422       70.611        0.307      341.478       16.216      872.384
04/29/2014  10:49:00      162.994       95.358      105.753      153.855       96.688       98.827    23671.236     9348.573     9766.873        4.481        2.139      188.839       65.909        0.122      341.498       16.250      872.382
04/29/2014  10:50:00      241.120      157.542       35.855      150.394       99.806       80.609    22618.337     9961.195     6497.816        6.165        1.954      288.025       52.817        0.034      341.119       15.608      872.383
04/29/2014  10:51:00      162.861      160.936      108.429      179.560      149.665       89.680    32241.710    22399.729     8042.432        6.342        3.134      228.963       70.702        0.095      341.389       16.063      872.394
04/29/2014  10:52:00      198.439      144.120      117.410      147.678      146.913       96.304    21808.836    21583.567     9274.427        6.329        2.633      245.252       62.177        0.064      341.414       16.108      872.388
04/29/2014  10:53:00      169.608      173.539      130.705      160.744       98.815      101.797    25838.785     9764.459    10362.587        6.096        2.298      242.658       99.033        0.167      340.892       15.224      872.391
04/29/2014  10:54:00      132.137      163.938      162.743      142.876      115.182      101.092    20413.437    13266.959    10219.616        5.735        2.195      210.561       91.424        0.189      340.761       15.002      872.352
04/29/2014  10:55:00      239.693      155.206       55.549      168.235      100.180       79.315    28303.006    10036.126     6290.944        6.462        2.232      285.555       55.943        0.038      341.012       15.427      872.352
04/29/2014  10:56:00      194.799      151.545       70.817      126.148       95.640      100.740    15913.321     9146.935    10148.555        5.056        1.760      246.805       60.835        0.061      340.999       15.403      872.331
04/29/2014  10:57:00      464.283      259.618       56.116      147.231      141.465      107.954    21676.932    20012.268    11654.158       16.972        2.667      531.940       66.193        0.015      340.774       15.024      872.343
04/29/2014  10:58:00      244.941      133.781       79.221      194.311      122.197      116.433    37756.895    14932.170    13556.718        7.519        3.312      279.094      107.423        0.148      341.002       15.410      872.337
04/29/2014  10:59:00      285.817      197.329       47.231      132.258       99.842       92.024    17492.273     9968.468     8468.409        7.939        1.796      347.318       59.927        0.030      340.803       15.071      872.359
04/29/2014  11:00:00      324.733      213.171       39.509      160.271      145.466       91.277    25686.941    21160.314     8331.519       10.381        2.759      388.450       65.918        0.029      340.957       15.333      872.365
04/29/2014  11:01:00      171.168       93.416       98.267      148.121      109.092       81.782    21939.717    11901.065     6688.287        4.410        2.026      195.000       50.471        0.067      341.093       15.564      872.338
04/29/2014  11:02:00      219.911      127.886       88.939      185.688      131.033      102.428    34479.875    17169.523    10491.522        6.737        3.107      254.393       68.560        0.073      341.227       15.791      872.316
04/29/2014  11:03:00      247.943      123.039       66.499      200.624      147.545       88.583    40249.901    21769.659     7846.887        7.544        3.493      276.793       68.535        0.061      341.332       15.969      872.357
04/29/2014  11:04:00      224.145      161.372      165.700      156.967      138.487      108.214    24638.727    19178.539    11710.209        7.962        2.776      276.192       86.050        0.097      340.981       15.372      872.384
04/29/2014  11:05:00      156.136      136.190      137.385      136.727       96.573       84.483    18694.272     9326.251     7137.302        4.847        1.758      207.186       67.053        0.105      340.873       15.193      872.360
04/29/2014  11:06:00      168.090      150.076      164.991      144.395      111.855       79.320    20849.937    12511.457     6291.720        5.882        1.983      225.338       83.029        0.136      340.859       15.167      872.331
04/29/2014  11:07:00      281.093      211.087      115.416      181.771      126.188      104.986    33040.583    15923.392    11022.122        9.843        2.999      351.526       96.035        0.075      341.141       15.645      872.334
04/29/2014  11:08:00      158.694       12.403       74.641      168.451      123.271       92.985    28375.717    15195.782     8646.276        4.155        2.611      159.178       79.844        0.252      341.185       15.720      872.345
04/29/2014  11:09:00      118.741      119.678       67.964       92.087       77.736       82.986     8480.086     6042.889     6886.636        2.722        1.070      168.590       44.539        0.070      341.524       16.294      872.363
04/29/2014  11:10:00      104.380       54.050       34.801       87.411       54.127       40.789     7640.606     2929.718     1663.780        1.363        0.612      117.544       26.585        0.051      340.890       15.223      872.337
04/29/2014  11:11:00      226.002      133.959       82.911      124.267       92.279       86.179    15442.330     8515.451     7426.737        5.363        1.569      262.720       55.553        0.045      340.916       15.265      872.314
04/29/2014  11:12:00       65.974       -2.934       57.183       89.566       98.495       67.654     8022.119     9701.330     4577.003        1.496        1.115       66.039       47.293        0.513      341.217       15.775      872.309
04/29/2014  11:13:00      270.299      170.030       81.371      162.156      120.840       91.353    26294.575    14602.189     8345.328        7.891        2.462      319.330       38.182        0.014      341.295       15.905      872.306
04/29/2014  11:14:00      252.275      120.378       28.081      123.954      117.638       85.020    15364.522    13838.629     7228.396        5.767        1.822      279.524       35.148        0.016      341.521       16.289      872.329
04/29/2014  11:15:00      192.359       78.749       48.095      175.488      112.079      109.920    30796.131    12561.617    12082.499        5.047        2.772      207.854      101.079        0.236      341.174       15.701      872.332
04/29/2014  11:16:00      233.030       75.604       24.703      133.647      104.034       70.744    17861.557    10823.014     5004.650        4.715        1.684      244.988       56.505        0.053      340.921       15.273      872.340
04/29/2014  11:17:00      215.077      225.616      209.077      173.200      156.936      143.200    29998.297    24628.991    20506.347       10.799        3.757      311.706      120.566        0.150      340.907       15.247      872.315
04/29/2014  11:18:00      133.682      155.420      177.689      131.193      120.636       97.215    17211.664    14553.163     9450.725        5.740        2.061      205.004       97.208        0.225      340.801       15.068      872.319
04/29/2014  11:19:00      104.530      107.928      128.591       84.684       78.819       56.174     7171.377     6212.429     3155.571        2.782        0.827      150.250       52.172        0.121      340.796       15.062      872.317
04/29/2014  11:20:00      161.078       92.166       69.670      118.214       82.723       81.650    13974.651     6843.154     6666.746        3.338        1.374      185.582       58.064        0.098      341.042       15.477      872.275
04/29/2014  11:21:00       85.171      136.996      106.572      152.210      118.297      110.245    23167.809    13994.220    12154.068        4.334        2.466      161.314      102.748        0.406      341.488       16.233      872.228
04/29/2014  11:22:00      204.597      145.713       75.640      188.239      100.879       85.759    35433.876    10176.601     7354.685        6.088        2.648      251.182       74.333        0.088      341.548       16.334      872.208
04/29/2014  11:23:00      160.118      131.757      136.774      170.311      151.048       99.588    29005.737    22815.478     9917.810        6.171        3.087      207.359       90.009        0.188      341.467       16.196      872.177
04/29/2014  11:24:00      163.680       83.930       76.484      131.268      110.365      102.786    17231.347    12180.344    10565.042        3.982        1.999      183.944       68.120        0.137      341.395       16.077      872.153
04/29/2014  11:25:00      282.346      157.968       44.673      149.344      113.747       85.380    22303.710    12938.301     7289.781        7.459        2.127      323.532       50.644        0.025      341.346       15.992      872.164
04/29/2014  11:26:00      282.350      182.638      105.233      188.704      125.932      106.570    35609.037    15858.854    11357.145        9.348        3.141      336.271       80.926        0.058      341.518       16.284      872.171
04/29/2014  11:27:00      282.862      270.057      201.148      163.254      146.837      126.247    26651.855    21561.181    15938.285       12.876        3.208      391.078      114.978        0.086      341.123       15.615      872.173
04/29/2014  11:28:00      207.763      101.573       58.865      135.270      102.665       92.302    18297.889    10540.022     8519.610        4.715        1.868      231.263       70.106        0.092      341.511       16.273      872.179
04/29/2014  11:29:00      363.819      172.893       96.767      190.545      182.994      113.623    36307.447    33486.849    12910.267       12.715        4.135      402.810       95.414        0.056      341.310       15.931      872.156
04/29/2014  11:30:00      175.829      131.271      101.802      144.016      125.083       96.011    20740.579    15645.761     9218.106        5.205        2.280      219.427       72.500        0.109      341.693       16.579      872.151
04/29/2014  11:31:00      100.636       28.132       62.236      165.949      109.085       58.834    27539.071    11899.633     3461.450        2.884        2.145      104.495       41.995        0.162      341.696       16.587      872.184
04/29/2014  11:32:00      131.426      -90.829        7.112      122.217      149.910       80.938    14937.074    22473.123     6550.887        3.476        2.198      159.758      108.465        0.461      341.504       16.262      872.166
04/29/2014  11:33:00      120.389      -41.124       36.731       92.876       93.527       50.806     8625.863     8747.377     2581.298        1.874        0.998      127.219       44.552        0.123      341.588       16.403      872.149
04/29/2014  11:34:00       49.872      -52.408       26.383       60.365       90.721       55.252     3643.943     8230.267     3052.757        1.043        0.746       72.345       55.221        0.583      341.869       16.880      872.148
04/29/2014  11:35:00       35.051      -53.313       50.430       53.743      105.408       58.799     2888.308    11110.868     3457.371        1.203        0.873       63.803       68.201        1.143      342.094       17.263      872.139
04/29/2014  11:36:00      150.342     -168.589       31.619      198.368      279.587      104.246    39350.022    78169.096    10867.261        9.018        6.419      225.887      162.983        0.521      341.687       16.572      872.121
04/29/2014  11:37:00      155.938      -50.315       61.070      196.726      249.836      130.552    38701.223    62418.121    17043.773        7.435        5.908      163.854      179.779        1.204      341.356       16.010      872.092
04/29/2014  11:38:00      172.453     -246.746        1.834      144.503      166.546       98.166    20881.210    27737.691     9636.629        7.443        2.913      301.038      100.882        0.112      341.418       16.113      872.109
04/29/2014  11:39:00        6.706       28.639      123.132       71.299      124.908       75.572     5083.525    15601.925     5711.130        2.121        1.320       29.414       67.829        5.318      341.858       16.862      872.143
04/29/2014  11:40:00       79.052      -11.134       82.290      108.661      136.673       67.402    11807.292    18679.419     4543.097        2.408        1.751       79.833       73.613        0.850      341.515       16.280      872.134
04/29/2014  11:41:00      116.869     -228.739       12.105       98.372      188.158      101.332     9677.028    35403.278    10268.197        6.073        2.767      256.866      106.328        0.171      341.527       16.299      872.121
04/29/2014  11:42:00      138.575     -178.605        2.533      142.832      138.933       94.493    20401.057    19302.474     8928.840        4.986        2.432      226.059       87.812        0.151      341.457       16.180      872.131
04/29/2014  11:43:00      204.010     -142.525       42.999      137.024      184.729       93.805    18775.491    34124.797     8799.461        6.273        3.085      248.865      111.589        0.201      341.605       16.431      872.148
04/29/2014  11:44:00      121.639       61.426      109.873      163.012      117.191       86.927    26572.780    13733.706     7556.315        3.924        2.393      136.269       78.759        0.334      341.647       16.504      872.148
04/29/2014  11:45:00      288.827      133.833       80.458      179.060      118.068      114.932    32062.456    13940.027    13209.472        8.350        2.961      318.327       87.349        0.075      341.630       16.472      872.122
04/29/2014  11:46:00      283.359      128.324      109.707      181.707      133.534      102.623    33017.310    17831.338    10531.475        8.508        3.069      311.061       88.243        0.080      341.452       16.172      872.101
04/29/2014  11:47:00      119.486      101.199      130.267      107.364      107.010       83.827    11526.974    11451.069     7026.993        3.574        1.500      156.583       71.161        0.207      341.845       16.839      872.114
04/29/2014  11:48:00      196.034       76.996       90.269      138.762      175.942      116.039    19254.836    30955.450    13465.001        5.808        3.184      210.613      111.839        0.282      341.509       16.268      872.107
04/29/2014  11:49:00      195.530      100.383      139.713      166.089      176.647      118.066    27585.670    31204.119    13939.685        7.026        3.636      219.792      112.261        0.261      341.555       16.346      872.042
04/29/2014  11:50:00      175.971      187.794      178.087      149.910      147.754      112.418    22473.010    21831.313    12637.911        7.743        2.847      257.357      106.307        0.171      341.350       15.998      872.049
04/29/2014  11:51:00      295.724      188.599       97.898      183.069      146.939       95.251    33514.337    21591.063     9072.738        9.838        3.209      350.745       77.229        0.048      341.441       16.152      872.040
04/29/2014  11:52:00      148.929      134.075       97.286      136.826      102.149       92.824    18721.356    10434.373     8616.335        4.369        1.889      200.389       77.489        0.150      341.629       16.473      872.052
04/29/2014  11:53:00       79.790       91.051      132.307      117.338      112.133       85.365    13768.234    12573.896     7287.182        3.289        1.681      121.064       79.825        0.435      341.625       16.466      872.034
04/29/2014  11:54:00      189.867       57.988       10.312      186.714      156.095       80.517    34862.022    24365.796     6482.921        5.260        3.286      198.525       57.074        0.083      341.589       16.404      872.008
04/29/2014  11:55:00      172.782     -181.823       18.897      111.523      153.390       86.000    12437.431    23528.607     7395.966        5.331        2.168      250.825       84.422        0.113      341.728       16.639      872.014
04/29/2014  11:56:00      127.390       65.876       80.791      149.855      146.464      103.636    22456.451    21451.704    10740.347        4.086        2.732      143.415       80.421        0.314      341.989       17.083      872.024
04/29/2014  11:57:00      160.147      -15.845       95.259      139.740      186.259      124.953    19527.181    34692.535    15613.274        5.239        3.492      160.929      139.832        0.755      341.784       16.734      872.058
04/29/2014  11:58:00      168.432      -41.951       48.265      132.513      106.509       68.386    17559.718    11344.202     4676.659        3.301        1.679      173.577       70.648        0.166      341.510       16.273      872.059
04/29/2014  11:59:00      207.302      150.693      113.956      188.289      125.785       88.068    35452.792    15821.882     7756.042        6.884        2.952      256.286       59.632        0.054      341.708       16.607      872.022
04/29/2014  12:00:00      174.230     -267.676      -16.541      146.237      190.730       82.677    21385.308    36377.793     6835.553        8.343        3.230      319.384      108.228        0.115      341.485       16.228      872.058
04/29/2014  12:01:00      113.214     -145.619        2.076       93.763      110.122       73.064     8791.490    12126.949     5338.314        3.014        1.313      184.452       67.054        0.132      341.415       16.111      872.060
04/29/2014  12:02:00       83.926       94.698       99.167       87.643      129.945       83.995     7681.335    16885.737     7055.122        2.873        1.581      126.536       82.867        0.429      341.736       16.653      872.064
04/29/2014  12:03:00      353.070      234.245       66.612      163.432      134.234       83.581    26709.938    18018.642     6985.724       11.783        2.586      423.708       61.356        0.021      341.612       16.443      872.045
04/29/2014  12:04:00      297.698      203.268       70.561      152.812      105.033      106.241    23351.363    11032.028    11287.196        9.029        2.284      360.474       52.894        0.022      341.705       16.600      872.016
04/29/2014  12:05:00      213.925      114.593       99.957      150.794      130.288      107.138    22738.820    16975.085    11478.445        6.003        2.560      242.685       90.768        0.140      341.784       16.734      872.018
04/29/2014  12:06:00       99.726       13.799       92.251      144.428      194.797       97.915    20859.306    37945.752     9587.341        4.351        3.420      100.676      118.494        1.385      341.824       16.803      872.006
04/29/2014  12:07:00       86.093       28.952       54.270      119.727      104.423       82.093    14334.463    10904.194     6739.298        2.158        1.599       90.831       83.374        0.843      342.083       17.243      872.013
04/29/2014  12:08:00       81.673       74.025      106.134      104.938      116.736       79.893    11012.077    13627.188     6382.926        2.721        1.551      110.228       81.080        0.541      342.077       17.233      872.016
04/29/2014  12:09:00       47.710      -64.614       48.482       63.248      103.566       61.034     4000.251    10725.894     3725.140        1.362        0.923       80.320       56.358        0.492      341.970       17.054      871.971
04/29/2014  12:10:00       18.812      -37.973       63.952       86.268      122.747       74.119     7442.248    15066.773     5493.651        1.694        1.400       42.377       71.356        2.835      342.189       17.424      871.958
04/29/2014  12:11:00       87.810     -105.651       44.097      107.556      191.038      102.857    11568.331    36495.641    10579.554        3.972        2.932      137.378      126.703        0.851      342.183       17.411      871.946
04/29/2014  12:12:00        1.065       37.691       61.924       48.693       73.243       71.060     2370.961     5364.604     5049.583        0.902        0.639       37.706       56.061        2.211      342.479       17.918      871.949
04/29/2014  12:13:00      153.517      147.187      130.733      163.108      150.756      115.813    26604.312    22727.453    13412.610        6.252        3.137      212.677      101.658        0.228      342.020       17.136      871.958
04/29/2014  12:14:00       90.451       83.663      113.546      139.247      157.529       93.664    19389.637    24815.529     8772.860        4.052        2.649      123.211       84.798        0.474      341.707       16.605      871.938
04/29/2014  12:15:00       93.413      -31.995       67.544      121.982      155.955      108.392    14879.489    24321.991    11748.798        3.262        2.548       98.741      108.863        1.216      342.342       17.681      871.918
04/29/2014  12:16:00       76.666      126.408      133.644      106.903       97.561       85.561    11428.331     9518.155     7320.615        3.399        1.413      147.840       71.868        0.236      342.131       17.324      871.926
04/29/2014  12:17:00       64.956       38.264       88.446      105.547      140.169      113.465    11140.127    19647.408    12874.411        2.858        2.183       75.388      112.638        2.232      342.262       17.548      871.902
04/29/2014  12:18:00      272.824      120.946      127.777      180.482      144.352      137.623    32573.818    20837.369    18939.967        8.885        3.618      298.431      121.829        0.167      341.600       16.421      871.900
04/29/2014  12:19:00      168.083      102.215      168.303      153.614      145.602      106.340    23597.283    21199.817    11308.225        6.155        2.805      196.723      101.943        0.269      341.486       16.229      871.872
04/29/2014  12:20:00      193.808       66.391       73.694       98.025      142.679       72.289     9608.821    20357.435     5225.684        4.129        1.760      204.864       72.783        0.126      341.496       16.244      871.890
04/29/2014  12:21:00      249.080      171.321       93.710      145.388      104.791       82.636    21137.787    10981.086     6828.676        6.955        1.947      302.311       70.070        0.054      341.737       16.653      871.884
04/29/2014  12:22:00      207.826      146.549      112.110      143.324      151.147      154.849    20541.857    22845.463    23978.318        7.229        3.368      254.299      120.944        0.226      341.886       16.907      871.870
04/29/2014  12:23:00      227.279      -46.901       89.487      191.216      144.389      107.139    36563.695    20848.293    11478.860        6.536        3.445      232.068      104.994        0.205      341.920       16.964      871.845
04/29/2014  12:24:00       99.613      -29.679       66.301      140.976      168.151       88.246    19874.240    28274.724     7787.272        3.556        2.797      103.940      100.396        0.933      342.131       17.325      871.848
04/29/2014  12:25:00       61.994       58.789       61.035       56.879       68.296       44.898     3235.178     4664.304     2015.815        1.047        0.496       85.436       31.392        0.135      341.916       16.961      871.846
04/29/2014  12:26:00      102.634       53.333       94.493       90.328      180.483      121.139     8159.105    32573.987    14674.774        3.885        2.770      115.664      126.004        1.187      342.044       17.177      871.829
04/29/2014  12:27:00      274.413     -209.409       40.555      154.218      297.934      130.592    23783.329    88764.923    17054.269       12.518        6.480      345.188      160.326        0.216      341.689       16.572      871.783
04/29/2014  12:28:00      171.987      -83.392       52.929      157.412      185.563       84.140    24778.536    34433.513     7079.567        5.280        3.315      191.138      122.074        0.408      341.854       16.854      871.824
04/29/2014  12:29:00       92.495     -105.879        8.226       51.137       60.411       53.831     2614.972     3649.477     2897.812        1.450        0.458      140.590       43.806        0.097      341.430       16.136      871.814
04/29/2014  12:30:00      102.380      -96.159        9.434       52.804       74.394       38.498     2788.226     5534.464     1482.099        1.481        0.490      140.457       38.523        0.075      341.936       16.994      871.803
04/29/2014  12:31:00       63.240       -8.698       45.365       57.653       66.244       41.899     3323.899     4388.227     1755.513        0.780        0.473       63.835       38.272        0.359      342.124       17.314      871.784
04/29/2014  12:32:00       81.230       77.385       68.932      131.194       93.301       63.815    17211.983     8705.109     4072.382        2.366        1.499      112.190       53.623        0.228      342.550       18.037      871.785
04/29/2014  12:33:00      222.700      169.524      136.702      158.952      106.752      101.139    25265.890    11395.904    10229.133        7.195        2.345      279.882       79.104        0.080      342.069       17.217      871.770
04/29/2014  12:34:00      118.594      -80.658       47.453      155.194      156.327       74.440    24085.190    24438.121     5541.341        3.843        2.703      143.423       82.543        0.331      342.021       17.138      871.743
04/29/2014  12:35:00      119.052      -83.322       46.263       95.658      153.049       88.885     9150.506    23424.117     7900.586        3.186        2.024      145.313       62.241        0.183      342.538       18.015      871.706
04/29/2014  12:36:00      168.496       48.649      111.404      121.621      180.531       93.873    14791.689    32591.421     8812.098        4.967        2.810      175.378       77.766        0.197      342.253       17.531      871.710
04/29/2014  12:37:00      184.607      110.144       21.600       96.368       91.456       57.171     9286.743     8364.135     3268.510        3.379        1.046      214.968       21.279        0.010      342.531       18.003      871.723
04/29/2014  12:38:00      249.412      157.439       45.436      198.479      130.660       78.108    39393.762    17072.100     6100.926        7.580        3.128      294.946       40.945        0.019      342.435       17.842      871.734
04/29/2014  12:39:00       65.569      126.372      122.854      106.725      120.907       92.207    11390.160    14618.402     8502.065        3.493        1.726      142.370       83.118        0.341      342.213       17.463      871.729
04/29/2014  12:40:00      277.610      164.886       52.862      176.415      100.870       91.615    31122.144    10174.781     8393.307        7.836        2.485      322.884       77.849        0.058      342.346       17.690      871.716
04/29/2014  12:41:00      167.315      137.634       68.212      108.421       98.881       83.810    11755.035     9777.373     7024.153        4.007        1.428      216.650       56.454        0.068      342.369       17.728      871.718
04/29/2014  12:42:00      282.528      155.388       73.804      213.607      147.140       95.781    45627.757    21650.177     9174.053        9.292        3.823      322.440       56.758        0.031      342.125       17.314      871.705
04/29/2014  12:43:00      340.454      213.158       80.865      152.889      134.295      113.638    23375.020    18035.254    12913.618       11.109        2.716      401.678       83.961        0.044      341.703       16.595      871.679
04/29/2014  12:44:00      365.118      172.882       77.562      195.493      152.811      146.714    38217.650    23351.144    21524.940       12.614        4.155      403.980      121.425        0.090      341.996       17.093      871.711
04/29/2014  12:45:00      284.049      204.351       31.904      152.671      110.834      113.262    23308.470    12284.261    12828.285        8.593        2.421      349.919       47.284        0.018      341.558       16.350      871.754
04/29/2014  12:46:00       76.313       85.314      112.987      128.048       97.332       96.038    16396.286     9473.614     9223.297        3.047        1.755      114.464       82.895        0.524      342.034       17.158      871.730
04/29/2014  12:47:00      174.667      197.447      176.140      130.678      112.621      108.535    17076.774    12683.474    11779.762        7.102        2.077      263.617       73.065        0.077      341.838       16.826      871.690
04/29/2014  12:48:00      244.643      151.951       77.522      146.678      157.432      143.505    21514.441    24784.988    20593.601        7.791        3.345      287.992      123.541        0.184      341.953       17.021      871.674
04/29/2014  12:49:00      160.869     -211.972        4.927      155.592      251.660       95.544    24208.982    63332.660     9128.694        8.373        4.834      266.103      134.181        0.254      342.201       17.443      871.665
04/29/2014  12:50:00      308.299     -410.998      -42.632      104.269      117.561       51.156    10872.039    13820.476     2616.885       14.654        1.365      513.777       49.021        0.009      341.644       16.497      871.640
04/29/2014  12:51:00      215.085     -351.302      -35.872      121.521      152.696       69.481    14767.375    23316.192     4827.667       10.693        2.146      411.916       69.270        0.028      341.696       16.585      871.630
04/29/2014  12:52:00      138.425       30.858      106.126      230.763      141.173       89.595    53251.627    19929.691     8027.304        5.628        4.060      141.823       97.758        0.475      342.003       17.106      871.615
04/29/2014  12:53:00      118.622       85.597      130.651      172.624      165.740       92.761    29799.149    27469.790     8604.533        5.216        3.294      146.281       87.769        0.360      342.184       17.416      871.563
04/29/2014  12:54:00      273.299     -275.800       48.170      174.656      322.609      155.662    30504.730   104076.862    24230.715       15.591        7.941      388.276      197.472        0.259      342.149       17.352      871.548
04/29/2014  12:55:00      112.242      -25.674      100.260      140.409      206.993      137.143    19714.772    42846.130    18808.190        5.232        4.068      115.141      153.468        1.777      342.154       17.363      871.563
04/29/2014  12:56:00      242.531     -252.187      -10.075      163.152      213.056      119.544    26618.442    45392.873    14290.683       10.439        4.315      349.885      149.093        0.182      341.791       16.745      871.519
04/29/2014  12:57:00      110.957     -117.514       32.185      110.339      162.951       93.454    12174.699    26553.004     8733.637        3.730        2.373      161.620       99.876        0.382      342.140       17.340      871.524
04/29/2014  12:58:00      113.694     -116.158       22.742       99.442      165.077       66.986     9888.766    27250.333     4487.133        3.427        2.081      162.540       85.827        0.279      342.149       17.354      871.537
04/29/2014  12:59:00       89.458        8.338       89.821      137.358      135.814       78.928    18867.165    18445.369     6229.691        2.983        2.177       89.846       83.177        0.857      342.504       17.959      871.526
04/29/2014  13:00:00      107.099       43.870      109.954      139.403      117.668       74.654    19433.243    13845.874     5573.283        3.216        1.943      115.736       56.417        0.238      342.626       18.165      871.510
04/29/2014  13:01:00      160.764      104.336      112.409      168.600      117.744       96.702    28425.988    13863.656     9351.341        5.049        2.582      191.654       93.584        0.238      342.460       17.882      871.558
04/29/2014  13:02:00      307.120      146.736       48.390      136.543       95.010       84.652    18644.016     9026.952     7165.990        7.651        1.742      340.373       50.390        0.022      342.132       17.325      871.578
04/29/2014  13:03:00      159.487      101.443       44.740      135.056       82.759       82.011    18240.072     6849.091     6725.750        3.477        1.591      189.015       86.425        0.209      342.046       17.180      871.526
04/29/2014  13:04:00       63.101       76.561       65.577       78.173       81.243       61.036     6110.955     6600.453     3725.426        1.529        0.822       99.214       36.655        0.137      342.925       18.675      871.522
04/29/2014  13:05:00      253.403      122.628       85.391      148.013      106.403       99.100    21907.952    11321.560     9820.842        6.479        2.153      281.515       72.830        0.067      342.716       18.316      871.531
04/29/2014  13:06:00      324.734      268.638      168.044      222.884      173.258      141.386    49677.401    30018.458    19989.937       15.275        4.984      421.448      133.735        0.101      342.215       17.466      871.503
04/29/2014  13:07:00      206.238      175.441      122.839      164.737      117.657       88.696    27138.200    13843.197     7867.033        6.862        2.442      270.765       73.269        0.073      342.111       17.290      871.522
04/29/2014  13:08:00      220.409      133.894      104.375      120.613       90.343       78.067    14547.474     8161.809     6094.495        5.310        1.440      257.891       60.477        0.055      341.955       17.024      871.492
04/29/2014  13:09:00      152.405      149.922      109.203      196.782      142.903      109.617    38723.137    20421.339    12015.799        6.438        3.558      213.784       73.304        0.118      342.303       17.616      871.459
04/29/2014  13:10:00      270.485      168.922      149.128      228.501      147.400      123.525    52212.533    21726.831    15258.392       10.655        4.460      318.900      106.426        0.111      342.148       17.352      871.474
04/29/2014  13:11:00      114.448       52.136        9.229       82.922       60.950       52.752     6876.051     3714.891     2782.726        1.463        0.669      125.763       29.110        0.054      342.480       17.919      871.482
04/29/2014  13:12:00      176.208      134.434       97.788      106.378       77.742       82.926    11316.377     6043.849     6876.776        4.146        1.212      221.634       50.153        0.051      342.435       17.840      871.457
04/29/2014  13:13:00      217.163       91.245      147.003      160.555      175.127      123.314    25778.066    30669.294    15206.245        7.436        3.583      235.553      115.119        0.239      342.464       17.888      871.437
04/29/2014  13:14:00      157.869      -43.538       52.042      160.245      121.290       82.963    25678.467    14711.217     6882.904        3.839        2.364      163.763       82.550        0.254      342.243       17.515      871.454
04/29/2014  13:15:00      107.811      100.399      125.285      122.738      109.961       87.433    15064.618    12091.412     7644.468        3.609        1.740      147.320       77.102        0.274      342.288       17.590      871.453
04/29/2014  13:16:00       99.605      -72.679       78.472      102.132      203.101       96.594    10431.027    41250.003     9330.405        4.117        3.051      123.302      107.578        0.761      342.466       17.892      871.379
04/29/2014  13:17:00      168.186      164.943      183.545      184.589      148.510      115.724    34073.001    22055.141    13392.138        7.934        3.476      235.569      109.315        0.215      342.474       17.905      871.400
04/29/2014  13:18:00      223.303      155.516       83.083      153.389      118.352      107.009    23528.109    14007.178    11450.894        6.496        2.449      272.121       89.624        0.108      342.184       17.413      871.409
04/29/2014  13:19:00      495.766      323.160       52.765      149.199      127.179      100.186    22260.270    16174.476    10037.189       20.073        2.424      591.791       28.614        0.002      342.037       17.163      871.446
04/29/2014  13:20:00      314.468      159.887       51.563      132.474       97.742       93.392    17549.420     9553.426     8722.143        8.146        1.791      352.780       36.994        0.011      342.157       17.367      871.456
04/29/2014  13:21:00      252.580      185.357       97.076      201.635      149.220      125.285    40656.791    22266.660    15696.395        9.308        3.931      313.295      129.793        0.172      342.025       17.143      871.452
04/29/2014  13:22:00      314.301      153.079       20.332      122.139      120.125       80.420    14917.828    14429.899     6467.383        7.922        1.791      349.597       45.107        0.017      341.993       17.088      871.464
04/29/2014  13:23:00      400.256      282.144       44.625      125.976       99.559       99.157    15869.851     9912.048     9832.104       13.870        1.781      489.704       56.932        0.014      341.929       16.980      871.452
04/29/2014  13:24:00      232.386      162.878       21.324      162.816      132.509       86.393    26509.212    17558.564     7463.807        6.625        2.577      283.782       60.901        0.046      342.089       17.252      871.451
04/29/2014  13:25:00      195.766      169.876       16.924      157.593      103.498       90.936    24835.539    10711.906     8269.277        5.563        2.191      259.196       57.788        0.050      342.417       17.809      871.461
04/29/2014  13:26:00      122.919      127.232        7.078      136.716      109.550       65.126    18691.397    12001.143     4241.398        3.313        1.747      176.910       55.073        0.097      342.394       17.769      871.457
04/29/2014  13:27:00      269.130      223.385       29.285      150.628      103.042       87.726    22688.924    10617.704     7695.825        8.209        2.050      349.759       66.990        0.037      342.493       17.939      871.443
04/29/2014  13:28:00      118.320      161.013        3.665      126.732      128.535       89.919    16061.092    16521.159     8085.492        4.029        2.033      199.811       75.599        0.143      342.212       17.462      871.439
04/29/2014  13:29:00      261.115      146.770       55.165      109.154       85.011       73.727    11914.558     7226.914     5435.738        5.867        1.229      299.537       39.908        0.018      342.626       18.163      871.463
04/29/2014  13:30:00      258.833      170.265       48.578      192.459      123.242       87.276    37040.551    15188.482     7617.024        7.908        2.992      309.814        8.538        0.001      342.675       18.249      871.459
04/29/2014  13:31:00      326.435      198.236       37.648      189.951      131.333      102.239    36081.352    17248.448    10452.714       10.552        3.189      381.912       76.645        0.040      342.219       17.474      871.452
04/29/2014  13:32:00      476.514      287.130       86.175      148.290      131.378      118.216    21989.897    17260.186    13974.940       18.507        2.661      556.336       71.354        0.016      342.128       17.317      871.440
04/29/2014  13:33:00      383.869      195.177       84.760      176.722      185.825      143.317    31230.779    34530.941    20539.654       13.945        4.315      430.638       76.590        0.032      342.224       17.479      871.385
04/29/2014  13:34:00      573.827      379.467      105.838      193.072      146.385      104.111    37276.792    21428.600    10839.011       27.700        3.477      687.948       57.844        0.007      342.069       17.216      871.347
04/29/2014  13:35:00      279.185      154.647      117.541      220.701      168.597      136.716    48709.091    28425.026    18691.251       10.573        4.791      319.155      113.676        0.127      342.448       17.862      871.376
04/29/2014  13:36:00      337.770      222.580      183.273      250.072      167.418      149.965    62535.776    28028.644    22489.584       15.511        5.653      404.512      139.581        0.119      342.346       17.688      871.422
04/29/2014  13:37:00      275.095      137.582       76.721      192.861      147.365      122.484    37195.417    21716.310    15002.439        8.719        3.696      307.581       87.034        0.080      342.374       17.736      871.490
04/29/2014  13:38:00      235.754      201.458      145.224      128.876      121.840       86.548    16609.009    14844.877     7490.627        7.809        1.947      310.105       60.947        0.039      342.412       17.800      871.523
04/29/2014  13:39:00      232.052       95.005       36.551      158.491      117.046       92.771    25119.514    13699.678     8606.414        5.581        2.371      250.747       89.829        0.128      342.396       17.774      871.539
04/29/2014  13:40:00      109.124      158.822      157.417      131.857       92.422       85.293    17386.269     8541.856     7274.872        4.755        1.660      192.698       76.930        0.159      342.147       17.351      871.553
04/29/2014  13:41:00      130.418      112.768       83.899      162.602      104.374      111.415    26439.564    10894.000    12413.311        4.325        2.487      172.410      102.972        0.357      341.989       17.082      871.529
04/29/2014  13:42:00      156.844      121.545       43.743       78.133       57.010       56.640     6104.717     3250.117     3208.056        2.692        0.628      198.427       21.434        0.012      341.810       16.778      871.524
04/29/2014  13:43:00       47.981       -4.176       30.018       84.188       77.974       44.734     7087.656     6079.984     2001.092        0.919        0.758       48.162       44.307        0.846      342.322       17.649      871.485
04/29/2014  13:44:00      102.030      153.403      125.823       77.453       68.948       68.662     5998.906     4753.790     4714.470        3.262        0.773      184.235       56.842        0.095      342.224       17.481      871.475
04/29/2014  13:45:00      110.029      144.460      156.989       88.008       95.521       83.625     7745.451     9124.313     6993.211        4.074        1.193      181.590       71.377        0.155      342.201       17.443      871.447
04/29/2014  13:46:00      282.163      218.857      238.539      198.418      180.996      142.097    39369.747    32759.407    20191.492       13.835        4.616      357.091      136.996        0.147      342.038       17.165      871.394
04/29/2014  13:47:00      233.700      205.323      152.272      146.538      133.506      129.670    21473.315    17823.801    16814.436        8.802        2.806      311.084      114.125        0.135      342.043       17.174      871.411
04/29/2014  13:48:00      141.523       87.034      149.121      150.102      187.116      119.440    22530.733    35012.361    14265.841        6.081        3.590      166.144      127.271        0.587      342.388       17.761      871.390
04/29/2014  13:49:00       94.591       27.917      104.647      136.418      121.583       89.637    18609.955    14782.519     8034.851        3.104        2.071       98.625       82.284        0.696      342.601       18.122      871.364
04/29/2014  13:50:00      315.521      215.602      112.600      182.597      164.227      104.873    33341.798    26970.385    10998.341       11.500        3.566      382.149       55.538        0.021      342.650       18.206      871.372
04/29/2014  13:51:00      369.439      203.160       97.819      274.916      161.075      125.655    75578.547    25945.108    15789.286       15.230        5.866      421.615      138.468        0.108      342.284       17.582      871.410
04/29/2014  13:52:00      419.755      230.700       51.185      183.068      150.311       94.266    33513.984    22593.488     8886.142       14.850        3.250      478.975       19.945        0.002      342.145       17.347      871.461
04/29/2014  13:53:00      225.270      141.270       58.370      162.201      131.056       89.525    26309.071    17175.747     8014.764        6.280        2.575      265.902       68.638        0.067      342.400       17.780      871.481
04/29/2014  13:54:00      200.161      133.882      113.284      176.951      151.733      109.321    31311.679    23022.948    11951.124        6.854        3.314      240.809      103.634        0.185      342.395       17.772      871.449
04/29/2014  13:55:00      307.038      175.311      111.261      172.163      132.183      128.298    29640.173    17472.399    16460.418       10.047        3.179      353.562      100.326        0.081      342.440       17.849      871.479
04/29/2014  13:56:00      186.815      171.265      104.014      149.439       86.177      101.753    22331.890     7426.534    10353.670        5.757        2.006      253.439       94.337        0.139      342.642       18.191      871.493
04/29/2014  13:57:00      289.302      169.508       66.597      144.333      100.447      102.052    20831.894    10089.663    10414.570        7.909        2.067      335.304       54.039        0.026      342.256       17.535      871.504
04/29/2014  13:58:00      346.552      195.510       79.099      200.499      143.740      103.150    40199.716    20661.067    10639.848       11.803        3.575      397.898       57.896        0.021      342.232       17.495      871.473
04/29/2014  13:59:00      314.207      174.648       93.308      187.914      143.049      115.193    35311.737    20462.923    13269.515       10.348        3.452      359.483       78.467        0.048      342.243       17.512      871.478
04/29/2014  14:00:00      211.909       68.389       47.620      147.271       85.641       67.568    21688.645     7334.368     4565.384        4.271        1.679      222.672       68.551        0.095      342.220       17.474      871.480
04/29/2014  14:01:00      204.238       85.429       57.736      108.891      111.435       82.227    11857.152    12417.767     6761.309        4.168        1.552      221.385       47.134        0.045      342.242       17.513      871.426
04/29/2014  14:02:00      259.330      188.239       20.732      150.442      109.447       72.905    22632.725    11978.739     5315.116        7.151        1.996      320.447       36.356        0.013      342.700       18.289      871.396
04/29/2014  14:03:00      215.899      188.686        1.141      136.710      116.996      103.525    18689.569    13687.981    10717.445        6.265        2.155      286.731       74.553        0.068      342.673       18.244      871.377
04/29/2014  14:04:00      349.527      238.553       74.000      162.753      123.387      108.595    26488.676    15224.462    11792.859       11.902        2.675      423.175       75.139        0.032      342.296       17.603      871.368
04/29/2014  14:05:00      258.103      141.059       43.341      243.974      141.417      101.629    59523.433    19998.744    10328.484        8.910        4.493      294.135       55.594        0.036      342.527       17.997      871.353
04/29/2014  14:06:00      192.543      149.832       24.898      171.220      114.374      104.605    29316.349    13081.499    10942.187        5.673        2.667      243.972       76.280        0.098      342.729       18.341      871.374
04/29/2014  14:07:00      436.026      223.301       65.258      235.153      153.936      132.264    55296.806    23696.362    17493.650       17.034        4.824      489.879      101.093        0.043      342.619       18.152      871.284
04/29/2014  14:08:00      453.916      242.574      102.978      249.536      177.755      114.446    62268.041    31596.719    13097.798       19.120        5.348      514.666       87.322        0.029      342.522       17.988      871.343
04/29/2014  14:09:00      139.669       56.141       54.193      137.923       98.210       74.156    19022.864     9645.162     5499.133        2.987        1.708      150.530       66.836        0.197      342.826       18.506      871.386
04/29/2014  14:10:00      171.674       90.389       55.634      116.167       99.421       84.370    13494.708     9884.447     7118.347        3.561        1.525      194.016       42.406        0.048      342.790       18.445      871.372
04/29/2014  14:11:00      247.197      200.894      122.906      180.899      114.420      124.950    32724.596    13091.962    15612.384        8.899        3.071      318.536      116.699        0.134      342.526       17.993      871.370
04/29/2014  14:12:00      112.307      122.285      153.416      128.918      142.187       82.256    16619.872    20217.216     6766.011        4.734        2.180      166.031       87.700        0.279      342.549       18.034      871.371
04/29/2014  14:13:00      128.838      155.730      164.451      146.993      136.868      108.035    21606.975    18732.921    11671.592        5.994        2.601      202.116      110.077        0.297      342.689       18.273      871.354
04/29/2014  14:14:00      120.076      146.526      144.167      147.265      107.217       92.896    21686.949    11495.517     8629.633        4.923        2.091      189.442       76.024        0.161      342.743       18.364      871.361
04/29/2014  14:15:00      142.414      125.293      108.138      113.458      108.383       54.033    12872.681    11746.845     2919.564        3.760        1.377      189.684       50.952        0.072      342.755       18.384      871.384
04/29/2014  14:16:00       58.592      -44.096       20.354       69.823       82.220       58.190     4875.202     6760.097     3386.103        1.040        0.751       73.331       37.679        0.264      342.371       17.733      871.337
04/29/2014  14:17:00       70.807      -21.010       80.804      118.181      208.111      125.954    13966.863    43310.076    15864.475        4.255        3.657       73.859      156.159        4.470      342.609       18.137      871.297
04/29/2014  14:18:00      113.522       76.133      113.047      120.914      128.637       85.031    14620.176    16547.383     7230.261        3.492        1.920      136.687       91.563        0.449      342.567       18.063      871.318
04/29/2014  14:19:00      204.329      140.804       53.190      134.675       85.851       95.509    18137.476     7370.335     9121.953        4.951        1.731      248.145       61.027        0.060      342.634       18.177      871.335
04/29/2014  14:20:00      182.782       97.941       18.930      153.174       91.586       75.705    23462.373     8387.974     5731.266        4.046        1.879      207.368       32.481        0.025      342.560       18.052      871.309
04/29/2014  14:21:00      267.006      199.419      110.808      178.120      102.709      106.217    31726.624    10549.161    11282.047        8.844        2.678      333.257      102.322        0.094      342.617       18.148      871.308
04/29/2014  14:22:00      159.316      180.778      150.639      164.460      103.959      119.891    27047.071    10807.433    14373.946        6.648        2.611      240.961      109.271        0.206      342.530       18.001      871.312
04/29/2014  14:23:00      237.350      152.070      112.439      181.958      130.350      102.535    33108.695    16990.997    10513.403        7.635        3.031      281.887       92.512        0.108      342.629       18.170      871.292
04/29/2014  14:24:00      284.283      130.402      113.860      176.681      148.693      110.510    31216.023    22109.683    12212.402        8.815        3.277      312.765       95.110        0.092      342.513       17.971      871.280
04/29/2014  14:25:00      148.087      193.480      190.787      122.939      101.045       96.488    15113.935    10210.145     9309.985        6.519        1.732      243.648       77.871        0.102      342.302       17.612      871.279
04/29/2014  14:26:00      257.883      179.790      106.637      199.527      141.435      105.646    39810.912    20003.720    11161.180        9.057        3.549      314.370      108.604        0.119      342.562       18.056      871.229
04/29/2014  14:27:00      180.722      174.602       84.191      176.972      101.390       93.850    31319.040    10280.029     8807.879        6.031        2.520      251.289       98.328        0.153      342.969       18.749      871.251
04/29/2014  14:28:00      126.410      107.864      204.487      153.356      213.622      130.638    23518.154    45634.398    17066.328        7.781        4.311      166.175      125.107        0.567      342.802       18.465      871.235
04/29/2014  14:29:00      144.822      -17.869       74.777      144.681      137.783      116.211    20932.536    18984.194    13504.880        4.014        2.671      145.920       91.728        0.395      342.799       18.461      871.231
04/29/2014  14:30:00      249.624      157.940       49.039      118.325       99.400       80.627    14000.757     9880.424     6500.779        6.002        1.519      295.393       48.966        0.027      342.786       18.435      871.262
04/29/2014  14:31:00      183.917      140.038       83.361      171.395      101.940       94.637    29376.192    10391.808     8956.256        5.454        2.436      231.163       85.308        0.136      342.615       18.147      871.225
04/29/2014  14:32:00      309.224      184.156       29.953      102.427       84.568       91.484    10491.209     7151.712     8369.411        7.822        1.301      359.907       31.996        0.008      342.578       18.082      871.221
04/29/2014  14:33:00      245.653      154.738       45.175      182.853      137.724       79.930    33435.042    18967.934     6388.758        7.255        2.940      290.326       59.352        0.042      342.667       18.233      871.225
04/29/2014  14:34:00      189.546      225.914       -3.031      145.505      143.781      108.908    21171.686    20672.843    11861.036        7.033        2.685      294.899       94.580        0.103      342.463       17.888      871.235
04/29/2014  14:35:00      178.884      192.988       -3.524      146.638      132.220      101.987    21502.773    17482.136    10401.387        5.931        2.469      263.142       73.177        0.077      342.679       18.255      871.227
04/29/2014  14:36:00      114.089      111.699        1.774      111.991       88.147       65.432    12541.951     7769.838     4281.355        2.504        1.230      159.665       41.591        0.068      342.860       18.564      871.204
04/29/2014  14:37:00      223.696      163.085       16.663      159.924       91.961       53.375    25575.628     8456.790     2848.850        5.689        1.844      276.833       25.888        0.009      342.870       18.580      871.201
04/29/2014  14:38:00      191.190       91.380       65.967      153.904      121.722       91.245    23686.315    14816.163     8325.645        4.803        2.341      211.905       55.618        0.069      342.992       18.787      871.170
04/29/2014  14:39:00      197.383      175.585      162.082      192.329      152.450      126.302    36990.482    23241.112    15952.249        8.611        3.809      264.178      113.557        0.185      342.650       18.205      871.134
04/29/2014  14:40:00      280.780      186.871      110.472      163.918      162.393      102.573    26869.079    26371.351    10521.321        9.485        3.188      337.280       82.424        0.060      342.729       18.340      871.124
04/29/2014  14:41:00      289.219      193.103      112.457      146.117      120.930      118.913    21350.163    14624.009    14140.332        9.184        2.506      347.759       91.703        0.070      343.204       19.149      871.169
04/29/2014  14:42:00      185.807      183.420      192.038      168.724      125.575      100.518    28467.653    15769.114    10103.867        7.968        2.717      261.088       97.896        0.141      342.475       17.907      871.170
04/29/2014  14:43:00      192.522      170.646      127.966      109.388       97.180       85.475    11965.769     9443.913     7305.945        5.563        1.436      257.264       64.688        0.063      342.580       18.087      871.189
04/29/2014  14:44:00      213.442      122.672       37.879      128.195       72.985       62.568    16434.045     5326.862     3914.802        4.385        1.284      246.183       42.044        0.029      342.258       17.539      871.187
04/29/2014  14:45:00      154.329      114.780       45.881      110.889       67.598       71.197    12296.335     4569.531     5069.069        3.051        1.097      192.333       42.008        0.048      342.505       17.958      871.132
04/29/2014  14:46:00      172.601      127.952       16.346      126.791       85.483       73.177    16075.947     7307.375     5354.938        3.758        1.437      214.856       36.732        0.029      342.712       18.311      871.095
04/29/2014  14:47:00      233.814      131.184       49.498      179.785      112.900       84.181    32322.549    12746.453     7086.470        6.323        2.608      268.101       43.605        0.026      343.073       18.924      871.026
04/29/2014  14:48:00      267.532      153.893       45.141      146.314      114.949       81.086    21407.898    13213.219     6574.994        6.924        2.060      308.637       43.413        0.020      343.028       18.850      871.033
04/29/2014  14:49:00      294.893      183.548       13.802      177.189      140.049       98.215    31395.897    19613.790     9646.195        9.074        3.033      347.350       57.440        0.027      342.846       18.538      871.061
04/29/2014  14:50:00      311.084      212.992       18.287      166.778      106.817       83.602    27815.024    11409.945     6989.214        9.433        2.311      377.013       60.823        0.026      342.156       17.365      871.091
04/29/2014  14:51:00      191.963      143.732       48.498      111.625       78.257       66.817    12460.050     6124.178     4464.476        4.145        1.152      239.809       45.503        0.036      342.524       17.991      871.031
04/29/2014  14:52:00      314.633      212.693       62.907      189.608      130.839      104.557    35951.309    17118.917    10932.121       10.608        3.200      379.780       86.169        0.051      342.876       18.590      871.009
04/29/2014  14:53:00      383.814      262.951       19.546      140.161      126.273      103.357    19645.109    15944.869    10682.689       13.155        2.314      465.249       46.410        0.010      342.507       17.962      871.003
04/29/2014  14:54:00      154.228       67.445       29.354      100.159       94.741       67.031    10031.814     8975.805     4493.126        2.634        1.175      168.330       43.879        0.068      342.993       18.789      870.968
04/29/2014  14:55:00      167.831      131.919      120.598      125.346      101.538       86.743    15711.681    10309.918     7524.435        4.682        1.677      213.470       59.213        0.077      342.984       18.774      870.954
04/29/2014  14:56:00      183.502      193.779      164.029      153.835      124.048      119.671    23665.303    15387.925    14321.115        7.574        2.669      266.877      108.361        0.165      342.820       18.493      870.919
04/29/2014  14:57:00      306.356      134.432       42.796      138.724      111.644       77.442    19244.383    12464.409     5997.340        7.572        1.885      334.554       74.829        0.050      342.816       18.488      870.931
04/29/2014  14:58:00      281.752      188.528       69.024      146.802      112.946       94.315    21550.810    12756.765     8895.311        8.144        2.160      339.009       74.686        0.049      342.474       17.905      870.911
04/29/2014  14:59:00      175.423      163.334        9.020      118.481      105.326       92.691    14037.667    11093.641     8591.623        4.562        1.686      239.690       42.093        0.031      342.897       18.625      870.879
04/29/2014  15:00:00      277.348      185.140       24.194      165.682      107.021       82.449    27450.472    11453.455     6797.846        7.873        2.285      333.465       46.313        0.019      342.912       18.652      870.862
04/29/2014  15:01:00      260.936      113.187       47.862      202.339      147.343       91.537    40940.873    21710.090     8379.060        7.710        3.552      284.427       85.168        0.090      342.596       18.113      870.838
04/29/2014  15:02:00      306.471      175.273       44.515      172.321      133.329       98.016    29694.546    17776.490     9607.114        9.184        2.854      353.052       46.829        0.018      342.702       18.293      870.823
04/29/2014  15:03:00      239.204      179.063       43.215      161.938      133.865      114.989    26224.076    17919.733    13222.388        7.425        2.868      298.801       68.360        0.052      342.729       18.337      870.791
04/29/2014  15:04:00      349.494      194.638       31.377      143.356      115.161       86.017    20550.932    13262.148     7398.999       10.110        2.061      400.037       37.164        0.009      342.616       18.148      870.802
04/29/2014  15:05:00      126.738      120.866       77.423      163.789      108.625       93.454    26826.979    11799.298     8733.735        4.200        2.368      175.132       60.816        0.121      342.743       18.364      870.816
04/29/2014  15:06:00      182.470       99.977       54.762      121.761       89.645       79.717    14825.853     8036.172     6354.774        3.775        1.461      208.064       71.216        0.117      342.756       18.385      870.824
04/29/2014  15:07:00      184.196      139.671       83.609      144.086       95.181      102.002    20760.743     9059.358    10404.500        5.032        2.011      231.163       93.025        0.162      342.820       18.495      870.826
04/29/2014  15:08:00      177.276       95.050       79.166      121.756      110.464       87.510    14824.508    12202.384     7657.998        4.070        1.734      201.150       76.162        0.143      343.150       19.056      870.814
04/29/2014  15:09:00      177.021       51.639      106.389      186.364      159.575       89.896    34731.396    25464.127     8081.310        5.679        3.414      184.399       94.477        0.263      343.038       18.867      870.796
04/29/2014  15:10:00      100.551       72.791       81.257      117.550       92.174       66.883    13818.037     8496.046     4473.378        2.439        1.339      124.133       44.465        0.128      343.248       19.224      870.786
04/29/2014  15:11:00      190.371      140.193      159.663      141.009      114.467       91.428    19883.663    13102.657     8359.103        6.136        2.067      236.421       72.952        0.095      342.840       18.529      870.769
04/29/2014  15:12:00      158.128      107.744      115.930      115.440      139.937      102.568    13326.495    19582.384    10520.277        4.673        2.171      191.346      105.327        0.303      342.449       17.863      870.763
04/29/2014  15:13:00      258.883      140.630        3.076      129.114      107.122       67.349    16670.547    11475.096     4535.872        5.974        1.634      294.613       52.001        0.031      342.899       18.628      870.783
04/29/2014  15:14:00      314.582      191.276      116.137      202.262      130.390      135.788    40909.730    17001.488    18438.344       11.268        3.817      368.169      128.705        0.122      342.785       18.436      870.754
04/29/2014  15:15:00      379.809      243.046       81.270      162.626      133.035      120.135    26447.351    17698.199    14432.525       13.424        2.929      450.917       89.782        0.040      342.708       18.304      870.743
04/29/2014  15:16:00      194.460      113.194       69.110      165.028      142.667      103.646    27234.281    20353.993    10742.410        5.686        2.917      225.006       79.561        0.125      342.789       18.440      870.743
04/29/2014  15:17:00      144.567      163.430        7.941       93.215      117.426       74.313     8688.990    13788.798     5522.407        3.783        1.400      218.195       64.604        0.088      342.991       18.785      870.747
04/29/2014  15:18:00      228.124      175.307       56.018      133.093       80.884       75.698    17713.782     6542.146     5730.187        5.794        1.499      287.703       39.949        0.019      342.961       18.734      870.751
04/29/2014  15:19:00      157.560      151.510        4.905      129.961      106.119       74.723    16889.893    11261.298     5583.535        4.076        1.687      218.588       56.193        0.066      342.675       18.249      870.747
04/29/2014  15:20:00      216.759      131.340       22.610      100.226       87.906       62.219    10045.351     7727.419     3871.219        4.319        1.082      253.446       53.242        0.044      342.982       18.770      870.739
04/29/2014  15:21:00      285.582      188.878       35.711      116.174      100.283       74.405    13496.391    10056.682     5536.048        7.379        1.454      342.392       31.561        0.008      343.026       18.846      870.744
04/29/2014  15:22:00      178.954       69.346       80.399      139.927      127.636       86.646    19579.472    16290.973     7507.491        4.333        2.169      191.921       74.041        0.149      343.109       18.987      870.724
04/29/2014  15:23:00       73.204       73.162      117.278      111.404       90.477       64.951    12410.748     8186.121     4218.661        2.464        1.241      103.496       62.408        0.364      342.803       18.466      870.701
04/29/2014  15:24:00      101.736       62.939       73.254      140.101      101.773       75.492    19628.192    10357.812     5699.027        2.767        1.784      119.631       62.896        0.276      343.009       18.816      870.702
04/29/2014  15:25:00       70.072      180.932      -20.825      118.904       95.706       67.814    14138.054     9159.658     4598.723        3.298        1.395      194.027       61.314        0.100      343.027       18.847      870.691
04/29/2014  15:26:00      251.487      206.340       14.614      206.340      162.294      102.374    42576.167    26339.475    10480.492        9.270        3.970      325.303       61.360        0.036      342.848       18.542      870.664
04/29/2014  15:27:00      270.607      189.050       32.442      185.872      102.803       99.929    34548.410    10568.378     9985.762        8.255        2.755      330.103       52.771        0.026      342.949       18.715      870.641
04/29/2014  15:28:00      282.840      205.984       35.965      144.780      112.274       87.102    20961.174    12605.491     7586.678        8.243        2.058      349.897       66.498        0.036      342.710       18.308      870.626
04/29/2014  15:29:00      171.846      137.123       23.244      135.519      127.124       81.435    18365.502    16160.412     6631.706        4.501        2.058      219.849       64.611        0.086      342.998       18.797      870.616
04/29/2014  15:30:00      182.670      207.834        1.093      174.831      120.069       89.064    30565.836    14416.569     7932.459        6.473        2.646      276.700       65.004        0.055      342.912       18.650      870.619
04/29/2014  15:31:00      337.602      199.561       44.578      133.196      100.130       87.250    17741.165    10026.105     7612.641        9.558        1.769      392.173       57.775        0.022      342.751       18.377      870.585
04/29/2014  15:32:00      214.018      140.842       74.475      148.019       98.776       96.634    21909.717     9756.608     9338.194        5.609        2.050      256.203       71.268        0.077      343.041       18.869      870.575
04/29/2014  15:33:00      138.101      141.189      100.714      151.643      136.720      118.298    22995.598    18692.251    13994.408        5.240        2.784      197.500       72.640        0.135      343.280       19.280      870.564
04/29/2014  15:34:00      130.437      122.545      113.198      149.130      126.019       98.925    22239.620    15880.733     9786.239        4.637        2.395      178.972       71.084        0.158      343.228       19.189      870.587
04/29/2014  15:35:00      308.466      172.948       26.061      135.608      125.629       90.211    18389.553    15782.569     8137.983        8.402        2.116      353.642       60.745        0.030      343.034       18.857      870.584
04/29/2014  15:36:00      189.027      127.516       60.881      140.382      114.615       96.795    19707.045    13136.523     9369.213        4.895        2.111      228.016       64.983        0.081      342.907       18.642      870.552
04/29/2014  15:37:00      396.766      274.364       73.284      182.963      110.071      105.661    33475.571    12115.608    11164.233       14.740        2.838      482.389       59.748        0.015      342.965       18.740      870.535
04/29/2014  15:38:00      336.475      213.560      123.914      152.076      132.676      118.394    23127.001    17602.900    14017.165       11.445        2.737      398.526       71.957        0.033      342.983       18.771      870.559
04/29/2014  15:39:00      281.674      175.581       41.647      133.372      101.768       97.373    17787.968    10356.799     9481.443        7.476        1.881      331.917       43.445        0.017      342.800       18.460      870.583
04/29/2014  15:40:00      189.757      151.451       17.661      135.557      113.253       85.505    18375.678    12826.214     7311.186        4.888        1.926      242.787       67.253        0.077      342.860       18.562      870.562
04/29/2014  15:41:00      124.550      149.178      108.773      124.584      112.545      103.952    15521.180    12666.429    10805.988        4.429        1.950      194.336       93.691        0.232      343.129       19.020      870.557
04/29/2014  15:42:00      128.877       43.711      106.590      148.784      172.776       99.688    22136.758    29851.508     9937.746        4.589        3.096      136.088      102.902        0.572      343.161       19.075      870.525
04/29/2014  15:43:00      124.917      -18.520       84.118      131.506      161.107       89.012    17293.940    25955.554     7923.153        3.709        2.559      126.282       98.599        0.610      343.194       19.133      870.554
04/29/2014  15:44:00      130.393       92.840       90.658      103.300      101.922       86.752    10670.826    10388.016     7525.868        3.121        1.429      160.068       55.143        0.119      343.194       19.132      870.586
04/29/2014  15:45:00      170.542       50.372      119.276      152.575      131.180      100.010    23279.082    17208.186    10001.952        4.816        2.524      177.826       98.760        0.308      342.787       18.439      870.570
04/29/2014  15:46:00      256.964        8.108       58.527      143.959       98.241       82.014    20724.179     9651.286     6726.252        5.330        1.855      257.092       42.109        0.027      342.525       17.993      870.566
04/29/2014  15:47:00      144.168       78.293       48.109       97.537      100.196       53.088     9513.511    10039.253     2818.324        2.580        1.119      164.055       56.101        0.117      342.545       18.027      870.524
04/29/2014  15:48:00      177.182       98.755       33.004      101.874       86.242       68.971    10378.226     7437.702     4757.047        3.240        1.129      202.845       42.986        0.045      343.071       18.921      870.505
04/29/2014  15:49:00      370.708      254.976       55.198      172.197      123.270       98.013    29651.939    15195.394     9606.634       12.996        2.723      449.930       66.607        0.022      342.780       18.428      870.505
04/29/2014  15:50:00      266.228      121.385       53.216      119.752       86.670       63.639    14340.530     7511.771     4049.866        5.717        1.295      292.594       54.780        0.035      342.583       18.090      870.515
04/29/2014  15:51:00      229.415      163.112       47.463      120.304       96.158       83.140    14473.155     9246.333     6912.271        5.605        1.532      281.490       45.419        0.026      342.780       18.427      870.489
04/29/2014  15:52:00      253.484      135.948       67.318      223.703      158.142      139.252    50043.020    25008.921    19391.052        9.084        4.722      287.639      120.890        0.177      342.956       18.726      870.471
04/29/2014  15:53:00      242.628      167.031      123.364      183.932      136.247      129.049    33830.958    18563.301    16653.640        8.550        3.452      294.564      119.230        0.164      342.694       18.279      870.453
04/29/2014  15:54:00      270.074      201.837       58.175      167.080      115.341      104.004    27915.755    13303.567    10816.779        8.454        2.602      337.162       75.356        0.050      342.919       18.663      870.468
04/29/2014  15:55:00      214.152      118.528       38.164      144.150      107.103       87.966    20779.196    11471.156     7738.030        5.067        1.999      244.766       58.796        0.058      343.225       19.184      870.475
04/29/2014  15:56:00      253.880      160.800      136.044      183.770      145.671      110.686    33771.520    21219.954    12251.286        8.802        3.362      300.519      108.758        0.131      342.871       18.580      870.472
04/29/2014  15:57:00      179.797      158.200      144.670      182.155      169.854      140.858    33180.420    28850.342    19840.848        8.006        4.094      239.487      113.757        0.226      342.854       18.551      870.456
04/29/2014  15:58:00      184.641       80.122      123.524      140.693      132.759       90.196    19794.641    17624.830     8135.344        5.065        2.278      201.276       82.076        0.166      342.564       18.058      870.496
04/29/2014  15:59:00      164.456       89.155       96.763      121.336      113.266       92.842    14722.344    12829.213     8619.678        4.026        1.809      187.068       24.437        0.017      342.976       18.761      870.483
04/29/2014  16:00:00      357.776      212.741       55.237      109.042       90.666       88.061    11890.148     8220.347     7754.758       10.208        1.393      416.248       44.376        0.011      343.226       19.184      870.488
04/29/2014  16:01:00      204.416      128.253      117.050      200.834      127.641      121.502    40334.454    16292.325    14762.804        7.165        3.569      241.319      115.975        0.231      343.136       19.034      870.492
04/29/2014  16:02:00      241.575      148.394      120.147      180.480      150.140      135.931    32573.183    22542.024    18477.143        8.419        3.680      283.512      115.165        0.165      342.738       18.354      870.496
04/29/2014  16:03:00      159.009      117.566      141.447      169.573      127.232       96.313    28755.160    16187.914     9276.226        5.666        2.711      197.752       97.885        0.245      342.890       18.612      870.513
04/29/2014  16:04:00      191.914       93.528      115.211      163.777      116.478       80.246    26823.062    13567.096     6439.475        5.283        2.341      213.491       75.757        0.126      342.761       18.394      870.500
04/29/2014  16:05:00      206.716       41.703       70.249      142.338      188.076      100.188    20260.107    35372.700    10037.712        5.752        3.284      210.881       94.129        0.199      342.883       18.600      870.474
04/29/2014  16:06:00      119.579      -37.269       41.518      120.087      138.462       93.656    14420.958    19171.691     8771.515        2.988        2.118      125.252       81.271        0.421      343.113       18.993      870.443
04/29/2014  16:07:00      202.549      133.493      110.165      184.413      169.552      111.216    34008.077    28748.019    12368.950        7.304        3.756      242.583       97.772        0.162      343.105       18.981      870.441
04/29/2014  16:08:00      130.683      118.697      150.342      127.822      121.010       81.617    16338.537    14643.387     6661.320        4.570        1.882      176.542       63.852        0.131      343.075       18.929      870.395
04/29/2014  16:09:00      319.626      178.496      123.999      259.208      173.768      130.197    67188.918    30195.166    16951.261       13.184        5.717      366.090      118.543        0.105      343.017       18.828      870.382
04/29/2014  16:10:00      225.678      104.181       80.911      166.728      107.373       95.147    27798.206    11529.030     9052.996        5.835        2.419      248.565       82.626        0.110      342.918       18.662      870.412
04/29/2014  16:11:00      269.635      169.234       59.001      142.946      104.133       81.981    20433.431    10843.670     6720.965        7.140        1.900      318.344       46.116        0.021      343.008       18.813      870.418
04/29/2014  16:12:00      185.828      103.207       18.597       96.678       84.535       61.773     9346.607     7146.135     3815.877        3.292        1.015      212.565       30.782        0.021      343.007       18.814      870.406
04/29/2014  16:13:00      194.456      104.177       77.946      124.198       81.778       83.921    15425.209     6687.659     7042.670        4.194        1.458      220.604       55.684        0.064      342.867       18.573      870.370
04/29/2014  16:14:00      161.293      126.672       88.884      128.320       94.704       77.654    16466.015     8968.926     6030.141        4.071        1.573      205.089       58.724        0.082      343.173       19.096      870.343
04/29/2014  16:15:00      254.835      167.750       20.445      176.884      121.213       65.358    31288.062    14692.471     4271.625        7.187        2.513      305.091       35.645        0.014      342.976       18.760      870.351
04/29/2014  16:16:00       25.200       50.225        6.397       56.260       93.120       35.315     3165.167     8671.328     1247.141        0.814        0.654       56.192       33.483        0.355      342.883       18.604      870.314
04/29/2014  16:17:00       65.375       10.913       29.081       52.458       84.777       54.252     2751.840     7187.216     2943.290        0.906        0.644       66.280       31.703        0.229      343.041       18.873      870.284
04/29/2014  16:18:00      135.142       96.047       70.139      163.078      128.109      104.196    26594.440    16411.837    10856.817        4.312        2.693      165.796       71.847        0.188      343.093       18.961      870.266
04/29/2014  16:19:00      157.327      241.509      209.332      221.067      156.924      131.729    48870.793    24625.036    17352.621       10.886        4.542      288.233      128.914        0.200      343.047       18.880      870.260
04/29/2014  16:20:00      254.613      178.251      113.350      173.134      108.864      100.374    29975.352    11851.337    10074.850        8.067        2.595      310.807       88.704        0.081      342.945       18.707      870.286
04/29/2014  16:21:00      306.746      135.123       60.545      168.734      139.139      109.660    28471.100    19359.547    12025.322        8.792        2.993      335.189       52.838        0.025      343.028       18.847      870.266
04/29/2014  16:22:00      349.384      165.337       61.155      211.878      139.924      103.363    44892.273    19578.593    10683.932       11.414        3.758      386.530       92.000        0.057      342.971       18.750      870.249
04/29/2014  16:23:00      336.643      141.961       73.877      178.758      135.545      103.775    31954.506    18372.520    10769.319       10.001        3.055      365.351       87.168        0.057      343.060       18.903      870.270
04/29/2014  16:24:00      230.523      151.339      143.352      156.980      139.505      106.709    24642.764    19461.540    11386.916        7.603        2.775      275.761       85.978        0.097      342.822       18.499      870.271
04/29/2014  16:25:00      131.377       -6.715       86.669      124.520      108.753       78.272    15505.334    11827.207     6126.452        2.913        1.673      131.549       79.893        0.369      342.626       18.164      870.247
04/29/2014  16:26:00      210.931      131.355       83.880      145.659      107.633       85.801    21216.557    11584.890     7361.784        5.446        2.008      248.487       64.081        0.067      342.910       18.648      870.225
04/29/2014  16:27:00      266.570      189.477       98.665      161.907      123.830      112.481    26213.873    15333.787    12652.006        8.544        2.710      327.049       73.402        0.050      342.993       18.788      870.216
04/29/2014  16:28:00      196.731      191.103      130.063      215.343      137.886      107.859    46372.562    19012.621    11633.651        8.456        3.851      274.269       74.570        0.074      343.101       18.972      870.198
04/29/2014  16:29:00      403.273      239.519       65.665      164.929      128.191      104.475    27201.610    16432.983    10915.119       13.942        2.727      469.039       69.311        0.022      342.888       18.610      870.207
04/29/2014  16:30:00      328.132      202.392       33.168      146.032      128.714      112.969    21325.396    16567.228    12762.011       10.018        2.533      385.530       56.188        0.021      343.092       18.955      870.192
04/29/2014  16:31:00      260.337      129.460       55.773      114.125      105.919       78.857    13024.540    11218.901     6218.406        5.905        1.523      290.749       34.869        0.014      343.160       19.073      870.227
04/29/2014  16:32:00      241.382      112.832       24.125      135.412      123.814       77.969    18336.509    15329.863     6079.132        5.565        1.987      266.451       34.820        0.017      342.721       18.326      870.203
04/29/2014  16:33:00       98.754       77.699       28.789       78.959       88.500       72.695     6234.553     7832.231     5284.551        1.798        0.968      125.656       47.609        0.144      342.731       18.344      870.156
04/29/2014  16:34:00       80.878       54.813       97.030      113.641       85.085       70.218    12914.379     7239.444     4930.542        2.202        1.254       97.702       63.937        0.428      342.646       18.198      870.132
04/29/2014  16:35:00       47.903       90.007      117.969      119.398       67.985       52.100    14255.956     4621.987     2714.440        2.295        1.080      101.961       41.872        0.169      342.911       18.652      870.111
04/29/2014  16:36:00      167.835      148.925       77.217      107.185       82.797       64.611    11488.612     6855.406     4174.544        3.941        1.126      224.382       53.308        0.056      342.904       18.637      870.111
04/29/2014  16:37:00       91.383      101.719      112.361       91.738       78.289       63.477     8415.868     6129.238     4029.388        2.494        0.929      136.739       45.294        0.110      342.892       18.617      870.106
04/29/2014  16:38:00      217.418      -72.763       57.712      162.120      165.631      114.333    26282.821    27433.695    13072.071        6.133        3.339      229.271      117.119        0.261      343.295       19.303      870.076
04/29/2014  16:39:00      152.022      154.833      112.263      113.618      110.556       90.200    12909.030    12222.597     8135.958        4.647        1.663      216.988       74.749        0.119      343.363       19.419      870.102
04/29/2014  16:40:00      108.278       78.369       63.644      112.851       91.710       85.385    12735.448     8410.814     7290.664        2.517        1.422      133.663       65.456        0.240      343.436       19.546      870.138
04/29/2014  16:41:00      110.367      -53.612       21.804       96.948      130.772       59.851     9399.005    17101.425     3582.084        2.280        1.504      122.700       64.816        0.279      343.117       19.002      870.114
04/29/2014  16:42:00      226.858      123.553       71.652      126.254      107.106       75.592    15940.188    11471.797     5714.111        5.249        1.656      258.321       60.894        0.056      343.101       18.971      870.101
04/29/2014  16:43:00      163.639      106.036       88.541      149.262      120.868       87.996    22279.196    14608.957     7743.244        4.524        2.232      194.991       75.158        0.149      343.142       19.042      870.095
04/29/2014  16:44:00      140.130       55.090      137.447      165.866      177.433      125.567    27511.462    31482.311    15767.033        5.815        3.738      150.570      126.226        0.703      343.244       19.217      870.069
04/29/2014  16:45:00       76.973       52.956       66.022      119.436      100.237       82.160    14265.045    10047.381     6750.319        2.207        1.553       93.430       60.940        0.425      343.265       19.254      870.098
04/29/2014  16:46:00      115.892      128.365      131.791      134.814      110.385       84.258    18174.881    12184.855     7099.469        4.236        1.873      172.941       76.723        0.197      342.925       18.673      870.093
04/29/2014  16:47:00      230.375      146.716      142.448      153.200      142.424      134.127    23470.214    20284.527    17989.920        7.830        3.087      273.127      104.249        0.146      343.040       18.867      870.062
04/29/2014  16:48:00      124.321       24.786       76.239      133.690       97.235       66.166    17873.045     9454.734     4377.887        2.679        1.585      126.767       60.837        0.230      343.233       19.199      870.078
04/29/2014  16:49:00       87.309        8.589       72.056       87.116      123.114       95.127     7589.236    15157.095     9049.079        2.234        1.590       87.731       86.542        0.973      343.199       19.141      870.085
04/29/2014  16:50:00      173.440        4.264       98.358      217.553      161.212      121.164    47329.356    25989.465    14680.601        6.387        4.400      173.492       99.330        0.328      343.310       19.329      870.047
04/29/2014  16:51:00      254.005      161.877      129.586      157.965      131.897      114.564    24952.800    17396.780    13124.963        8.148        2.774      301.202       95.743        0.101      343.248       19.223      870.087
04/29/2014  16:52:00      164.029       85.371      135.362      148.739      205.132      121.343    22123.300    42079.281    14724.233        6.571        3.946      184.916      115.025        0.387      342.874       18.587      870.099
04/29/2014  16:53:00      274.041      157.630       54.993      182.797      126.231       93.335    33414.838    15934.338     8711.421        8.050        2.903      316.142       73.958        0.055      343.096       18.964      870.104
04/29/2014  16:54:00      359.015      186.340       57.853      171.509      126.043       82.861    29415.296    15886.861     6865.913       10.955        2.608      404.492       62.166        0.024      343.049       18.884      870.095
04/29/2014  16:55:00      113.360       83.064       89.345      107.583       82.762       67.842    11574.026     6849.599     4602.478        2.537        1.151      140.535       58.504        0.173      343.162       19.077      870.089
04/29/2014  16:56:00       73.247      -18.244       39.140       76.393       98.475       59.278     5835.909     9697.295     3513.939        1.313        0.952       75.485       53.225        0.497      343.128       19.022      870.073
04/29/2014  16:57:00      132.560       78.436        7.633      107.982       89.061       70.923    11660.045     7931.870     5030.065        2.420        1.231      154.027       50.882        0.109      343.333       19.368      870.049
04/29/2014  16:58:00      127.758      105.556       98.365      118.234      108.253       75.705    13979.330    11718.631     5731.208        3.428        1.571      165.723       64.900        0.153      343.521       19.689      870.054
04/29/2014  16:59:00      261.281      100.537       91.371      182.620      133.788      117.175    33349.990    17899.337    13730.095        7.584        3.249      279.956       85.160        0.093      343.164       19.079      870.029
04/29/2014  17:00:00       77.858      -27.741       70.600       99.501       88.651       63.236     9900.487     7859.085     3998.730        1.678        1.088       82.652       39.429        0.228      343.035       18.861      870.024
04/29/2014  17:01:00      154.192      -51.765       95.871      126.274      188.046      106.926    15944.998    35361.288    11433.163        4.918        3.137      162.649      123.011        0.572      343.127       19.018      870.008
04/29/2014  17:02:00      184.479       61.992       94.945      171.216      155.855      104.661    29314.899    24290.667    10953.877        5.571        3.228      194.616       90.821        0.218      342.993       18.791      870.025
04/29/2014  17:03:00      230.184      148.622       99.462      155.958      112.112      121.361    24322.903    12568.994    14728.608        6.828        2.581      273.995       80.267        0.086      343.090       18.954      870.032
04/29/2014  17:04:00      314.165      179.384       90.775      147.037      133.805      112.357    21619.766    17903.817    12624.091        9.562        2.607      361.771       95.260        0.069      343.075       18.927      870.032
04/29/2014  17:05:00      226.451      134.535       61.830      205.234      134.261      104.897    42120.802    18026.141    11003.424        7.216        3.558      263.400       91.332        0.120      343.125       19.014      870.026
04/29/2014  17:06:00      191.386      167.136      156.981      159.216      119.964      110.125    25349.886    14391.384    12127.618        7.053        2.593      254.093       77.966        0.094      343.088       18.952      870.022
04/29/2014  17:07:00      282.696      128.802      111.829      152.689      119.532       94.694    23313.921    14287.880     8966.974        7.778        2.328      310.655       79.035        0.065      343.100       18.970      870.024
04/29/2014  17:08:00      221.308      140.494       89.832      135.182      107.852       89.708    18274.128    11632.047     8047.540        5.736        1.898      262.137       71.265        0.074      343.046       18.877      870.029
04/29/2014  17:09:00       97.891       71.148      115.589      121.781       86.803       78.813    14830.529     7534.836     6211.539        2.829        1.429      121.015       72.743        0.361      343.163       19.079      870.005
04/29/2014  17:10:00      110.001      111.344       73.443      123.386       95.383       93.534    15224.016     9097.839     8748.592        3.147        1.654      156.517       74.984        0.230      343.293       19.300      869.985
04/29/2014  17:11:00      136.151      138.517      128.010      151.211      118.942       81.687    22864.749    14147.260     6672.710        4.889        2.184      194.227       76.439        0.155      343.451       19.568      870.021
04/29/2014  17:12:00      308.720      129.613       44.790      180.262      146.258      109.584    32494.493    21391.528    12008.718        8.999        3.295      334.825       84.245        0.063      343.194       19.131      870.008
04/29/2014  17:13:00      324.854      167.219       85.922      165.106      140.125       94.443    27259.943    19634.890     8919.537        9.833        2.791      365.366       92.193        0.064      343.094       18.958      870.001
04/29/2014  17:14:00      164.275      127.598      138.520      139.842      126.433       86.938    19555.780    15985.401     7558.183        5.277        2.155      208.009       75.554        0.132      343.214       19.165      870.015
04/29/2014  17:15:00      182.157      115.108       92.697      133.571      102.153       79.165    17841.139    10435.167     6267.108        4.478        1.727      215.479       57.567        0.071      343.109       18.988      870.047
04/29/2014  17:16:00      140.981       86.817       70.329       96.696       77.690       69.528     9350.055     6035.759     4834.108        2.629        1.011      165.568       52.508        0.101      342.855       18.554      870.025
04/29/2014  17:17:00       87.659     -118.329        2.837      110.928      108.796       63.062    12304.966    11836.641     3976.764        2.490        1.406      147.261       65.448        0.198      343.157       19.068      870.016
04/29/2014  17:18:00       83.331     -165.845       18.814      108.074      141.084       76.626    11680.081    19904.693     5871.599        3.612        1.873      185.603       68.428        0.136      343.328       19.360      869.996
04/29/2014  17:19:00       69.867       60.027       71.246      109.464       89.852       77.828    11982.354     8073.461     6057.173        1.983        1.306       92.112       70.989        0.594      343.332       19.368      870.010
04/29/2014  17:20:00      128.276       -2.350       44.725       87.392      102.676       58.193     7637.339    10542.422     3386.441        2.001        1.078      128.298       54.197        0.178      343.418       19.514      870.000
04/29/2014  17:21:00      129.717       77.671       85.006      122.705      101.977       78.235    15056.448    10399.398     6120.701        3.082        1.579      151.193       58.665        0.151      343.533       19.709      869.999
04/29/2014  17:22:00      163.727      127.636      145.244      132.468      169.091      100.170    17547.738    28591.665    10034.057        6.017        2.809      207.599       91.401        0.194      343.231       19.194      870.014
04/29/2014  17:23:00      111.866       52.990       85.750       86.021      129.645       84.739     7399.599    16807.826     7180.775        2.703        1.569      123.782       89.416        0.522      342.965       18.742      870.017
04/29/2014  17:24:00       49.041      -47.041       23.347       72.807       76.475       56.197     5300.849     5848.475     3158.062        0.973        0.715       67.955       52.171        0.589      343.004       18.811      869.981
04/29/2014  17:25:00       27.524       26.227       72.651       65.055      108.017       67.288     4232.157    11667.719     4527.631        1.357        1.021       38.019       72.905        3.677      343.337       19.376      869.972
04/29/2014  17:26:00       64.248      -59.357       40.455       71.068       83.277       40.360     5050.611     6935.091     1628.909        1.145        0.681       87.471       33.544        0.147      343.373       19.438      869.959
04/29/2014  17:27:00       69.407      -40.638       22.632       65.157       91.585       56.772     4245.472     8387.803     3223.087        1.142        0.793       80.428       55.959        0.484      343.266       19.256      869.953
04/29/2014  17:28:00       57.361      -36.683       38.390       72.283       94.121       51.921     5224.795     8858.851     2695.749        1.144        0.839       68.088       35.917        0.278      343.402       19.488      869.956
04/29/2014  17:29:00       88.470       43.492       91.867       94.046      158.106       83.756     8844.633    24997.587     7015.000        2.950        2.043       98.583       90.840        0.849      343.526       19.696      869.948
04/29/2014  17:30:00       63.741       79.398      104.169      122.477      100.834       84.527    15000.590    10167.596     7144.826        2.676        1.616      101.819       73.694        0.524      343.546       19.733      869.958
04/29/2014  17:31:00      131.844       76.062      136.839      180.542      140.410      113.585    32595.440    19715.017    12901.626        5.354        3.261      152.211      114.546        0.566      343.357       19.408      869.956
04/29/2014  17:32:00      126.535       46.649      132.832      157.604      166.519       89.109    24838.956    27728.633     7940.473        4.816        3.025      134.860      102.888        0.582      343.256       19.237      869.955
04/29/2014  17:33:00      170.012      111.261      176.770      182.846      215.938      150.293    33432.675    46629.432    22587.980        8.757        5.133      203.183      129.524        0.406      343.369       19.429      869.932
04/29/2014  17:34:00      163.998      122.632      186.312      157.080      141.317      113.650    24674.127    19970.591    12916.417        6.709        2.878      204.778      106.666        0.271      343.105       18.980      869.931
04/29/2014  17:35:00      251.639      179.616      176.681      181.591      185.399      148.459    32975.169    34372.823    22040.151       10.808        4.469      309.167      138.216        0.200      342.938       18.695      869.934
04/29/2014  17:36:00      186.998      161.216      179.244      165.195      183.735      128.898    27289.309    33758.609    16614.625        8.536        3.883      246.898      106.956        0.188      343.049       18.885      869.927
04/29/2014  17:37:00       75.800       52.513      104.791      108.206      143.191       88.166    11708.497    20503.725     7773.205        2.973        1.999       92.213       94.179        1.043      343.230       19.192      869.916
04/29/2014  17:38:00       90.141       35.021       99.611       94.660      144.218       95.443     8960.562    20798.829     9109.313        2.906        1.943       96.705      101.156        1.094      343.345       19.389      869.912
04/29/2014  17:39:00      209.712      177.101      126.451      143.925      107.114       86.094    20714.477    11473.449     7412.137        6.546        1.980      274.488       67.368        0.060      343.283       19.282      869.929
04/29/2014  17:40:00      172.981      135.678      123.176      127.907      133.852       98.477    16360.319    17916.414     9697.813        5.373        2.199      219.843       87.283        0.158      343.065       18.912      869.931
04/29/2014  17:41:00      156.856      129.444      122.625      155.701      107.211      104.957    24242.957    11494.253    11015.944        5.157        2.338      203.371       79.952        0.155      343.101       18.973      869.921
04/29/2014  17:42:00      182.540      115.318      127.077      144.466      114.266       98.368    20870.562    13056.779     9676.313        5.318        2.180      215.915       61.245        0.080      343.158       19.068      869.926
04/29/2014  17:43:00      215.455      224.575      220.846      178.257      153.415      122.477    31775.577    23536.076    15000.519       10.796        3.516      311.215       96.905        0.097      343.092       18.956      869.930
04/29/2014  17:44:00      166.984      -17.491      117.819      160.348      182.460      131.152    25711.632    33291.806    17200.906        5.912        3.810      167.898      141.982        0.715      343.167       19.084      869.945
04/29/2014  17:45:00      105.461     -116.437       60.449      117.336      162.446       96.656    13767.627    26388.680     9342.357        3.891        2.475      157.098       85.729        0.298      343.262       19.247      869.952
04/29/2014  17:46:00      107.014        6.157       75.552      120.139      117.369       78.839    14433.319    13775.419     6215.614        2.580        1.721      107.191       81.718        0.581      343.071       18.923      869.943
04/29/2014  17:47:00      101.734       12.605       66.339       88.751       93.423       61.430     7876.696     8727.867     3773.591        1.764        1.019      102.512       45.288        0.195      343.149       19.056      869.915
04/29/2014  17:48:00       50.233       50.543       82.390       82.651       85.763       45.803     6831.207     7355.291     2097.933        1.407        0.814       71.260       47.548        0.445      343.078       18.936      869.888
04/29/2014  17:49:00      190.690      -17.100       76.986      169.145      234.874      125.861    28609.991    55165.675    15841.111        7.108        4.981      191.455      141.138        0.543      343.161       19.075      869.879
04/29/2014  17:50:00      283.602      157.958      134.725      187.133      144.623      106.787    35018.744    20915.701    11403.511        9.542        3.367      324.624       81.141        0.062      343.058       18.897      869.870
04/29/2014  17:51:00      259.637      179.320       92.474      131.886       96.646       85.242    17393.944     9340.522     7266.203        7.105        1.700      315.542       56.314        0.032      343.264       19.250      869.886
04/29/2014  17:52:00      183.594      128.889       58.989       94.813       83.046       54.168     8989.599     6896.670     2934.120        3.631        0.941      224.319       41.393        0.034      343.416       19.508      869.891
04/29/2014  17:53:00      260.862      177.094       74.351       94.386       83.799       69.702     8908.706     7022.335     4858.418        6.286        1.039      315.296       32.918        0.011      343.237       19.203      869.893
04/29/2014  17:54:00      274.460      144.410       81.370      138.651       99.933       85.721    19224.139     9986.680     7348.128        6.967        1.828      310.133       29.197        0.009      343.241       19.210      869.866
04/29/2014  17:55:00      245.534      165.211      144.626      204.473      159.278      122.434    41809.115    25369.544    14990.110        9.532        4.108      295.942      133.919        0.205      343.128       19.016      869.828
04/29/2014  17:56:00      310.381      186.836       93.560      184.490      104.474       83.206    34036.569    10914.830     6923.240        9.593        2.594      362.276       75.595        0.044      343.123       19.009      869.848
04/29/2014  17:57:00      256.497      167.612       89.650      190.923      108.643      110.355    36451.620    11803.270    12178.212        8.117        3.022      306.406       86.841        0.080      343.257       19.238      869.822
04/29/2014  17:58:00      194.895       18.416       85.206      136.866      143.724      106.178    18732.215    20656.625    11273.836        4.811        2.533      195.764       68.524        0.123      343.048       18.881      869.847
04/29/2014  17:59:00      171.636      -66.314       71.062      167.290      137.664       85.181    27985.896    18951.334     7255.859        4.654        2.710      184.002       77.852        0.179      343.122       19.009      869.842
04/29/2014  18:00:00       63.339       75.668       99.045       76.810      103.926       62.231     5899.704    10800.634     3872.697        2.006        1.029       98.679       55.623        0.318      343.099       18.970      869.821
04/29/2014  18:01:00      217.407      149.182      113.625      131.425       96.796       92.199    17272.584     9369.528     8500.621        5.878        1.757      263.669       64.674        0.060      343.172       19.091      869.826
04/29/2014  18:02:00      342.228      148.998       89.297      220.651      131.991      129.935    48686.770    17421.679    16883.050       11.513        4.150      373.256      100.200        0.072      343.107       18.982      869.804
04/29/2014  18:03:00      196.276       85.607       52.259      118.224       99.304       79.324    13976.989     9861.250     6292.360        3.935        1.507      214.133       51.388        0.058      343.144       19.046      869.809
04/29/2014  18:04:00      109.672       84.797      107.614      149.237      103.164       88.225    22271.785    10642.899     7783.634        3.574        2.035      138.630       79.138        0.326      343.182       19.112      869.801
04/29/2014  18:05:00      306.614      210.410      129.562      243.406      129.749      111.403    59246.317    16834.680    12410.677       12.176        4.425      371.866       84.188        0.051      343.040       18.870      869.738
04/29/2014  18:06:00      273.530      155.678       86.474      175.191      142.469       92.067    30692.006    20297.550     8476.289        8.299        2.973      314.729       61.608        0.038      343.167       19.085      869.751
04/29/2014  18:07:00      263.925      140.264       65.092      148.792      120.995       97.270    22139.174    14639.671     9461.361        6.989        2.312      298.882       65.878        0.049      343.089       18.952      869.776
04/29/2014  18:08:00       48.023       61.975       91.637       61.773       57.025       40.482     3815.921     3251.824     1638.831        1.162        0.435       78.404       29.561        0.142      343.026       18.847      869.787
04/29/2014  18:09:00       77.281       -1.736       44.181       61.620       91.094       57.429     3797.074     8298.047     3298.129        1.166        0.770       77.301       52.177        0.456      343.032       18.857      869.776
04/29/2014  18:10:00       77.597      -18.583       24.617       86.118       99.789       56.089     7416.304     9957.862     3145.953        1.374        1.026       79.791       52.680        0.436      343.145       19.049      869.764
04/29/2014  18:11:00      102.750       50.320      110.417      144.768      121.992       91.446    20957.884    14882.028     8362.393        3.473        2.210      114.411       75.996        0.441      343.205       19.151      869.742
04/29/2014  18:12:00       71.118      -70.103       50.275       81.088      120.709       78.556     6575.273    14570.724     6171.060        1.990        1.366       99.861       70.430        0.497      343.222       19.179      869.742
04/29/2014  18:13:00      131.060       98.294      129.201      147.577      141.732       95.120    21779.093    20088.050     9047.728        4.721        2.546      163.825       95.620        0.341      343.196       19.134      869.754
04/29/2014  18:14:00       27.628        8.567       80.901       74.333      102.818       69.954     5525.385    10571.445     4893.519        1.418        1.050       28.925       57.996        4.020      343.337       19.378      869.767
04/29/2014  18:15:00      105.460       99.611      122.720      154.270      112.167       71.724    23799.198    12581.378     5144.275        3.881        2.076      145.066       59.774        0.170      343.180       19.108      869.766
04/29/2014  18:16:00       59.329       45.787       81.041       93.713      121.249       64.400     8782.165    14701.214     4147.339        1.990        1.382       74.943       73.148        0.953      343.195       19.134      869.767
04/29/2014  18:17:00      138.841       51.468       78.509      121.906      118.618       84.348    14861.101    14070.339     7114.524        3.206        1.802      148.073       81.895        0.306      343.061       18.906      869.750
04/29/2014  18:18:00      235.680       91.076       84.974      125.005      136.945       86.222    15626.231    18754.028     7434.164        5.643        2.091      252.665       72.547        0.082      343.112       18.989      869.765
04/29/2014  18:19:00      191.282       58.737      122.606      144.019      181.709      104.691    20741.487    33018.304    10960.166        5.988        3.236      200.098      115.656        0.334      342.969       18.747      869.753
04/29/2014  18:20:00      200.121      113.443      115.154      147.844      117.944       93.020    21857.938    13910.886     8652.721        5.529        2.221      230.039       85.643        0.139      342.969       18.749      869.772
04/29/2014  18:21:00       81.487       12.496      100.335       93.781      124.984       76.843     8794.800    15621.108     5904.827        2.359        1.516       82.440       60.201        0.533      342.982       18.771      869.758
04/29/2014  18:22:00      164.191      -81.342       48.909      104.897      116.367       83.394    11003.296    13541.388     6954.569        3.373        1.575      183.235       69.833        0.145      343.012       18.822      869.738
04/29/2014  18:23:00      124.118       54.651       69.762       88.477       99.245       60.315     7828.105     9849.641     3637.945        2.228        1.066      135.617       46.989        0.120      342.862       18.566      869.750
04/29/2014  18:24:00      203.052      147.453       77.204      139.016      117.290      100.826    19325.346    13756.895    10165.918        5.608        2.162      250.943       78.635        0.098      343.115       18.996      869.756
04/29/2014  18:25:00      207.383      126.576       41.217      139.980      122.540       92.374    19594.421    15016.130     8532.911        5.193        2.157      242.959       65.808        0.073      343.113       18.993      869.754
04/29/2014  18:26:00      213.966      148.919       86.601      138.836       96.914       74.752    19275.573     9392.308     5587.873        5.485        1.713      260.688       52.292        0.040      343.105       18.980      869.760
04/29/2014  18:27:00      293.181      162.004       49.034      145.125      101.706       91.065    21061.148    10344.175     8292.774        7.714        1.985      334.963       72.685        0.047      343.106       18.980      869.761
04/29/2014  18:28:00      211.857      126.851       32.647      112.013       84.629       75.727    12546.908     7162.143     5734.566        4.374        1.272      246.930       53.541        0.047      343.119       19.004      869.762
04/29/2014  18:29:00      191.476      132.256       80.090      159.632       89.028       90.552    25482.441     7925.968     8199.707        5.108        2.080      232.712       85.113        0.134      343.002       18.804      869.758
04/29/2014  18:30:00      151.926       92.542       44.965      112.107       73.743       62.543    12567.943     5438.050     3911.591        2.779        1.096      177.892       55.176        0.096      343.075       18.929      869.753
04/29/2014  18:31:00      297.101      155.427       76.939      134.492       99.970       84.266    18087.976     9993.986     7100.753        7.676        1.759      335.301       71.452        0.045      343.025       18.843      869.732
04/29/2014  18:32:00      295.259      121.426       72.508      172.599      126.557       92.395    29790.530    16016.662     8536.800        8.075        2.717      319.252       79.959        0.063      343.024       18.842      869.724
04/29/2014  18:33:00      231.286      127.416       73.784      114.266       80.450       68.862    13056.826     6472.147     4741.940        4.972        1.214      264.061       36.030        0.019      343.007       18.812      869.737
04/29/2014  18:34:00      280.990      138.900       46.904      111.872       92.460       76.573    12515.242     8548.769     5863.398        6.368        1.346      313.446       63.454        0.041      343.076       18.928      869.745
04/29/2014  18:35:00      238.843      135.290       53.384      185.467      135.809       94.355    34397.882    18444.210     8902.810        6.996        3.087      274.498       99.568        0.132      343.002       18.804      869.744
04/29/2014  18:36:00      155.788       79.292       86.515      136.755       84.367       63.279    18701.994     7117.758     4004.267        3.393        1.491      174.806       25.270        0.021      342.947       18.711      869.740
04/29/2014  18:37:00      125.818       93.212      117.490      112.878       89.834       76.343    12741.493     8070.216     5828.327        3.248        1.332      156.584       67.816        0.188      342.808       18.475      869.733
04/29/2014  18:38:00       86.227       77.355       86.121      103.059       75.465       51.541    10621.151     5694.998     2656.518        1.990        0.949      115.839       44.108        0.145      342.780       18.427      869.750
04/29/2014  18:39:00       73.479       70.103       63.816       74.876       60.513       56.466     5606.344     3661.790     3188.448        1.342        0.623      101.556       42.773        0.177      342.943       18.706      869.756
04/29/2014  18:40:00      113.927        1.436       58.701      113.279       89.613       73.511    12832.114     8030.497     5403.853        2.134        1.313      113.936       50.252        0.195      342.951       18.719      869.736
04/29/2014  18:41:00      128.036       -9.387       63.601      105.362      116.259       60.446    11101.090    13516.132     3653.755        2.439        1.414      128.379       66.418        0.268      343.054       18.894      869.713
04/29/2014  18:42:00      152.749       69.085       91.816      112.397       79.262       52.666    12633.142     6282.521     2773.710        2.911        1.084      167.646       45.682        0.074      342.878       18.595      869.710
04/29/2014  18:43:00       59.354       88.849       99.242       63.078       67.698       52.595     3978.794     4582.964     2766.182        1.629        0.566      106.851       39.208        0.135      342.890       18.614      869.720
04/29/2014  18:44:00      180.367      120.365      115.119      125.625      159.699       70.517    15781.673    25503.881     4972.580        5.326        2.313      216.841       62.874        0.084      343.037       18.864      869.700
04/29/2014  18:45:00       70.178       31.891       99.259      119.547      118.495       69.907    14291.426    14041.154     4886.929        2.450        1.661       77.084       74.978        0.946      343.027       18.847      869.691
04/29/2014  18:46:00      120.010        2.387       57.944      109.823      116.723       63.754    12061.146    13624.189     4064.542        2.375        1.487      120.034       53.856        0.201      342.995       18.795      869.710
04/29/2014  18:47:00      131.515       39.356       76.420      116.260      102.044       66.983    13516.303    10413.047     4486.659        2.654        1.421      137.277       60.463        0.194      342.812       18.482      869.726
04/29/2014  18:48:00      175.762      123.517      120.076      139.720      136.078       87.588    19521.722    18517.348     7671.689        5.313        2.286      214.822       80.512        0.140      342.779       18.425      869.726
04/29/2014  18:49:00       87.311      100.806      114.712      108.779       94.519       65.651    11832.937     8933.859     4310.028        2.801        1.254      133.361       63.158        0.224      342.716       18.319      869.719
04/29/2014  18:50:00      168.321       87.518       65.237      127.971       90.562       67.788    16376.576     8201.504     4595.234        3.470        1.459      189.714       60.586        0.102      342.859       18.560      869.716
04/29/2014  18:51:00      363.925      177.392       61.829      159.151      151.231       92.051    25329.139    22870.759     8473.423       11.219        2.834      404.858       65.381        0.026      343.015       18.825      869.715
04/29/2014  18:52:00      218.804       95.242       30.741      113.734       95.720       83.587    12935.444     9162.315     6986.806        4.348        1.454      238.634       60.151        0.064      342.937       18.693      869.718
04/29/2014  18:53:00      235.119      115.944       61.930      112.554      118.442       83.455    12668.377    14028.570     6964.799        5.310        1.683      262.153       66.769        0.065      342.850       18.545      869.723
04/29/2014  18:54:00      185.612      148.836      110.014      109.463       97.780       66.856    11982.207     9561.020     4469.662        4.735        1.301      237.916       61.656        0.067      342.830       18.512      869.726
04/29/2014  18:55:00      301.569      140.064       88.399      155.618      121.124      100.644    24216.882    14670.904    10129.285        8.369        2.451      332.509       88.230        0.070      342.958       18.729      869.705
04/29/2014  18:56:00      254.806      115.183       90.315      181.406      133.340      110.414    32907.959    17779.539    12191.169        7.460        3.144      279.630       96.459        0.119      342.858       18.559      869.709
04/29/2014  18:57:00      184.916       72.282       93.178      135.690      105.153       83.793    18411.865    11057.252     7021.184        4.229        1.825      198.541       63.335        0.102      342.776       18.419      869.715
04/29/2014  18:58:00       95.146        8.398      118.990      129.288      178.090       84.586    16715.423    31715.933     7154.876        3.942        2.779       95.516       92.870        0.945      342.826       18.504      869.713
04/29/2014  18:59:00       55.293       81.816      132.204       97.187      120.871       76.998     9445.393    14609.835     5928.719        2.860        1.499       98.748       73.170        0.549      342.792       18.447      869.693
04/29/2014  19:00:00      140.525       59.210       70.834      116.622      111.044       67.262    13600.759    12330.817     4524.194        2.936        1.523      152.489       53.995        0.125      342.763       18.398      869.693
04/29/2014  19:01:00       24.317       48.282       95.294       68.813       94.658       48.928     4735.183     8960.213     2393.938        1.404        0.804       54.060       47.995        0.788      342.812       18.483      869.687
04/29/2014  19:02:00      155.983      109.958       52.375       87.670       71.074       65.094     7686.108     5051.550     4237.221        2.807        0.849      190.844       25.337        0.018      342.957       18.728      869.708
04/29/2014  19:03:00      234.433       96.582       70.531      143.384       96.291       81.748    20558.861     9272.024     6682.793        5.288        1.826      253.548       73.815        0.085      342.935       18.690      869.702
04/29/2014  19:04:00      183.099       89.048       50.558       96.704      111.087       74.725     9351.574    12340.290     5583.791        3.564        1.364      203.604       66.380        0.106      342.807       18.472      869.692
04/29/2014  19:05:00      111.345      105.739      101.583      110.831      106.415       57.160    12283.459    11324.055     3267.319        3.038        1.344      153.553       46.226        0.091      342.793       18.449      869.709
04/29/2014  19:06:00      163.188      105.534      109.864       96.059      106.780       81.161     9227.283    11402.063     6587.169        3.852        1.361      194.339       74.174        0.146      342.767       18.403      869.719
04/29/2014  19:07:00      227.083      154.766      116.286      143.393       77.365       76.185    20561.623     5985.404     5804.171        6.069        1.618      274.807       73.431        0.071      342.815       18.485      869.717
04/29/2014  19:08:00      124.265      157.225      108.735      136.958      108.405       80.498    18757.568    11751.746     6479.917        4.448        1.849      200.403       79.918        0.159      342.840       18.528      869.721
04/29/2014  19:09:00       68.710       56.604       47.923       64.112       55.053       53.516     4110.300     3030.802     2863.972        1.011        0.500       89.023       33.106        0.138      342.774       18.418      869.743
04/29/2014  19:10:00       99.902      -64.016       53.470       96.758      117.687       71.133     9362.032    13850.319     5059.971        2.260        1.414      118.653       58.814        0.246      342.769       18.409      869.724
04/29/2014  19:11:00       88.110       64.999       99.681       94.791       97.682       68.879     8985.405     9541.842     4744.324        2.259        1.164      109.491       57.044        0.271      342.680       18.258      869.713
04/29/2014  19:12:00      171.868      -14.490       75.546      140.451      180.578       95.475    19726.487    32608.516     9115.475        4.844        3.073      172.477       98.716        0.328      342.714       18.313      869.708
04/29/2014  19:13:00      163.888     -127.464       26.396      109.265      152.434       66.344    11938.760    23236.245     4401.486        4.168        1.979      207.621       72.873        0.123      342.876       18.589      869.698
04/29/2014  19:14:00      129.265      -31.346       44.362      137.997      138.619       80.931    19043.300    19215.265     6549.835        3.223        2.240      133.011      100.738        0.574      342.737       18.353      869.712
04/29/2014  19:15:00      100.033       91.938      100.069      105.320       73.901       63.998    11092.238     5461.396     4095.805        2.456        1.032      135.865       52.735        0.151      342.621       18.156      869.711
04/29/2014  19:16:00      163.755      140.189      111.939      112.722       84.137       72.284    12706.344     7079.051     5224.999        4.200        1.251      215.566       61.100        0.080      342.764       18.400      869.730
04/29/2014  19:17:00      145.239      125.871      102.301      123.480      112.022       78.808    15247.316    12548.944     6210.664        4.070        1.700      192.193       64.798        0.114      342.693       18.279      869.747
04/29/2014  19:18:00       40.037      121.574      136.575       91.584      100.252       83.709     8387.715    10050.376     7007.165        3.024        1.272      127.997       69.484        0.295      342.740       18.359      869.760
04/29/2014  19:19:00      185.657      106.903      134.774      137.730      121.662       96.350    18969.463    14801.537     9283.334        5.355        2.153      214.235       78.329        0.134      342.583       18.093      869.775
04/29/2014  19:20:00      191.278      117.836       89.495      127.949      102.303       85.716    16370.825    10465.927     7347.233        4.633        1.709      224.661       69.563        0.096      342.679       18.255      869.795
04/29/2014  19:21:00      196.835       94.600       97.810      153.531      104.389       90.909    23571.675    10896.983     8264.502        4.999        2.137      218.388       86.540        0.157      342.700       18.290      869.796
04/29/2014  19:22:00      221.755      111.072       86.699      139.767      116.224       85.235    19534.849    13507.916     7265.003        5.466        2.015      248.016       68.790        0.077      342.711       18.309      869.810
04/29/2014  19:23:00      198.745      126.722       83.030      144.705       87.194       62.065    20939.678     7602.713     3852.009        4.742        1.620      235.708       64.744        0.075      342.611       18.140      869.817
04/29/2014  19:24:00      220.435      103.210       30.439      107.626       82.228       64.450    11583.406     6761.442     4153.738        4.133        1.125      243.400       40.118        0.027      342.685       18.265      869.811
04/29/2014  19:25:00      161.536       87.716      118.107      121.600      108.358       81.492    14786.506    11741.519     6640.923        4.045        1.658      183.815       48.303        0.069      342.510       17.968      869.799
04/29/2014  19:26:00      208.577      108.892       64.783      112.476       98.161       76.012    12650.959     9635.556     5777.884        4.381        1.403      235.291       55.734        0.056      342.673       18.245      869.804
04/29/2014  19:27:00      152.410      108.076       66.004      121.252      100.922       67.854    14701.984    10185.319     4604.218        3.437        1.475      186.840       57.636        0.095      342.689       18.273      869.804
04/29/2014  19:28:00       87.006       66.998       74.263       82.605       42.767       45.690     6823.511     1829.009     2087.617        1.415        0.537      109.813       48.508        0.195      342.364       17.721      869.812
04/29/2014  19:29:00       84.824       48.494       75.650       94.699      101.071       53.873     8967.817    10215.401     2902.283        1.867        1.104       97.708       55.420        0.322      342.350       17.697      869.816
04/29/2014  19:30:00       79.076       43.476      104.354       79.389      102.326       53.720     6302.639    10470.551     2885.796        1.934        0.983       90.239       48.984        0.295      342.466       17.894      869.793
04/29/2014  19:31:00       87.216       84.746      117.548       68.410       83.108       56.590     4679.944     6906.903     3202.481        2.169        0.739      121.608       42.252        0.121      342.449       17.866      869.794
04/29/2014  19:32:00      144.575      -16.226       36.911      106.725       84.157       64.081    11390.274     7082.463     4106.400        2.255        1.129      145.483       54.562        0.141      342.513       17.973      869.786
04/29/2014  19:33:00      162.432       91.344       62.192      105.820       71.753       68.064    11197.827     5148.549     4632.682        2.978        1.049      186.354       45.580        0.060      342.505       17.959      869.809
04/29/2014  19:34:00      130.560       48.834      113.305      122.067      161.718       91.978    14900.448    26152.633     8460.000        4.088        2.476      139.393       96.051        0.475      342.301       17.614      869.803
04/29/2014  19:35:00      153.508       21.618       56.018       97.936      136.805       69.449     9591.514    18715.645     4823.219        3.014        1.657      155.022       46.495        0.090      342.524       17.993      869.782
04/29/2014  19:36:00      124.301       68.947       35.648       89.068       78.075       73.352     7933.070     6095.751     5380.555        2.044        0.970      142.142       52.045        0.134      342.402       17.785      869.829
04/29/2014  19:37:00      108.062       68.725       21.696       67.770       93.342       60.545     4592.828     8712.690     3665.658        1.692        0.849      128.064       58.011        0.205      342.482       17.922      869.857
04/29/2014  19:38:00      100.092       21.720       61.653       98.021       53.395       46.084     9608.061     2850.996     2123.740        1.443        0.729      102.422       33.690        0.108      342.284       17.584      869.872
04/29/2014  19:39:00      105.847       13.376       64.563       86.340      118.904       75.992     7454.657    14138.172     5774.789        2.145        1.368      106.689       83.970        0.619      342.283       17.583      869.875
04/29/2014  19:40:00      116.608       51.555      103.162      114.214       90.679       66.755    13044.824     8222.596     4456.256        2.631        1.286      127.497       53.582        0.177      342.424       17.823      869.897
04/29/2014  19:41:00      176.680       71.607       85.570      102.093       94.325       85.135    10422.999     8897.277     7247.897        3.511        1.328      190.639       60.126        0.099      342.448       17.863      869.914
04/29/2014  19:42:00      158.009      131.213      127.437      120.106       89.768       80.880    14425.331     8058.332     6541.616        4.372        1.451      205.386       58.755        0.082      342.332       17.665      869.928
04/29/2014  19:43:00      140.454       77.204       83.962      116.194      116.073       91.664    13500.974    13473.027     8402.293        3.405        1.769      160.274       79.686        0.247      342.378       17.742      869.945
04/29/2014  19:44:00      180.684      126.162      105.260      131.933      103.379       95.773    17406.365    10687.120     9172.478        4.845        1.863      220.372       72.571        0.108      342.411       17.801      869.945
04/29/2014  19:45:00      185.274      147.114       91.574      145.027      107.240       79.034    21032.734    11500.498     6246.416        5.156        1.939      236.578       53.336        0.051      342.598       18.116      869.951
04/29/2014  19:46:00      224.522      149.593       88.327      111.387       74.091       68.677    12406.957     5489.439     4716.598        5.160        1.131      269.793       54.889        0.041      342.469       17.897      869.961
04/29/2014  19:47:00      213.488      104.027       61.328      119.535       99.626       90.672    14288.652     9925.390     8221.379        4.629        1.622      237.484       43.678        0.034      342.550       18.035      869.962
04/29/2014  19:48:00      113.598      102.541       76.998      123.983       74.002       70.549    15371.849     5476.309     4977.192        2.758        1.291      153.034       63.278        0.171      342.417       17.810      869.985
04/29/2014  19:49:00      147.370      108.562       90.639       91.645       87.393       69.496     8398.862     7637.547     4829.673        3.129        1.043      183.039       50.269        0.075      342.358       17.709      869.977
04/29/2014  19:50:00      190.349      103.945       77.905       80.498       61.513       50.760     6479.887     3783.832     2576.560        3.297        0.642      216.881       33.668        0.024      342.343       17.683      870.004
04/29/2014  19:51:00      116.216       85.666       67.342       91.577       61.000       49.800     8386.268     3721.051     2480.044        1.998        0.729      144.377       41.650        0.083      342.335       17.672      870.016
04/29/2014  19:52:00      129.882      109.270       98.743       89.228       87.424       59.772     7961.592     7642.914     3572.653        2.886        0.959      169.733       47.013        0.077      342.244       17.515      869.995
04/29/2014  19:53:00      177.936      130.303       74.681      108.747       69.327       61.265    11825.894     4806.279     3753.459        3.730        1.019      220.545       46.321        0.044      342.433       17.835      869.999
04/29/2014  19:54:00      210.269      110.750       44.341      115.356       79.794       60.530    13307.062     6367.090     3663.857        4.089        1.167      237.652       49.173        0.043      342.466       17.892      869.994
04/29/2014  19:55:00      141.632      137.547      137.202      104.932       86.473       76.885    11010.823     7477.603     5911.360        4.110        1.220      197.431       67.702        0.118      342.267       17.554      869.975
04/29/2014  19:56:00      172.615       96.091       60.358       88.885       48.577       59.599     7900.620     2359.691     3552.024        2.824        0.691      197.558       44.658        0.051      342.389       17.761      869.973
04/29/2014  19:57:00      168.868       50.151       73.134      147.380       73.004       71.394    21720.946     5329.518     5097.147        3.426        1.607      176.157       53.923        0.094      342.350       17.695      869.974
04/29/2014  19:58:00      262.165      134.921       59.151      107.806       66.913       65.296    11622.129     4477.358     4263.623        5.539        1.018      294.846       51.214        0.030      342.345       17.687      869.974
04/29/2014  19:59:00      238.279      101.765       63.709      149.878      100.341       84.299    22463.319    10068.358     7106.385        5.541        1.982      259.100       77.353        0.089      342.337       17.673      869.956
04/29/2014  20:00:00      169.019       85.241       60.636      111.981       72.339       46.729    12539.825     5232.939     2183.571        2.973        0.998      189.297       47.792        0.064      342.318       17.641      869.957
04/29/2014  20:01:00      174.857       97.160       88.996      139.678       81.916       74.147    19509.991     6710.176     5497.836        3.982        1.586      200.038       54.334        0.074      342.123       17.310      869.965
04/29/2014  20:02:00      183.448       70.699       75.261      119.186       70.812       69.621    14205.372     5014.329     4847.063        3.419        1.203      196.600       55.590        0.080      342.262       17.545      869.968
04/29/2014  20:03:00      262.222      141.376       73.208      164.596      108.159       87.645    27091.848    11698.414     7681.666        7.028        2.324      297.905       69.042        0.054      342.316       17.637      869.980
04/29/2014  20:04:00      139.093      119.814       84.786      127.882       83.522       77.380    16353.765     6975.885     5987.682        3.510        1.466      183.582       76.028        0.172      342.341       17.681      869.978
04/29/2014  20:05:00      167.328      125.528       95.012       95.934       69.674       63.157     9203.328     4854.476     3988.861        3.541        0.902      209.179       48.257        0.053      342.246       17.518      870.000
04/29/2014  20:06:00      154.969       99.391       88.064      125.357       83.171       70.250    15714.304     6917.414     4935.130        3.460        1.378      184.103       57.438        0.097      342.230       17.492      870.013
04/29/2014  20:07:00      147.271      114.875       82.212       75.768       56.208       66.996     5740.765     3159.378     4488.443        2.751        0.669      186.775       41.461        0.049      342.260       17.541      870.026
04/29/2014  20:08:00      126.083       98.218      107.176       98.824       79.248       55.155     9766.116     6280.279     3042.115        2.806        0.954      159.824       44.262        0.077      342.203       17.445      870.023
04/29/2014  20:09:00      200.466       81.991       86.474      139.925       97.971       79.489    19579.110     9598.270     6318.551        4.493        1.775      216.585       69.592        0.103      342.233       17.496      870.012
04/29/2014  20:10:00      286.550      164.076       70.717      118.731       75.313       70.412    14097.023     5672.083     4957.867        6.937        1.236      330.199       65.020        0.039      342.393       17.768      870.000
04/29/2014  20:11:00      202.414      109.170       90.443      127.653       93.094       77.620    16295.381     8666.462     6024.880        4.602        1.549      229.977       52.571        0.052      342.216       17.466      870.001
04/29/2014  20:12:00      111.408       95.610       84.897       73.580       69.425       65.352     5414.089     4819.806     4270.829        2.163        0.725      146.809       52.333        0.127      342.088       17.251      870.007
04/29/2014  20:13:00      172.481       96.654       56.105       65.379       49.368       49.475     4274.435     2437.180     2447.766        2.570        0.458      197.716       34.340        0.030      342.135       17.330      870.027
04/29/2014  20:14:00      199.537      111.763       51.678       92.354       60.113       47.990     8529.207     3613.621     2303.000        3.471        0.722      228.705       44.828        0.038      342.125       17.313      870.022
04/29/2014  20:15:00       94.049       26.305       30.132       75.521       78.634       51.086     5703.352     6183.240     2609.790        1.247        0.725       97.659       42.929        0.193      342.092       17.260      870.024
04/29/2014  20:16:00      164.622      156.491       99.567       90.665       83.764       76.668     8220.061     7016.425     5877.971        4.130        1.056      227.134       58.742        0.067      342.123       17.309      870.031
04/29/2014  20:17:00      177.559       88.500       53.263      112.025       71.080       64.620    12549.640     5052.410     4175.739        3.198        1.089      198.392       54.722        0.076      342.159       17.369      870.038
04/29/2014  20:18:00      141.189      115.637       85.369       73.996       54.698       39.913     5475.442     2991.908     1593.059        2.533        0.503      182.499       12.078        0.004      342.048       17.183      870.052
04/29/2014  20:19:00      158.109       94.856       75.292       89.236       73.036       70.922     7963.001     5334.248     5029.989        2.899        0.916      184.380       47.649        0.067      341.962       17.036      870.062
04/29/2014  20:20:00      205.294      122.869       43.894      113.179       77.476       68.877    12809.476     6002.499     4744.089        4.136        1.178      239.254       54.356        0.052      342.199       17.437      870.071
04/29/2014  20:21:00      136.682      103.894       68.065       70.355       51.314       49.664     4949.866     2633.173     2466.497        2.208        0.502      171.686       36.481        0.045      341.949       17.014      870.064
04/29/2014  20:22:00      262.690       83.436       34.894      148.827       93.868       71.551    22149.524     8811.234     5119.474        5.663        1.804      275.622       49.654        0.032      342.186       17.416      870.075
04/29/2014  20:23:00      140.248      111.442       77.585       94.635       57.010       53.519     8955.690     3250.094     2864.294        2.659        0.754      179.134       55.907        0.097      342.233       17.497      870.061
04/29/2014  20:24:00      196.450      109.753       69.009      117.059       64.354       69.778    13702.742     4141.434     4868.969        3.905        1.136      225.030       58.865        0.068      342.176       17.400      870.063
04/29/2014  20:25:00      219.227      129.672       57.189       64.005       48.768       45.196     4096.593     2378.330     2042.704        3.833        0.426      254.706       18.781        0.005      342.161       17.374      870.068
04/29/2014  20:26:00      159.535      101.751       51.830       70.550       58.230       43.645     4977.241     3390.682     1904.918        2.438        0.514      189.221       30.975        0.027      341.991       17.087      870.074
04/29/2014  20:27:00      188.373      127.439       86.872       92.822       75.935       61.038     8615.921     5766.076     3725.634        3.869        0.905      227.432       50.003        0.048      342.041       17.171      870.076
04/29/2014  20:28:00      237.331      120.063       68.612      126.586       81.271       85.791    16024.051     6604.921     7360.045        5.271        1.499      265.972       76.785        0.083      342.120       17.305      870.089
04/29/2014  20:29:00      167.885      134.931       85.837       98.273       58.267       64.088     9657.501     3395.059     4107.228        3.546        0.858      215.388       66.560        0.095      341.996       17.093      870.105
04/29/2014  20:30:00      143.788       73.307       62.293       75.471       52.931       52.552     5695.865     2801.708     2761.745        2.059        0.563      161.397       33.564        0.043      342.049       17.185      870.128
04/29/2014  20:31:00      159.574       77.653       32.751       83.336       68.441       50.038     6944.941     4684.171     2503.754        2.335        0.707      177.465       36.283        0.042      342.041       17.171      870.145
04/29/2014  20:32:00      147.583       96.138       55.951      104.358       61.794       59.167    10890.579     3818.450     3500.719        2.618        0.910      176.134       61.792        0.123      341.864       16.869      870.169
04/29/2014  20:33:00      213.870      121.381       56.182       84.054       72.661       56.513     7065.094     5279.647     3193.669        3.958        0.777      245.914       40.522        0.027      341.985       17.075      870.174
04/29/2014  20:34:00      162.644       55.779       55.733       99.981       67.990       60.920     9996.266     4622.585     3711.236        2.550        0.917      171.943       57.952        0.114      341.977       17.063      870.185
04/29/2014  20:35:00      109.916      105.280       85.483      103.024       73.459       63.328    10613.940     5396.291     4010.376        2.524        1.001      152.202       62.168        0.167      341.854       16.854      870.186
04/29/2014  20:36:00      122.406       88.446       67.019       75.209       40.313       44.659     5656.402     1625.117     1994.432        1.828        0.464      151.017       40.627        0.072      341.911       16.950      870.195
04/29/2014  20:37:00      136.233       70.531       53.128       97.254       62.582       51.515     9458.355     3916.465     2653.824        2.119        0.801      153.408       44.249        0.083      341.764       16.701      870.202
04/29/2014  20:38:00      130.978       89.024       54.251       51.874       40.946       48.172     2690.917     1676.545     2320.532        1.735        0.334      158.369       32.340        0.042      341.723       16.634      870.223
04/29/2014  20:39:00      146.920      107.056       74.769       84.298       64.772       61.486     7106.124     4195.370     3780.514        2.686        0.754      181.787       41.130        0.051      341.698       16.590      870.230
04/29/2014  20:40:00      190.291      104.455       40.760       72.637       54.246       52.278     5276.189     2942.664     2732.988        2.987        0.548      217.075       22.200        0.010      341.992       17.088      870.236
04/29/2014  20:41:00      123.998       71.867       47.734       73.238       59.164       41.104     5363.861     3500.438     1689.554        1.668        0.528      143.320       22.352        0.024      341.738       16.657      870.250
04/29/2014  20:42:00      135.636       81.228       44.610       55.348       60.672       46.066     3063.382     3681.071     2122.075        1.792        0.443      158.098       30.342        0.037      341.650       16.510      870.251
04/29/2014  20:43:00      142.485       50.507       23.539       67.938       59.208       48.012     4615.541     3505.630     2305.127        1.691        0.521      151.172       37.260        0.061      341.771       16.714      870.267
04/29/2014  20:44:00      148.597       96.568       66.318       75.338       62.210       45.171     5675.779     3870.091     2040.387        2.369        0.579      177.219       33.374        0.035      341.757       16.690      870.271
04/29/2014  20:45:00      121.887       96.650       63.346       70.453       43.981       40.365     4963.651     1934.355     1629.354        1.837        0.426      155.555       35.647        0.053      341.719       16.624      870.278
04/29/2014  20:46:00      119.273       90.229       70.238       68.322       59.000       47.627     4667.858     3481.013     2268.332        1.886        0.521      149.557       39.062        0.068      341.756       16.687      870.290
04/29/2014  20:47:00      198.073      121.631       49.560       61.710       34.546       45.656     3808.160     1193.447     2084.483        3.178        0.354      232.437       28.197        0.015      341.847       16.840      870.286
04/29/2014  20:48:00      151.259      120.172       93.826       79.531       58.393       48.857     6325.152     3409.800     2387.041        2.912        0.606      193.185       28.884        0.022      341.849       16.843      870.291
04/29/2014  20:49:00      118.374       96.130       72.398       72.867       62.025       44.951     5309.606     3847.072     2020.630        1.983        0.559      152.490       40.566        0.071      341.667       16.535      870.316
04/29/2014  20:50:00      100.777       87.749       74.083       55.432       56.327       40.936     3072.759     3172.786     1675.768        1.563        0.396      133.626       27.286        0.042      341.802       16.766      870.327
04/29/2014  20:51:00      151.650       80.701       63.684      104.587       70.250       58.353    10938.517     4935.013     3405.097        2.642        0.964      171.786       48.081        0.078      341.849       16.846      870.342
04/29/2014  20:52:00      137.298      109.651       57.357       80.242       60.037       50.642     6438.737     3604.395     2564.600        2.338        0.630      175.710       30.285        0.030      341.780       16.729      870.364
04/29/2014  20:53:00      184.067      102.983       78.270       81.575       75.170       68.601     6654.419     5650.495     4706.069        3.381        0.851      210.917       49.004        0.054      341.790       16.743      870.374
04/29/2014  20:54:00      196.881      102.493       57.546       92.171       79.290       61.132     8495.427     6286.941     3737.176        3.555        0.926      221.961       47.616        0.046      341.678       16.555      870.396
04/29/2014  20:55:00      193.433      146.343       81.786       89.873       69.831       60.294     8077.180     4876.416     3635.375        4.105        0.829      242.555       44.045        0.033      341.778       16.724      870.413
04/29/2014  20:56:00      166.082      120.388       86.484       63.538       58.162       51.605     4037.107     3382.839     2663.096        2.982        0.504      205.125       30.391        0.022      341.752       16.679      870.426
04/29/2014  20:57:00      166.000       91.782       47.124       68.395       55.239       44.295     4677.941     3051.358     1962.020        2.394        0.485      189.683       24.006        0.016      341.699       16.593      870.453
04/29/2014  20:58:00      161.865      116.643       43.734       73.665       51.833       50.954     5426.521     2686.687     2596.336        2.621        0.535      199.514       41.828        0.044      341.765       16.703      870.470
04/29/2014  20:59:00      143.911       90.526       56.062       63.869       58.739       57.463     4079.273     3450.320     3302.039        2.144        0.542      170.016       30.706        0.033      341.826       16.807      870.480
04/29/2014  21:00:00      190.587      125.651       67.586       83.971       79.284       50.368     7051.087     6285.901     2536.945        3.627        0.794      228.280       30.936        0.018      341.853       16.851      870.498
04/29/2014  21:01:00      227.071      134.485       56.695      107.909       80.986       73.593    11644.354     6558.671     5415.891        4.824        1.181      263.909       52.555        0.040      341.787       16.738      870.502
04/29/2014  21:02:00      167.952       83.303       48.337       76.752       65.303       44.457     5890.871     4264.532     1976.416        2.481        0.607      187.475       32.636        0.030      341.649       16.506      870.506
04/29/2014  21:03:00      248.475      162.776       40.898       75.264       53.753       49.272     5664.710     2889.399     2427.683        5.044        0.549      297.045       24.631        0.007      341.851       16.848      870.510
04/29/2014  21:04:00      145.289      111.907       69.132       73.438       41.966       43.001     5393.106     1761.141     1849.095        2.371        0.450      183.391       23.112        0.016      341.621       16.458      870.515
04/29/2014  21:05:00      173.426      132.127       80.102       85.958       56.898       51.598     7388.818     3237.427     2662.394        3.362        0.664      218.023       25.456        0.014      341.664       16.530      870.517
04/29/2014  21:06:00      173.394       99.942       50.646       72.944       57.490       52.324     5320.802     3305.116     2737.795        2.699        0.568      200.134       29.906        0.022      341.492       16.239      870.531
04/29/2014  21:07:00      165.388       83.661        8.893       75.643       64.799       47.568     5721.885     4198.952     2262.718        2.330        0.609      185.344       35.414        0.037      341.628       16.470      870.537
04/29/2014  21:08:00      131.992       51.463       16.717       96.224       77.507       47.852     9258.988     6007.386     2289.820        1.895        0.878      141.670       44.071        0.097      341.539       16.321      870.543
04/29/2014  21:09:00      159.780       81.810       26.933       76.616       55.004       51.624     5870.054     3025.474     2665.047        2.225        0.578      179.506       39.677        0.049      341.622       16.460      870.555
04/29/2014  21:10:00      124.581       66.949       28.643       63.974       41.579       42.236     4092.609     1728.792     1783.841        1.421        0.380      141.430       29.420        0.043      341.554       16.348      870.568
04/29/2014  21:11:00      125.859       77.473       32.001       40.306       43.158       30.190     1624.569     1862.625      911.431        1.363        0.220      147.792       13.839        0.009      341.520       16.288      870.580
04/29/2014  21:12:00      118.678       76.564       19.473       58.549       34.257       31.735     3427.974     1173.532     1007.140        1.297        0.280      141.232       17.244        0.015      341.400       16.085      870.590
04/29/2014  21:13:00      164.394      105.699       49.551       57.104       44.908       45.157     3260.840     2016.720     2039.140        2.398        0.366      195.442       27.967        0.020      341.505       16.263      870.586
04/29/2014  21:14:00      130.658       95.295       29.042       49.381       37.572       40.908     2438.493     1411.636     1673.489        1.626        0.276      161.717       18.946        0.014      341.420       16.120      870.600
04/29/2014  21:15:00      140.847       73.948       36.332       37.795       27.929       26.187     1428.438      780.052      685.770        1.476        0.145      159.079        6.812        0.002      341.326       15.961      870.601
04/29/2014  21:16:00      125.858       87.652       17.451       49.883       40.094       28.454     2488.328     1607.489      809.621        1.437        0.245      153.372       17.610        0.013      341.268       15.862      870.617
04/29/2014  21:17:00       82.958       60.075       14.572       34.417       35.467       25.418     1184.539     1257.889      646.063        0.690        0.154      102.426       13.706        0.018      341.227       15.793      870.623
04/29/2014  21:18:00      121.911       84.017       28.190       35.105       30.267       29.088     1232.379      916.122      846.097        1.285        0.150      148.058       18.077        0.015      341.212       15.768      870.624
04/29/2014  21:19:00      104.120       85.367       24.095       57.251       37.132       41.592     3277.720     1378.801     1729.874        1.255        0.319      134.642       27.267        0.041      341.234       15.805      870.639
04/29/2014  21:20:00      113.936       87.066       29.659       46.022       31.713       35.715     2118.012     1005.726     1275.595        1.292        0.220      143.394       21.547        0.023      341.210       15.764      870.661
04/29/2014  21:21:00      105.299       86.830       13.891       59.492       40.377       37.777     3539.282     1630.266     1427.124        1.271        0.330      136.482       30.428        0.050      341.254       15.839      870.664
04/29/2014  21:22:00      126.360       78.979       33.506       40.766       31.680       32.843     1661.886     1003.611     1078.695        1.353        0.187      149.011       25.547        0.029      341.160       15.682      870.677
04/29/2014  21:23:00      107.670       78.168       23.422       48.634       33.183       34.308     2365.234     1101.126     1177.026        1.145        0.232      133.053       24.928        0.035      341.152       15.667      870.701
04/29/2014  21:24:00      103.211       79.719       19.623       49.438       37.381       40.293     2444.069     1397.350     1623.538        1.143        0.273      130.414       26.619        0.042      341.201       15.748      870.720
04/29/2014  21:25:00       61.784       54.105       19.414       46.783       41.107       35.904     2188.689     1689.799     1289.125        0.614        0.258       82.125       20.659        0.063      341.195       15.739      870.727
04/29/2014  21:26:00       32.307      135.613      -17.580       32.139       48.542       27.631     1032.923     2356.373      763.495        1.195        0.208      139.408       25.079        0.032      341.055       15.501      870.738
04/29/2014  21:27:00       35.618      195.121      -24.746       42.606       47.011       38.475     1815.257     2210.066     1480.309        2.273        0.275      198.345       26.513        0.018      340.897       15.232      870.744
04/29/2014  21:28:00       48.110      146.343       -8.955       60.541       71.229       49.946     3665.196     5073.552     2494.645        1.752        0.562      154.048       51.414        0.111      340.789       15.051      870.760
04/29/2014  21:29:00       57.079      196.875      -24.117       45.552       67.368       43.248     2074.959     4538.390     1870.364        2.554        0.424      204.983       38.455        0.035      340.737       14.962      870.765
04/29/2014  21:30:00       59.465      107.651        5.410       57.517       79.209       55.293     3308.247     6274.093     3057.273        1.389        0.632      122.983       48.707        0.157      340.736       14.962      870.767
04/29/2014  21:31:00       63.399      158.203      -11.493       56.996       61.647       48.340     3248.581     3800.368     2336.717        1.928        0.469      170.434       42.271        0.062      340.693       14.888      870.786
04/29/2014  21:32:00       46.320      128.709       -4.179       54.390       80.678       48.233     2958.316     6509.002     2326.444        1.526        0.590      136.791       46.688        0.116      340.682       14.869      870.798
04/29/2014  21:33:00       51.611      139.796      -14.036       52.843       88.095       40.759     2792.361     7760.654     1661.293        1.731        0.611      149.019       43.895        0.087      340.689       14.882      870.797
04/29/2014  21:34:00       41.278      103.678        6.974       46.341       71.005       46.949     2147.518     5041.717     2204.205        1.095        0.470      111.593       35.118        0.099      340.667       14.845      870.808
04/29/2014  21:35:00       55.456      134.148      -13.247       49.920       72.391       42.952     2491.990     5240.473     1844.862        1.541        0.479      145.158       40.846        0.079      340.682       14.870      870.809
04/29/2014  21:36:00       44.861      103.213       -5.090       62.446       51.792       40.244     3899.543     2682.426     1619.549        1.044        0.410      112.541       34.298        0.093      340.682       14.871      870.813
04/29/2014  21:37:00       69.082      144.430      -19.057       37.167       59.865       32.695     1381.361     3583.759     1068.949        1.601        0.302      160.101       28.488        0.032      340.744       14.976      870.813
04/29/2014  21:38:00       61.700       96.786       -3.500       51.134       60.613       46.987     2614.685     3673.921     2207.812        1.084        0.425      114.780       37.968        0.109      340.687       14.878      870.831
04/29/2014  21:39:00       47.961       95.306        2.009       60.563       47.075       39.556     3667.856     2216.059     1564.643        0.942        0.372      106.694       31.669        0.088      340.633       14.789      870.835
04/29/2014  21:40:00       59.306      133.466       -7.695       56.329       49.977       37.434     3172.948     2497.662     1401.299        1.423        0.354      146.049       24.322        0.028      340.722       14.938      870.837
04/29/2014  21:41:00       61.580       76.682        8.771       46.178       53.543       43.230     2132.442     2866.896     1868.849        0.831        0.343       98.347       28.863        0.086      340.675       14.860      870.842
04/29/2014  21:42:00       55.292       86.714       -3.931       51.886       49.408       47.672     2692.201     2441.172     2272.575        0.900        0.370      102.842       35.581        0.120      340.649       14.816      870.852
04/29/2014  21:43:00       47.562       91.346        5.143       43.733       49.554       38.543     1912.573     2455.601     1485.528        0.824        0.293      102.987       32.566        0.100      340.657       14.828      870.856
04/29/2014  21:44:00       68.767       79.854        2.003       44.553       49.727       46.092     1984.998     2472.728     2124.435        0.884        0.329      105.383       33.376        0.100      340.616       14.760      870.858
04/29/2014  21:45:00       34.325       80.337       -0.055       43.924       53.365       39.667     1929.318     2847.852     1573.450        0.699        0.318       87.362       32.135        0.135      340.626       14.776      870.867
04/29/2014  21:46:00       33.699      106.342       -7.902       51.560       60.872       37.414     2658.387     3705.389     1399.803        1.013        0.388      111.554       34.022        0.093      340.621       14.768      870.854
04/29/2014  21:47:00       53.613      136.163       -9.714       56.300       73.468       38.967     3169.678     5397.543     1518.430        1.580        0.504      146.338       37.848        0.067      340.673       14.854      870.863
04/29/2014  21:48:00       42.532      162.300      -16.278       38.965       42.486       33.833     1518.297     1805.063     1144.664        1.644        0.223      167.781       32.431        0.037      340.616       14.760      870.873
04/29/2014  21:49:00       21.531       83.749       -1.589       32.071       49.502       27.960     1028.537     2450.477      781.739        0.587        0.213       86.472       27.195        0.099      340.538       14.628      870.881
04/29/2014  21:50:00       42.131       63.416       -2.439       40.499       53.068       36.484     1640.161     2816.242     1331.060        0.579        0.289       76.136       36.237        0.227      340.535       14.623      870.892
04/29/2014  21:51:00       21.423       64.282       -5.680       21.780       32.631       19.758      474.368     1064.764      390.375        0.328        0.096       67.758       15.829        0.055      340.436       14.454      870.907
04/29/2014  21:52:00       52.986       72.504       -2.706       32.286       41.673       27.991     1042.360     1736.661      783.501        0.582        0.178       89.802       25.269        0.079      340.490       14.547      870.912
04/29/2014  21:53:00       42.301      104.790       -2.024       44.783       57.863       33.757     2005.502     3348.071     1139.532        0.963        0.325      113.006       33.986        0.090      340.520       14.598      870.907
04/29/2014  21:54:00       37.728      126.185      -16.727       28.141       40.362       31.292      791.926     1629.076      979.159        1.051        0.170      131.705       29.160        0.049      340.441       14.463      870.909
04/29/2014  21:55:00       49.295       98.455       -2.874       43.174       43.985       33.284     1863.997     1934.709     1107.855        0.852        0.245      110.106       27.804        0.064      340.447       14.473      870.915
04/29/2014  21:56:00       32.920       49.259        4.957       40.234       33.078       29.320     1618.776     1094.179      859.650        0.355        0.179       59.247       20.709        0.122      340.400       14.396      870.909
04/29/2014  21:57:00       40.222       87.644       -8.681       33.302       51.318       29.176     1108.998     2633.544      851.234        0.698        0.230       96.433       30.677        0.101      340.385       14.368      870.900
04/29/2014  21:58:00       41.235      106.626       -9.992       33.454       49.821       32.146     1119.199     2482.097     1033.387        0.890        0.232      114.322       27.735        0.059      340.395       14.386      870.912
04/29/2014  21:59:00       29.134      114.112      -15.085       32.868       35.693       23.087     1080.304     1274.026      532.992        0.849        0.144      117.772       20.648        0.031      340.381       14.363      870.922
04/29/2014  22:00:00       29.646      101.060      -15.378       28.364       51.491       25.682      804.527     2651.294      659.583        0.772        0.206      105.318       24.642        0.055      340.332       14.279      870.924
04/29/2014  22:01:00       46.250      116.400      -10.900       33.838       42.088       33.426     1145.034     1771.421     1117.321        0.992        0.202      125.252       24.768        0.039      340.385       14.369      870.929
04/29/2014  22:02:00       26.641       71.728       -3.988       23.512       44.948       22.562      552.794     2020.340      509.023        0.448        0.154       76.516       24.423        0.102      340.405       14.403      870.942
04/29/2014  22:03:00       31.513      126.336      -16.218       25.491       44.271       24.674      649.814     1959.965      608.783        1.022        0.161      130.207       28.093        0.047      340.428       14.441      870.937
04/29/2014  22:04:00       20.985       42.696        1.733       22.450       35.385       21.493      503.992     1252.081      461.934        0.224        0.111       47.575       21.840        0.211      340.304       14.232      870.936
04/29/2014  22:05:00       57.514       66.652        1.982       38.798       41.411       35.077     1505.267     1714.879     1230.424        0.610        0.223       88.036       27.289        0.096      340.392       14.380      870.950
04/29/2014  22:06:00       46.480       67.498        3.289       32.487       40.406       34.003     1055.386     1632.678     1156.206        0.528        0.192       81.953       24.805        0.092      340.477       14.524      870.951
04/29/2014  22:07:00       55.316       93.268      -11.634       40.124       45.950       34.024     1609.960     2111.358     1157.603        0.839        0.244      108.438       29.807        0.076      340.495       14.555      870.955
04/29/2014  22:08:00       35.005      130.902      -16.395       28.996       44.104       26.578      840.785     1945.156      706.403        1.106        0.175      135.501       25.569        0.036      340.397       14.390      870.960
04/29/2014  22:09:00       44.981      154.304      -20.147       26.799       32.854       26.064      718.178     1079.368      679.311        1.436        0.124      160.727       19.515        0.015      340.332       14.280      870.975
04/29/2014  22:10:00       48.837      150.323      -21.477       28.963       44.451       22.217      838.868     1975.881      493.608        1.438        0.165      158.057       18.033        0.013      340.324       14.266      870.982
04/29/2014  22:11:00       27.720      112.252      -10.545       29.312       68.320       33.959      859.176     4667.643     1153.221        1.008        0.334      115.624       41.185        0.127      340.272       14.178      870.975
04/29/2014  22:12:00       37.653      121.447       -4.996       36.127       66.065       41.987     1305.196     4364.542     1762.908        1.181        0.372      127.150       45.370        0.127      340.268       14.171      870.968
04/29/2014  22:13:00       45.252      137.627       -8.900       49.450       63.436       43.066     2445.336     4024.150     1854.669        1.469        0.416      144.876       40.465        0.078      340.263       14.161      870.971
04/29/2014  22:14:00       44.702      135.776       -7.217       52.307       67.679       43.314     2736.033     4580.416     1876.115        1.484        0.460      142.946       47.171        0.109      340.237       14.117      870.965
04/29/2014  22:15:00       48.727      108.735      -10.654       41.794       75.338       36.644     1746.738     5675.766     1342.755        1.154        0.438      119.154       38.960        0.107      340.192       14.043      870.951
04/29/2014  22:16:00       31.800      126.296      -13.164       35.479       54.602       30.426     1258.783     2981.393      925.739        1.115        0.258      130.238       27.530        0.045      340.208       14.068      870.945
04/29/2014  22:17:00       44.725      132.643       -6.786       37.347       63.217       43.244     1394.774     3996.396     1870.043        1.345        0.363      139.980       43.365        0.096      340.225       14.098      870.951
04/29/2014  22:18:00       51.368      132.911      -14.298       52.747       73.840       43.293     2782.292     5452.339     1874.248        1.531        0.505      142.492       40.986        0.083      340.250       14.140      870.957
04/29/2014  22:19:00       30.655      125.570       -2.786       46.131       65.574       45.778     2128.041     4299.942     2095.599        1.262        0.426      129.258       42.885        0.110      340.200       14.055      870.963
04/29/2014  22:20:00       57.118      124.193       -3.656       48.894       77.572       46.631     2390.617     6017.339     2174.490        1.464        0.529      136.698       46.379        0.115      340.287       14.203      870.979
04/29/2014  22:21:00       55.389      118.538      -10.180       47.096       66.586       42.839     2218.036     4433.632     1835.140        1.285        0.424      130.840       41.160        0.099      340.259       14.156      871.001
04/29/2014  22:22:00       46.492      154.887      -17.935       40.632       50.552       35.800     1650.986     2555.501     1281.673        1.598        0.274      161.714       27.685        0.029      340.280       14.191      871.017
04/29/2014  22:23:00       44.087      149.489      -14.933       49.305       73.954       43.466     2430.946     5469.238     1889.261        1.715        0.489      155.854       44.135        0.080      340.333       14.279      871.022
04/29/2014  22:24:00       36.215      150.986      -21.315       38.093       44.325       24.474     1451.062     1964.723      598.983        1.429        0.201      155.268       16.909        0.012      340.269       14.172      871.035
04/29/2014  22:25:00       42.269      146.638      -17.228       53.031       54.251       35.806     2812.334     2943.167     1282.066        1.531        0.352      152.608       31.488        0.043      340.294       14.214      871.050
04/29/2014  22:26:00       41.186      216.179      -25.583       44.537       56.747       39.835     1983.561     3220.272     1586.813        2.794        0.340      220.067       35.722        0.026      340.290       14.205      871.052
04/29/2014  22:27:00       39.255      116.998       -6.004       35.683       60.817       39.150     1273.279     3698.671     1532.755        1.088        0.325      123.407       37.873        0.094      340.197       14.052      871.052
04/29/2014  22:28:00       34.206       88.465       -2.735       44.737       59.350       38.125     2001.371     3522.426     1453.548        0.799        0.349       94.848       37.949        0.160      340.225       14.099      871.053
04/29/2014  22:29:00       27.906      127.858      -12.200       33.614       51.495       32.100     1129.920     2651.688     1030.414        1.104        0.241      130.868       29.875        0.052      340.221       14.093      871.068
04/29/2014  22:30:00       42.325      121.231      -11.364       36.382       58.802       35.251     1323.632     3457.631     1242.612        1.132        0.301      128.407       33.995        0.070      340.231       14.108      871.077
04/29/2014  22:31:00       45.320      177.161      -22.700       34.817       39.963       28.121     1212.206     1597.044      790.769        1.878        0.180      182.866       25.638        0.020      340.196       14.048      871.076
04/29/2014  22:32:00       40.294      133.203      -13.791       33.441       67.271       37.947     1118.316     4525.414     1439.949        1.332        0.354      139.164       35.072        0.064      340.187       14.033      871.080
04/29/2014  22:33:00       36.470      130.287       -7.555       41.073       63.732       37.167     1686.967     4061.723     1381.417        1.274        0.357      135.295       37.674        0.078      340.143       13.959      871.095
04/29/2014  22:34:00       34.723      147.257      -13.022       36.652       66.462       39.249     1343.371     4417.136     1540.517        1.518        0.365      151.296       38.008        0.063      340.154       13.977      871.100
04/29/2014  22:35:00       36.406      122.980      -13.600       56.264       73.460       43.507     3165.634     5396.386     1892.893        1.354        0.523      128.255       45.367        0.125      340.135       13.945      871.104
04/29/2014  22:36:00       49.596      100.227       -4.444       36.623       70.335       40.100     1341.208     4946.979     1607.985        1.021        0.395      111.827       38.550        0.119      340.080       13.853      871.121
04/29/2014  22:37:00       31.711      122.052        2.740       58.744       81.211       46.507     3450.871     6595.221     2162.863        1.406        0.610      126.104       46.112        0.134      340.064       13.826      871.123
04/29/2014  22:38:00       26.288      129.347      -22.761       45.310       53.728       35.405     2052.996     2886.656     1253.480        1.207        0.310      131.992       31.547        0.057      340.067       13.831      871.125
04/29/2014  22:39:00       34.221      122.378       -5.531       42.539       65.491       41.159     1809.593     4289.104     1694.101        1.198        0.390      127.072       40.134        0.100      340.038       13.784      871.124
04/29/2014  22:40:00       42.536      186.376      -18.337       41.535       64.447       42.343     1725.129     4153.454     1792.892        2.227        0.384      191.168       42.320        0.049      340.086       13.860      871.132
04/29/2014  22:41:00       50.661      189.148      -19.468       48.081       72.825       42.935     2311.828     5303.463     1843.419        2.409        0.473      195.815       42.072        0.046      340.131       13.937      871.117
04/29/2014  22:42:00       24.613      167.237      -18.726       49.207       68.249       40.604     2421.334     4657.894     1648.668        1.882        0.436      169.039       41.224        0.059      340.019       13.749      871.106
04/29/2014  22:43:00       36.296      169.977      -19.647       40.387       75.936       38.529     1631.109     5766.293     1484.479        1.974        0.444      173.809       41.806        0.058      340.022       13.754      871.104
04/29/2014  22:44:00       39.944      226.443      -30.705       44.853       54.600       37.834     2011.825     2981.151     1431.403        3.012        0.321      229.939       26.234        0.013      340.054       13.807      871.122
04/29/2014  22:45:00       68.188      174.351      -19.426       54.011       82.052       46.364     2917.218     6732.588     2149.642        2.361        0.590      187.211       50.601        0.073      340.057       13.813      871.120
04/29/2014  22:46:00       46.920      148.237       -9.755       55.025       87.248       51.905     3027.790     7612.206     2694.170        1.880        0.667      155.485       54.688        0.124      340.007       13.729      871.122
04/29/2014  22:47:00       44.858      159.566      -11.656       53.403       77.054       49.788     2851.888     5937.253     2478.852        1.944        0.563      165.752       51.487        0.096      340.005       13.726      871.132
04/29/2014  22:48:00       63.750      101.485       -0.547       57.404       87.834       51.780     3295.219     7714.848     2681.215        1.402        0.685      119.847       48.489        0.164      339.968       13.664      871.129
04/29/2014  22:49:00       47.276      126.324       -1.364       46.508       88.496       46.449     2163.016     7831.525     2157.511        1.517        0.608      134.881       50.066        0.138      340.010       13.734      871.121
04/29/2014  22:50:00       35.573      140.420       -6.732       42.959       67.317       40.046     1845.490     4531.528     1603.663        1.450        0.399      144.856       39.141        0.073      339.998       13.715      871.110
04/29/2014  22:51:00       67.654      123.321        4.381       58.468       70.710       52.843     3418.522     4999.891     2792.349        1.551        0.561      140.660       47.049        0.112      339.986       13.695      871.101
04/29/2014  22:52:00       74.962      113.411       -3.649       59.736       69.891       41.969     3568.338     4884.805     1761.405        1.435        0.511      135.946       41.406        0.093      340.025       13.760      871.093
04/29/2014  22:53:00       51.335      110.407       -0.945       63.691       91.782       47.341     4056.579     8423.932     2241.131        1.477        0.736      121.757       53.162        0.191      340.022       13.754      871.085
04/29/2014  22:54:00       49.986      114.642       -7.896       49.944       61.164       43.676     2494.388     3741.040     1907.567        1.192        0.407      125.066       37.571        0.090      340.016       13.745      871.095
04/29/2014  22:55:00       61.028      155.692      -14.322       49.836       83.038       48.239     2483.603     6895.261     2326.981        1.994        0.585      167.226       55.029        0.108      340.002       13.720      871.103
04/29/2014  22:56:00       69.998      188.723      -24.690       45.409       79.852       40.360     2062.013     6376.402     1628.904        2.559        0.503      201.286       37.260        0.034      340.069       13.834      871.093
04/29/2014  22:57:00       60.919      113.159       -8.138       50.206       66.805       43.730     2520.692     4462.860     1912.275        1.274        0.445      128.515       39.151        0.093      340.001       13.720      871.084
04/29/2014  22:58:00       60.620       79.535        5.599       58.591       49.831       45.821     3432.914     2483.154     2099.593        0.902        0.401      100.003       34.691        0.120      339.954       13.642      871.084
04/29/2014  22:59:00       70.782      121.026      -12.842       54.493       67.003       35.960     2969.444     4489.372     1293.111        1.429        0.438      140.205       30.054        0.046      339.983       13.690      871.091
04/29/2014  23:00:00       60.577      109.340       -4.345       53.207       60.638       39.525     2830.936     3676.961     1562.206        1.186        0.404      124.999       38.535        0.095      339.983       13.690      871.090
04/29/2014  23:01:00       63.419      115.736       -2.418       50.328       66.907       43.686     2532.931     4476.611     1908.441        1.317        0.446      131.973       42.588        0.104      339.991       13.703      871.087
04/29/2014  23:02:00       71.291      126.561      -19.642       47.866       76.712       34.400     2291.196     5884.788     1183.364        1.542        0.468      145.259       35.345        0.059      339.977       13.679      871.097
04/29/2014  23:03:00       43.412      138.142      -14.304       40.778       77.577       41.243     1662.842     6018.240     1700.983        1.528        0.469      144.802       34.980        0.058      339.980       13.683      871.117
04/29/2014  23:04:00       46.229      101.062       -8.963       40.207       65.459       39.320     1616.600     4284.835     1546.088        0.994        0.372      111.134       34.106        0.094      339.964       13.658      871.120
04/29/2014  23:05:00       68.865       79.486       -5.461       51.958       48.289       37.328     2699.585     2331.871     1393.360        0.876        0.321      105.168       29.563        0.079      339.941       13.618      871.116
04/29/2014  23:06:00       57.372       94.734       -2.189       48.131       54.521       41.139     2316.566     2972.556     1692.377        0.962        0.349      110.752       32.120        0.084      339.936       13.611      871.105
04/29/2014  23:07:00       47.089      127.397      -10.042       51.901       77.434       45.050     2693.668     5996.038     2029.478        1.463        0.536      135.821       32.871        0.059      339.923       13.589      871.108
04/29/2014  23:08:00       99.706      148.156      -17.830       71.910       78.419       49.996     5171.076     6149.582     2499.620        2.301        0.691      178.582       50.278        0.079      339.930       13.599      871.103
04/29/2014  23:09:00       65.926      163.409      -16.482       45.900       93.428       46.425     2106.802     8728.836     2155.275        2.215        0.650      176.206       54.276        0.095      339.926       13.593      871.098
04/29/2014  23:10:00       77.160      124.337       -4.554       51.509       84.645       49.718     2653.132     7164.714     2471.866        1.686        0.614      146.333       50.241        0.118      339.890       13.532      871.098
04/29/2014  23:11:00       87.085      130.359      -11.495       61.973       75.054       50.874     3840.693     5633.157     2588.150        1.838        0.603      156.772       44.230        0.080      339.936       13.609      871.087
04/29/2014  23:12:00       67.325      185.208      -16.153       66.500       86.780       48.268     4422.233     7530.776     2329.778        2.669        0.714      197.065       48.067        0.059      339.938       13.613      871.066
04/29/2014  23:13:00       60.864      113.109       -5.321       51.899       59.174       48.758     2693.499     3501.570     2377.341        1.255        0.429      128.444       41.501        0.104      339.900       13.551      871.057
04/29/2014  23:14:00       76.236      118.848        8.008       59.256       56.850       48.008     3511.295     3231.924     2304.813        1.452        0.452      141.198       39.394        0.078      339.941       13.618      871.052
04/29/2014  23:15:00       51.949       74.553       -0.431       40.414       58.080       34.743     1633.261     3373.344     1207.045        0.723        0.311       90.867       30.969        0.116      339.883       13.522      871.060
04/29/2014  23:16:00       60.012       67.521       -5.528       55.693       51.282       37.881     3101.661     2629.868     1435.001        0.768        0.358       90.336       27.752        0.094      339.876       13.509      871.068
04/29/2014  23:17:00       59.820       85.003        1.623       47.694       63.840       36.294     2274.728     4075.529     1317.249        0.924        0.383      103.942       31.103        0.090      339.858       13.480      871.059
04/29/2014  23:18:00       87.239       87.233        2.994       57.056       59.478       45.339     3255.375     3537.656     2055.638        1.204        0.442      123.370       39.277        0.101      339.960       13.651      871.066
04/29/2014  23:19:00       47.244       97.097       -8.306       49.784       52.356       34.634     2478.405     2741.155     1199.484        0.907        0.321      107.981       27.030        0.063      339.889       13.531      871.068
04/29/2014  23:20:00       43.558      113.964       -8.841       39.274       47.090       37.134     1542.465     2217.506     1378.914        1.005        0.257      122.005       34.248        0.079      339.903       13.556      871.073
04/29/2014  23:21:00       36.002       93.333       -9.893       44.096       57.798       29.916     1944.477     3340.551      894.985        0.814        0.309      100.036       33.931        0.115      339.852       13.469      871.090
04/29/2014  23:22:00       55.450      123.123      -11.098       56.986       57.831       41.609     3247.361     3344.398     1731.292        1.334        0.416      135.033       27.922        0.043      339.872       13.503      871.103
04/29/2014  23:23:00       84.141      146.764      -12.532       47.336       77.763       48.638     2240.671     6047.008     2365.673        1.971        0.533      169.172       50.368        0.089      339.935       13.608      871.122
04/29/2014  23:24:00       35.724      136.961      -10.706       53.659       68.351       40.835     2879.272     4671.926     1667.513        1.468        0.461      141.543       35.889        0.064      339.881       13.517      871.126
04/29/2014  23:25:00       45.804      134.560      -16.689       43.888       74.313       40.936     1926.198     5522.470     1675.743        1.480        0.456      142.142       42.801        0.091      339.875       13.507      871.142
04/29/2014  23:26:00       34.189      113.562       -9.012       43.479       49.866       32.119     1890.424     2486.597     1031.658        0.978        0.270      118.597       28.198        0.057      339.889       13.531      871.159
04/29/2014  23:27:00       34.186      142.142      -26.601       42.898       70.654       26.155     1840.203     4991.990      684.105        1.480        0.376      146.195       30.782        0.044      339.940       13.618      871.169
04/29/2014  23:28:00       34.866       74.860       -7.810       33.291       69.093       28.858     1108.303     4773.791      832.794        0.680        0.336       82.581       24.139        0.085      339.910       13.566      871.172
04/29/2014  23:29:00       28.645       -1.930       -6.144       32.195       18.544       12.454     1036.515      343.885      155.099        0.120        0.077       28.710        9.563        0.111      339.892       13.538      871.184
04/29/2014  23:30:00       50.961      -19.326        1.265       20.270       22.969       13.214      410.891      527.577      174.611        0.204        0.056       54.503       11.075        0.041      339.989       13.700      871.215
04/29/2014  23:31:00      -85.921      -54.919      -13.223       65.549       39.675       20.429     4296.612     1574.128      417.363        0.843        0.314      101.973       18.833        0.034      340.079       13.851      871.216
04/29/2014  23:32:00      -88.538      -36.691       -8.130       43.570       31.095       20.831     1898.306      966.881      433.948        0.627        0.165       95.840       20.428        0.045      340.015       13.744      871.249
04/29/2014  23:33:00      -40.938      -12.608        5.610       68.854       39.452       24.141     4740.922     1556.445      582.807        0.437        0.344       42.836       11.580        0.073      339.849       13.465      871.270
04/29/2014  23:34:00      -60.850      -44.227      -12.149       29.338       36.204       18.271      860.699     1310.722      333.823        0.416        0.125       75.225       18.633        0.061      339.860       13.483      871.284
04/29/2014  23:35:00      -88.765      -44.753       -8.554       54.714       29.955       21.598     2993.619      897.319      466.468        0.716        0.218       99.409       29.971        0.091      339.845       13.459      871.300
04/29/2014  23:36:00      -92.507      -55.266      -10.406       21.094       28.872       13.188      444.970      833.618      173.927        0.659        0.073      107.758        7.503        0.005      339.788       13.361      871.313
04/29/2014  23:37:00      -83.400      -54.942       -0.914       28.998       33.082       19.426      840.895     1094.396      377.369        0.614        0.116       99.871       18.732        0.035      339.874       13.505      871.325
04/29/2014  23:38:00     -129.043     -131.664       -0.352       69.325       62.545       38.745     4806.015     3911.893     1501.143        2.210        0.511      184.357       34.885        0.036      339.833       13.434      871.315
04/29/2014  23:39:00     -108.109     -100.449       22.337       89.920       68.477       52.114     8085.583     4689.071     2715.920        1.888        0.775      147.572       60.026        0.165      339.798       13.376      871.298
04/29/2014  23:40:00      -90.130      -93.639       19.803       73.223       62.456       45.426     5361.639     3900.741     2063.524        1.430        0.566      129.968       41.126        0.100      339.895       13.543      871.306
04/29/2014  23:41:00      -88.701      -75.047       13.785       78.613       56.836       36.255     6180.012     3230.368     1314.389        1.221        0.536      116.189       30.958        0.071      339.998       13.715      871.326
04/29/2014  23:42:00      -31.471      -81.755       20.321       71.102       43.968       36.200     5055.531     1933.192     1310.444        0.819        0.415       87.603       33.261        0.144      340.012       13.740      871.341
04/29/2014  23:43:00      -69.881      -57.694        0.092       32.993       30.364       17.519     1088.507      921.951      306.912        0.526        0.116       90.620       19.843        0.048      340.069       13.836      871.358
04/29/2014  23:44:00      -82.222      -27.641      -10.845       17.741       18.630       10.958      314.731      347.062      120.086        0.421        0.039       86.744        9.462        0.012      339.868       13.497      871.374
04/29/2014  23:45:00      -55.519      -34.722      -10.671       10.498       12.132        6.827      110.208      147.191       46.601        0.235        0.015       65.482        1.784        0.001      339.846       13.461      871.379
04/29/2014  23:46:00      -84.078      -34.097      -17.372       16.813        7.589        8.627      282.679       57.598       74.422        0.447        0.021       90.729        8.713        0.009      339.910       13.569      871.388
04/29/2014  23:47:00     -113.877      -53.989       -0.339       22.946       22.076       14.497      526.524      487.353      210.170        0.855        0.061      126.027       13.669        0.012      339.737       13.275      871.389
04/29/2014  23:48:00      -71.526      -39.526        1.668       48.918       26.369       15.670     2392.989      695.322      245.541        0.501        0.167       81.720       13.570        0.028      339.592       13.031      871.395
04/29/2014  23:49:00     -110.548      -51.507       -6.087       27.003       17.293       14.808      729.185      299.042      219.282        0.808        0.062      121.959       13.381        0.012      339.673       13.167      871.404
04/29/2014  23:50:00      -68.577      -21.627        2.388       28.154       22.970       14.063      792.643      527.609      197.769        0.335        0.076       71.906       13.878        0.037      339.658       13.143      871.408
04/29/2014  23:51:00     -114.070      -30.572       -4.992       14.792       17.526       11.624      218.813      307.150      135.129        0.732        0.033      118.096        7.952        0.005      339.775       13.340      871.408
04/29/2014  23:52:00     -118.682      -40.368       -8.982       12.971       14.469        7.385      168.236      209.346       54.538        0.811        0.022      125.360        2.158        0.000      339.647       13.125      871.408
04/29/2014  23:53:00      -40.309      -18.143        2.629       35.822       20.871       17.661     1283.211      435.598      311.917        0.200        0.102       44.204        9.274        0.044      339.517       12.905      871.408
04/29/2014  23:54:00       -5.250        3.931        0.862       18.204       13.039        7.960      331.374      170.021       63.360        0.030        0.028        6.559        6.684        1.039      339.442       12.780      871.404
04/29/2014  23:55:00      -42.199      -13.009       -2.009       15.100       17.884        9.411      228.017      319.840       88.573        0.130        0.032       44.159        4.571        0.011      339.633       13.100      871.397
04/29/2014  23:56:00      -42.601      -27.093       -8.950       22.886       17.544       11.046      523.760      307.795      122.004        0.179        0.048       50.486        9.545        0.036      339.627       13.090      871.388
04/29/2014  23:57:00      -54.262      -32.496       -3.852       17.106       15.705       12.989      292.618      246.642      168.725        0.236        0.035       63.248        6.526        0.011      339.485       12.851      871.379
04/29/2014  23:58:00      -67.316       -0.339      -11.501       21.929       17.946       14.420      480.900      322.072      207.935        0.284        0.051       67.316        8.552        0.016      339.539       12.942      871.387
04/29/2014  23:59:00      -25.728       21.455      -10.401       27.157       19.422       13.122      737.507      377.197      172.196        0.126        0.064       33.500       13.549        0.164      339.658       13.142      871.411
